[[{"header":{"parameterUnit":"m.s-1","parameterCategory":1,"la1":30.6,"la2":29.2853,"lo1":-89.7004,"lo2":-87.6739,"dy":0.0162,"dx":0.0183,"nx":112,"ny":82,"refTime":"2024-06-26T12:00:00:Z","depth":0,"parameterNumber":2,"parameterNumberName":"U-component_of_WINDS"},"data":[0.0,0.0,0.0,0.0,0.0,0.0,0.0,0.0,0.0,0.0,0.0,0.0,0.0,0.0,0.0,0.0,0.0,0.0,0.0,0.0,0.0,0.0,0.0,0.0,0.0,0.0,0.0,0.0,0.0,0.0,0.0,0.0,0.0,0.0,0.0,0.0,0.0,0.0,0.0,0.0,0.0,0.0,0.0,0.0,0.0,0.0,0.0,0.0,0.0,0.0,0.0,0.0,0.0,0.0,0.0,0.0,0.0,0.0,0.0,0.0,0.0,0.0,0.0,0.0,0.0,0.0,0.0,0.0,0.0,0.0,0.0,0.0,0.0,0.0,0.0,0.0,0.0,0.0,0.0,0.0,0.0,0.0,0.0,0.0,0.0,0.0,0.0,0.0,0.0,0.0,0.0,-2.5346,-2.6202,-2.6691,-2.6691,-2.5798,-2.5137,-2.4918,0.0,0.0,0.0,0.0,0.0,0.0,0.0,0.0,0.0,0.0,0.0,0.0,0.0,0.0,0.0,0.0,0.0,0.0,0.0,0.0,0.0,0.0,0.0,0.0,0.0,0.0,0.0,0.0,0.0,0.0,0.0,0.0,0.0,0.0,0.0,0.0,0.0,0.0,0.0,0.0,0.0,0.0,0.0,0.0,0.0,0.0,0.0,0.0,0.0,0.0,0.0,0.0,0.0,0.0,0.0,0.0,0.0,0.0,0.0,0.0,0.0,0.0,0.0,0.0,0.0,0.0,0.0,0.0,0.0,0.0,0.0,0.0,0.0,0.0,0.0,0.0,0.0,0.0,0.0,0.0,0.0,0.0,0.0,0.0,0.0,0.0,0.0,0.0,0.0,0.0,0.0,0.0,0.0,0.0,0.0,0.0,0.0,0.0,0.0,0.0,0.0,0.0,0.0,0.0,-2.4012,-2.5441,-2.6268,-2.6691,-2.6691,-2.5392,-2.4517,-2.4416,0.0,0.0,0.0,0.0,0.0,0.0,0.0,0.0,0.0,0.0,0.0,0.0,0.0,0.0,0.0,0.0,0.0,0.0,0.0,0.0,0.0,0.0,0.0,0.0,0.0,0.0,0.0,0.0,0.0,0.0,0.0,0.0,0.0,0.0,0.0,0.0,0.0,0.0,0.0,0.0,0.0,0.0,0.0,0.0,0.0,0.0,0.0,0.0,0.0,0.0,0.0,0.0,0.0,0.0,0.0,0.0,0.0,0.0,0.0,0.0,0.0,0.0,0.0,0.0,0.0,0.0,0.0,0.0,0.0,0.0,0.0,0.0,0.0,0.0,0.0,0.0,0.0,0.0,0.0,0.0,0.0,0.0,0.0,0.0,0.0,0.0,0.0,0.0,0.0,0.0,0.0,0.0,0.0,0.0,0.0,0.0,0.0,0.0,0.0,0.0,0.0,0.0,0.0,-2.324,-2.4498,-2.6031,-2.6488,-2.6539,-2.6133,-2.4909,-2.412,-2.3947,-2.2228,0.0,0.0,0.0,0.0,0.0,0.0,0.0,0.0,0.0,0.0,0.0,0.0,0.0,0.0,0.0,0.0,0.0,0.0,0.0,0.0,0.0,0.0,0.0,0.0,0.0,0.0,0.0,0.0,0.0,0.0,0.0,0.0,0.0,0.0,0.0,0.0,0.0,0.0,0.0,0.0,0.0,0.0,0.0,0.0,0.0,0.0,0.0,0.0,0.0,0.0,0.0,0.0,0.0,0.0,0.0,0.0,0.0,0.0,0.0,0.0,0.0,0.0,0.0,0.0,0.0,0.0,0.0,0.0,0.0,0.0,0.0,0.0,0.0,0.0,0.0,0.0,0.0,0.0,0.0,0.0,0.0,0.0,0.0,0.0,0.0,0.0,0.0,0.0,0.0,0.0,0.0,0.0,0.0,0.0,0.0,0.0,0.0,0.0,0.0,0.0,0.0,0.0,-2.4329,-2.492,-2.6302,-2.6556,-2.6337,-2.5611,-2.4595,-2.3844,-2.3556,-2.1394,0.0,0.0,0.0,0.0,0.0,0.0,0.0,0.0,0.0,0.0,0.0,0.0,0.0,0.0,0.0,0.0,0.0,0.0,0.0,0.0,0.0,0.0,0.0,0.0,0.0,0.0,0.0,0.0,0.0,0.0,0.0,0.0,0.0,0.0,0.0,0.0,0.0,0.0,0.0,0.0,0.0,0.0,0.0,0.0,0.0,0.0,0.0,0.0,0.0,0.0,0.0,0.0,0.0,0.0,0.0,0.0,0.0,0.0,0.0,0.0,0.0,0.0,0.0,0.0,0.0,0.0,0.0,0.0,0.0,0.0,0.0,0.0,0.0,0.0,0.0,0.0,0.0,0.0,0.0,0.0,0.0,0.0,0.0,0.0,0.0,0.0,0.0,0.0,0.0,0.0,0.0,0.0,0.0,0.0,0.0,0.0,0.0,0.0,0.0,0.0,0.0,0.0,-2.4069,-2.4797,-2.5592,-2.6118,-2.6133,-2.5464,-2.4497,-2.3733,-2.3346,-2.1334,0.0,0.0,0.0,0.0,0.0,0.0,0.0,0.0,0.0,0.0,0.0,0.0,0.0,0.0,0.0,0.0,0.0,0.0,0.0,0.0,0.0,0.0,0.0,0.0,0.0,0.0,0.0,0.0,0.0,0.0,0.0,0.0,0.0,0.0,0.0,0.0,0.0,0.0,0.0,0.0,0.0,0.0,0.0,0.0,0.0,0.0,0.0,0.0,0.0,0.0,0.0,0.0,0.0,0.0,0.0,0.0,0.0,0.0,0.0,0.0,0.0,0.0,0.0,0.0,0.0,0.0,0.0,0.0,0.0,0.0,0.0,0.0,0.0,0.0,0.0,0.0,0.0,0.0,0.0,0.0,0.0,0.0,0.0,0.0,0.0,0.0,0.0,0.0,0.0,0.0,0.0,0.0,0.0,0.0,0.0,0.0,0.0,0.0,0.0,0.0,0.0,0.0,-2.3838,-2.4477,0.0,-2.5497,-2.5313,-2.458,-2.3719,-2.2975,-2.2408,0.0,0.0,0.0,0.0,0.0,0.0,0.0,0.0,0.0,0.0,0.0,0.0,0.0,0.0,0.0,0.0,0.0,0.0,0.0,0.0,0.0,0.0,0.0,0.0,0.0,0.0,0.0,0.0,0.0,0.0,0.0,0.0,0.0,0.0,0.0,0.0,0.0,0.0,0.0,0.0,0.0,0.0,0.0,0.0,0.0,0.0,0.0,0.0,0.0,0.0,0.0,0.0,0.0,0.0,0.0,0.0,0.0,0.0,0.0,0.0,0.0,0.0,0.0,0.0,0.0,0.0,0.0,0.0,0.0,0.0,0.0,0.0,0.0,0.0,0.0,0.0,0.0,0.0,0.0,0.0,0.0,0.0,0.0,0.0,0.0,0.0,0.0,0.0,0.0,0.0,0.0,0.0,0.0,0.0,0.0,0.0,0.0,0.0,0.0,0.0,0.0,0.0,-2.2551,-2.3499,-2.4133,0.0,-2.4813,-2.4612,-2.367,-2.3061,-2.2384,-2.1587,0.0,0.0,0.0,0.0,0.0,0.0,0.0,0.0,0.0,0.0,0.0,0.0,0.0,0.0,0.0,0.0,0.0,0.0,0.0,0.0,0.0,0.0,0.0,0.0,0.0,0.0,0.0,0.0,0.0,0.0,0.0,0.0,0.0,0.0,0.0,0.0,0.0,0.0,0.0,0.0,0.0,0.0,0.0,0.0,0.0,0.0,0.0,0.0,0.0,0.0,0.0,0.0,0.0,0.0,0.0,0.0,0.0,0.0,0.0,0.0,0.0,0.0,0.0,0.0,0.0,0.0,0.0,0.0,0.0,0.0,0.0,0.0,0.0,0.0,0.0,0.0,0.0,0.0,0.0,0.0,0.0,0.0,0.0,0.0,0.0,0.0,0.0,0.0,0.0,0.0,0.0,0.0,0.0,0.0,0.0,0.0,0.0,0.0,0.0,0.0,0.0,0.0,-2.1599,-2.3073,-2.3702,-2.2973,-2.4016,-2.4194,-2.2833,-2.2653,-2.2137,0.0,0.0,0.0,0.0,0.0,0.0,0.0,0.0,0.0,0.0,0.0,0.0,0.0,0.0,0.0,0.0,0.0,0.0,0.0,0.0,0.0,0.0,0.0,0.0,0.0,0.0,0.0,0.0,0.0,0.0,0.0,0.0,0.0,0.0,0.0,0.0,0.0,0.0,0.0,0.0,0.0,0.0,0.0,0.0,0.0,0.0,0.0,0.0,0.0,0.0,0.0,0.0,0.0,0.0,0.0,0.0,0.0,0.0,0.0,0.0,0.0,0.0,0.0,0.0,0.0,0.0,0.0,0.0,0.0,0.0,0.0,0.0,0.0,0.0,0.0,0.0,0.0,0.0,0.0,0.0,0.0,0.0,0.0,0.0,0.0,0.0,0.0,0.0,0.0,0.0,0.0,0.0,0.0,0.0,0.0,0.0,0.0,0.0,0.0,0.0,0.0,0.0,0.0,-2.0551,-2.173,-2.2505,-2.267,-2.2949,-2.2947,-2.2606,-2.2147,-2.1582,-2.0827,0.0,0.0,0.0,0.0,0.0,0.0,0.0,0.0,0.0,0.0,0.0,0.0,0.0,0.0,0.0,0.0,0.0,0.0,0.0,0.0,0.0,0.0,0.0,0.0,0.0,0.0,0.0,0.0,0.0,0.0,0.0,0.0,0.0,0.0,0.0,0.0,0.0,0.0,0.0,0.0,0.0,0.0,0.0,0.0,0.0,0.0,0.0,0.0,0.0,0.0,0.0,0.0,0.0,0.0,0.0,0.0,0.0,0.0,0.0,0.0,0.0,0.0,0.0,0.0,0.0,0.0,0.0,0.0,0.0,0.0,0.0,0.0,0.0,0.0,0.0,0.0,0.0,0.0,0.0,0.0,0.0,0.0,0.0,0.0,0.0,0.0,0.0,0.0,0.0,0.0,0.0,0.0,0.0,0.0,0.0,0.0,0.0,0.0,0.0,0.0,0.0,0.0,-2.0347,-2.1582,-2.2253,-2.2085,-2.259,-2.2671,-2.2117,-2.1818,-2.1381,-2.0771,0.0,0.0,0.0,0.0,0.0,0.0,0.0,0.0,0.0,0.0,0.0,0.0,0.0,0.0,0.0,0.0,0.0,0.0,0.0,0.0,0.0,0.0,0.0,0.0,0.0,0.0,0.0,0.0,0.0,0.0,0.0,0.0,0.0,0.0,0.0,0.0,0.0,0.0,0.0,0.0,0.0,0.0,0.0,0.0,0.0,0.0,0.0,0.0,0.0,0.0,0.0,0.0,0.0,0.0,0.0,0.0,0.0,0.0,0.0,0.0,0.0,0.0,0.0,0.0,0.0,0.0,0.0,0.0,0.0,0.0,0.0,0.0,0.0,0.0,0.0,0.0,0.0,0.0,0.0,0.0,0.0,0.0,0.0,0.0,0.0,0.0,0.0,0.0,0.0,0.0,0.0,0.0,0.0,0.0,0.0,0.0,0.0,0.0,0.0,0.0,0.0,0.0,-2.0654,-2.2104,-2.2591,-2.1649,-2.2769,-2.3031,-2.166,-2.162,-2.144,-2.0838,0.0,0.0,0.0,0.0,0.0,0.0,0.0,0.0,0.0,0.0,0.0,0.0,0.0,0.0,0.0,0.0,0.0,0.0,0.0,0.0,0.0,0.0,0.0,0.0,0.0,0.0,0.0,0.0,0.0,0.0,0.0,0.0,0.0,0.0,0.0,0.0,0.0,0.0,0.0,0.0,0.0,0.0,0.0,0.0,0.0,0.0,0.0,0.0,0.0,0.0,0.0,0.0,0.0,0.0,0.0,0.0,0.0,0.0,0.0,0.0,-2.3027,0.0,0.0,0.0,0.0,0.0,0.0,0.0,0.0,0.0,0.0,0.0,0.0,0.0,0.0,0.0,0.0,0.0,0.0,0.0,0.0,0.0,0.0,0.0,0.0,0.0,0.0,0.0,0.0,0.0,0.0,0.0,0.0,0.0,0.0,0.0,0.0,0.0,0.0,0.0,0.0,0.0,-2.0424,-2.1403,-2.2277,-2.3161,-2.3047,-2.2801,-2.2504,-2.2024,-2.147,-2.0905,0.0,0.0,0.0,0.0,0.0,0.0,0.0,0.0,0.0,0.0,0.0,0.0,0.0,0.0,0.0,0.0,0.0,0.0,0.0,0.0,0.0,0.0,0.0,0.0,0.0,0.0,0.0,0.0,0.0,0.0,0.0,0.0,0.0,0.0,0.0,0.0,0.0,0.0,0.0,0.0,0.0,0.0,0.0,0.0,0.0,0.0,0.0,0.0,0.0,0.0,0.0,0.0,0.0,0.0,0.0,0.0,0.0,0.0,0.0,0.0,0.0,-2.3306,0.0,0.0,0.0,0.0,0.0,0.0,0.0,0.0,0.0,0.0,0.0,0.0,0.0,0.0,0.0,0.0,0.0,0.0,0.0,0.0,0.0,0.0,0.0,0.0,0.0,0.0,0.0,0.0,0.0,0.0,0.0,0.0,0.0,0.0,0.0,0.0,0.0,0.0,0.0,0.0,-2.0617,-2.1624,-2.2508,-2.3363,-2.3358,-2.3177,-2.2814,-2.2137,-2.1632,-2.1366,-2.1078,0.0,0.0,0.0,0.0,0.0,0.0,0.0,0.0,0.0,0.0,0.0,0.0,0.0,0.0,0.0,0.0,0.0,0.0,0.0,0.0,0.0,0.0,0.0,0.0,0.0,0.0,0.0,0.0,0.0,0.0,0.0,0.0,0.0,0.0,0.0,0.0,0.0,0.0,0.0,0.0,0.0,0.0,0.0,0.0,0.0,0.0,0.0,0.0,0.0,0.0,0.0,0.0,0.0,0.0,-2.8245,-2.7923,-2.7923,-2.7848,-2.7607,-2.6333,-2.5047,-2.3791,0.0,0.0,0.0,0.0,0.0,0.0,0.0,0.0,0.0,0.0,0.0,0.0,0.0,0.0,0.0,0.0,0.0,0.0,0.0,0.0,0.0,0.0,0.0,0.0,0.0,-2.148,-2.0926,0.0,0.0,0.0,0.0,0.0,0.0,0.0,0.0,0.0,0.0,0.0,0.0,-2.1094,-2.2181,-2.2984,-2.349,-2.393,-2.3868,-2.3077,-2.2349,-2.19,-2.1797,-2.1287,-2.1022,0.0,0.0,0.0,0.0,0.0,0.0,0.0,0.0,0.0,0.0,0.0,0.0,0.0,0.0,0.0,0.0,0.0,0.0,0.0,0.0,0.0,0.0,0.0,0.0,0.0,0.0,0.0,0.0,0.0,0.0,0.0,0.0,-2.2426,-2.3042,0.0,0.0,0.0,0.0,0.0,0.0,0.0,0.0,0.0,0.0,0.0,0.0,0.0,0.0,-2.9471,-2.998,-3.0089,-2.9783,-3.0158,-2.9937,-2.923,-2.923,-2.9247,-2.9196,-2.9006,0.0,-2.5169,-2.3323,0.0,0.0,0.0,0.0,0.0,0.0,0.0,0.0,0.0,0.0,0.0,0.0,0.0,0.0,0.0,0.0,0.0,0.0,0.0,0.0,0.0,0.0,-2.2293,-2.1759,-2.1655,-2.1565,0.0,-2.0199,-1.9343,-1.94,0.0,0.0,0.0,0.0,0.0,0.0,0.0,0.0,-2.1855,-2.2572,-2.3478,-2.5008,-2.5048,-2.4663,-2.3918,-2.3078,-2.2338,-2.1831,-2.1458,-2.1393,-2.1778,-2.0974,0.0,0.0,0.0,0.0,0.0,0.0,0.0,0.0,0.0,0.0,0.0,0.0,0.0,0.0,0.0,0.0,0.0,0.0,0.0,0.0,0.0,0.0,0.0,0.0,0.0,0.0,0.0,0.0,0.0,-2.2145,-2.3783,-2.3784,-2.3584,-2.3268,0.0,0.0,0.0,0.0,0.0,0.0,0.0,0.0,0.0,-2.9709,-3.0613,-3.1514,-3.2394,-3.288,-3.2953,-3.2582,-3.2156,-3.1748,-3.1403,-3.0989,-3.0747,-3.064,-3.0316,-2.9489,-2.8152,-2.5647,-2.4414,-2.3935,0.0,0.0,0.0,0.0,0.0,-2.2611,-2.2828,0.0,0.0,0.0,0.0,0.0,0.0,0.0,0.0,0.0,0.0,0.0,0.0,0.0,0.0,-2.2757,-2.2688,-2.2646,-2.2715,-2.1902,-2.1065,0.0,-2.0273,-1.9708,-1.943,0.0,0.0,0.0,0.0,0.0,-2.15,-2.2716,-2.3856,-2.4893,-2.4977,-2.4677,-2.3918,-2.308,-2.2326,-2.1575,-2.1433,-2.1433,-2.154,-2.1185,-2.0842,0.0,0.0,0.0,0.0,0.0,0.0,0.0,0.0,0.0,0.0,0.0,0.0,0.0,0.0,0.0,0.0,0.0,0.0,0.0,0.0,0.0,0.0,0.0,0.0,0.0,0.0,0.0,0.0,-2.3275,-2.4652,-2.4598,-2.4533,-2.4192,0.0,0.0,0.0,0.0,0.0,0.0,-2.8127,-2.862,-2.9771,-3.1843,-3.293,-3.396,-3.5024,-3.516,-3.5102,-3.4896,-3.3751,-3.3214,-3.3179,-3.2628,-3.2331,-3.2204,-3.1539,-3.1212,-3.0896,-2.7924,-2.6298,-2.5524,-2.4327,-2.3731,-2.3512,-2.3401,-2.3475,-2.3636,-2.3809,-2.3794,-2.3815,-2.4066,0.0,-2.3239,-2.2978,0.0,0.0,0.0,0.0,-2.266,-2.332,0.0,-2.321,-2.3672,-2.3526,-2.3304,-2.3436,-2.2964,-2.2461,0.0,-2.1719,-2.1411,-2.1036,0.0,0.0,0.0,0.0,-2.0882,-2.1316,-2.2775,-2.3974,-2.4505,-2.4901,-2.4755,-2.3784,-2.3178,-2.2394,-2.1405,-2.134,-2.134,-2.1309,-2.1309,-2.1082,-2.058,0.0,0.0,0.0,0.0,0.0,0.0,0.0,0.0,0.0,0.0,0.0,0.0,0.0,0.0,0.0,0.0,0.0,0.0,0.0,0.0,0.0,0.0,0.0,0.0,0.0,0.0,0.0,0.0,0.0,-2.5597,-2.5894,0.0,0.0,0.0,0.0,-2.7029,-2.7918,-2.8808,-2.9652,-3.1139,-3.2389,-3.3277,-3.495,-3.6041,-3.6496,-3.5611,-3.5368,-3.5723,-3.4588,-3.4024,-3.4024,-3.399,-3.3973,-3.3921,-3.3128,-3.28,-3.2521,-2.9191,-2.7513,-2.6982,-2.6049,-2.5357,-2.4894,-2.476,-2.5008,-2.5419,-2.5195,-2.5081,-2.5087,-2.5546,-2.4836,-2.3779,-2.3749,-2.3296,0.0,0.0,-2.4173,-2.4627,-2.5455,-2.4955,-2.425,-2.4279,-2.3687,-2.3127,-2.3127,-2.3201,-2.3126,0.0,-2.2032,-2.1545,-2.1738,0.0,-2.1461,-2.1431,-2.1325,-2.1398,-2.1815,-2.2793,-2.367,-2.4353,-2.5275,-2.5258,-2.3817,-2.3567,-2.2882,-2.1484,-2.1294,-2.1247,-2.1309,-2.1309,-2.1261,-2.1229,-2.0673,0.0,0.0,0.0,0.0,0.0,0.0,0.0,0.0,0.0,0.0,0.0,0.0,0.0,0.0,0.0,0.0,0.0,0.0,0.0,0.0,0.0,0.0,0.0,0.0,0.0,0.0,0.0,0.0,-2.664,-2.6807,0.0,0.0,-2.7709,-2.8224,-2.8773,-2.9628,-3.0686,-3.2053,-3.3158,-3.4395,-3.5793,-3.62,-3.6654,-3.7184,-3.6592,-3.6233,-3.6116,-3.5227,-3.48,-3.4783,-3.43,-3.4093,-3.4059,-3.3783,-3.3369,-3.2817,-3.162,-3.0112,-2.8522,-2.7519,-2.6864,-2.6376,-2.6125,-2.6139,-2.6228,-2.5862,-2.5697,-2.5697,-2.5894,-2.5591,-2.5198,-2.5093,-2.4927,-2.4791,-2.4972,-2.5076,-2.5161,-2.5478,-2.5201,-2.4864,-2.4864,-2.4209,-2.3666,-2.3803,-2.3421,-2.3054,-2.3067,-2.2931,-2.2676,-2.2424,-2.2185,-2.1831,-2.1392,-2.1562,-2.1771,-2.1816,-2.3119,-2.411,-2.4261,-2.516,-2.5167,-2.3679,-2.3547,-2.2863,-2.1391,-2.1262,-2.1294,-2.1309,-2.1309,-2.1309,-2.1309,-2.1128,-2.0671,0.0,0.0,0.0,0.0,0.0,0.0,0.0,0.0,0.0,0.0,0.0,0.0,0.0,0.0,0.0,0.0,0.0,0.0,0.0,0.0,0.0,0.0,0.0,0.0,0.0,0.0,-2.5739,-2.7236,-2.7921,-2.8533,-2.9242,-2.9737,-3.0386,-3.1253,-3.2076,-3.3056,-3.4154,-3.4999,-3.5968,-3.7116,-3.7112,-3.7253,-3.765,-3.717,-3.6759,-3.6474,-3.5883,-3.5559,-3.5542,-3.5059,-3.4835,-3.4818,-3.4576,-3.4162,-3.3662,-3.3404,-3.2196,-3.0361,-2.9116,-2.8343,-2.789,-2.733,-2.7118,-2.7072,-2.6669,-2.6542,-2.6542,-2.6542,-2.6438,-2.6257,-2.6148,-2.6148,-2.6101,-2.6038,-2.606,-2.6065,-2.6065,-2.5722,-2.5414,-2.5414,-2.4786,-2.4225,-2.4352,-2.3955,-2.3531,-2.3554,-2.3482,-2.3317,-2.3029,-2.277,-2.2451,-2.1913,-2.2119,-2.225,-2.2074,-2.3225,-2.4101,-2.4142,-2.4926,-2.4895,-2.3592,-2.3513,-2.2863,-2.1327,-2.1294,-2.1309,-2.1309,-2.1309,-2.134,-2.134,-2.1189,-2.0907,-2.0463,0.0,0.0,0.0,0.0,0.0,0.0,0.0,0.0,0.0,0.0,0.0,0.0,0.0,0.0,0.0,0.0,0.0,0.0,0.0,0.0,0.0,0.0,0.0,-2.4319,-2.662,-2.8092,-2.7529,-2.9303,-3.063,-3.079,-3.2325,-3.361,-3.4478,-3.5354,-3.5856,-3.5874,-3.6712,-3.718,-3.7198,-3.7778,-3.8038,-3.802,-3.7281,-3.6935,-3.686,-3.6492,-3.6301,-3.6301,-3.6301,-3.6301,-3.6266,-3.5542,-3.5214,-3.5128,-3.4421,-3.3515,-3.2464,-3.0826,-2.9881,-2.9303,-2.8396,-2.8035,-2.7955,-2.7675,-2.7625,-2.7625,-2.7625,-2.7255,-2.6841,-2.6841,-2.6841,-2.6841,-2.6841,-2.7111,-2.7401,-2.7401,-2.6608,-2.5821,-2.5821,-2.5257,-2.471,-2.471,-2.4765,-2.466,-2.4192,-2.3686,-2.3363,-2.3466,-2.3363,-2.3275,-2.3127,-2.2979,0.0,-2.2646,-2.3068,-2.358,-2.4021,-2.4558,-2.4519,-2.3589,-2.3495,-2.2863,-2.1438,-2.1294,-2.1294,-2.1341,-2.1404,-2.145,-2.145,-2.0855,-2.0566,-2.0591,0.0,0.0,0.0,0.0,0.0,0.0,0.0,0.0,0.0,0.0,0.0,0.0,0.0,0.0,0.0,0.0,0.0,0.0,0.0,0.0,0.0,0.0,-2.7632,-2.7795,-2.8039,-2.8837,-3.0631,-3.1784,-3.2691,-3.3265,-3.438,-3.5178,-3.5426,-3.62,-3.6906,-3.7504,-3.8365,-3.9122,-3.9771,-3.9427,-3.9026,-3.8509,-3.772,-3.7064,-3.6451,-3.6343,-3.6301,-3.6301,-3.6301,-3.6301,-3.6284,-3.6027,-3.553,-3.4898,-3.466,-3.4007,-3.3161,-3.2254,-3.0975,-2.9658,-2.9187,-2.8449,-2.7675,-2.7625,-2.7625,-2.7625,-2.7625,-2.7555,-2.7519,-2.7405,-2.747,-2.747,-2.727,-2.7253,-2.7233,-2.7144,-2.6805,-2.6518,-2.6518,-2.601,-2.5495,-2.5495,-2.5119,-2.4791,-2.4694,-2.4538,-2.4148,-2.3348,-2.3201,-2.3112,-2.2978,-2.2902,0.0,-2.2812,-2.3157,-2.3493,-2.3824,-2.4271,-2.4359,-2.3909,-2.3435,-2.2833,0.0,-2.1616,-2.1552,-2.2086,-2.2151,-2.2279,-2.2406,-2.173,-2.1134,0.0,0.0,0.0,0.0,0.0,0.0,0.0,0.0,0.0,0.0,0.0,0.0,0.0,0.0,0.0,0.0,0.0,0.0,0.0,0.0,0.0,0.0,-2.8398,-2.9906,-3.068,-3.0181,-3.0309,-3.1841,-3.2673,-3.3584,-3.4781,-3.5435,-3.6186,-3.7232,-3.7739,-3.8337,-3.9115,-3.9724,-4.0266,-4.0789,-4.0293,-3.9856,-3.9463,-3.8649,-3.8017,-3.7547,-3.7335,-3.7094,-3.6801,-3.6801,-3.6611,0.0,-3.6251,-3.5908,-3.5394,-3.5369,-3.4925,0.0,0.0,0.0,0.0,0.0,-2.92,-2.8096,-2.8096,-2.7916,-2.7675,-2.7675,-2.779,-2.7855,-2.779,-2.784,-2.7855,-2.7539,-2.7386,-2.7248,-2.7055,-2.6899,-2.6779,-2.6779,-2.6489,-2.6199,-2.6199,-2.5908,-2.5575,-2.5264,0.0,0.0,-2.3952,-2.3792,-2.3807,-2.3685,-2.3435,-2.3308,0.0,-2.3273,-2.3348,-2.3754,-2.3937,-2.4035,-2.3977,-2.3618,0.0,0.0,0.0,-2.2297,-2.2476,-2.2573,0.0,0.0,0.0,0.0,0.0,0.0,0.0,0.0,-2.0896,-2.1193,0.0,0.0,0.0,0.0,0.0,0.0,0.0,0.0,0.0,0.0,0.0,0.0,0.0,0.0,0.0,0.0,-2.9876,-3.1374,-3.2892,-3.2609,-3.2177,-3.2008,-3.2755,-3.3948,-3.553,-3.5941,-3.7022,-3.9224,-3.9387,-3.9767,-4.06,0.0,0.0,0.0,0.0,-4.069,-4.0509,-3.9682,-3.9223,-3.9006,-3.8538,-3.7991,-3.7353,-3.7353,-3.6973,-3.6259,-3.6208,-3.6165,-3.6122,-3.6191,-3.5766,-3.4935,-3.272,-3.2199,-3.2504,-3.1258,-2.992,0.0,0.0,0.0,0.0,-2.8037,-2.8072,-2.8126,-2.8126,-2.8065,-2.7955,-2.7675,-2.7539,-2.7401,-2.7107,-2.6937,-2.6832,-2.6779,-2.6779,-2.6779,-2.6779,-2.6779,-2.6605,-2.5856,-2.5843,-2.572,-2.5034,-2.493,-2.4878,-2.4785,-2.4355,0.0,-2.4046,-2.3443,-2.3185,-2.3668,0.0,0.0,-2.3973,-2.3901,-2.3787,-2.3643,-2.3661,-2.3387,-2.2818,-2.2916,-2.298,-2.3076,-2.2589,-2.2663,-2.3307,-2.2596,-2.2225,-2.224,-2.2409,-2.253,0.0,0.0,0.0,0.0,0.0,0.0,0.0,0.0,0.0,0.0,0.0,0.0,0.0,0.0,0.0,-3.1048,-3.2194,-3.306,-3.3629,-3.3655,-3.3486,-3.3211,-3.4377,-3.5331,-3.567,-3.7525,-3.888,-3.9351,-3.9387,-4.0038,-4.1542,-4.1119,0.0,-4.2829,-4.2596,-4.1796,-4.0527,-3.9682,-3.8638,-3.7356,0.0,0.0,-3.6525,-3.6525,-3.6414,-3.6208,-3.6062,-3.5932,-3.5711,-3.5684,-3.5321,-3.464,-3.3274,-3.2579,-3.2187,-3.12,-2.992,-2.8912,-2.9531,-2.9236,-2.8731,-2.9349,-2.927,-2.8946,-2.886,-2.848,0.0,-2.784,-2.774,-2.764,-2.7284,-2.713,-2.7078,-2.6832,-2.6779,-2.6779,-2.6779,-2.6779,-2.6736,-2.662,-2.6591,-2.6547,-2.6431,-2.5495,-2.4785,-2.4785,-2.4684,-2.4471,-2.401,-2.3775,-2.3637,-2.3422,-2.329,-2.3406,-2.3952,-2.3714,-2.3599,-2.3888,-2.434,-2.4365,-2.3974,-2.4007,-2.4094,-2.4183,-2.3163,-2.2675,-2.2853,-2.2964,-2.3007,-2.2968,-2.2536,-2.2683,0.0,0.0,0.0,0.0,0.0,0.0,0.0,0.0,0.0,0.0,0.0,-2.7345,-2.8651,0.0,-3.1236,-3.2574,-3.3537,-3.4049,-3.3917,-3.3998,-3.3895,-3.3455,-3.4069,-3.4839,-3.5666,-3.725,-3.8518,-3.9333,-3.9749,-4.0346,-4.1251,-4.0992,-4.1407,-4.2754,-4.2648,-4.2122,-4.1107,-4.0506,-3.9481,-3.8093,-3.7654,-3.7206,-3.6697,-3.6784,-3.6509,-3.601,-3.5949,-3.58,-3.5684,-3.5594,-3.5458,-3.5299,-3.4559,-3.3665,-3.2681,-3.2501,-3.1388,-3.0076,-3.0464,-3.0144,-2.959,-2.9962,-2.9959,-2.9802,-2.9715,-2.9291,-2.8756,-2.854,-2.8097,-2.764,-2.7386,-2.713,-2.6989,-2.6832,-2.6779,-2.6779,-2.6779,-2.6779,-2.6779,-2.6779,-2.6779,-2.6779,-2.6779,-2.6294,-2.5872,-2.5807,-2.5581,-2.5296,-2.499,-2.4621,-2.4349,-2.4277,-2.3877,-2.3866,-2.4511,-2.4246,-2.4178,-2.4296,-2.4605,-2.4559,-2.4026,-2.4026,-2.41,-2.4138,-2.3378,-2.3149,-2.3491,-2.3448,-2.3591,-2.3882,-2.3201,-2.3169,0.0,0.0,0.0,0.0,0.0,0.0,0.0,0.0,-2.6284,-2.7561,-2.8447,-2.9474,-3.0949,-3.1895,-3.2765,-3.3802,-3.4447,-3.4661,-3.422,-3.4166,-3.3972,-3.3411,-3.3611,-3.4328,-3.5661,-3.6798,-3.7993,-3.9297,-3.9948,-4.0436,-4.0704,-4.0646,-4.104,-4.1949,-4.2051,-4.1839,-4.1342,-4.0845,-4.0081,-3.8936,-3.8391,-3.7816,-3.7131,-3.7237,-3.6891,-3.6242,-3.6061,-3.5994,-3.5977,-3.569,-3.5711,-3.5888,-3.5667,-3.4657,-3.3407,-3.3818,-3.2823,-3.1213,-3.1389,-3.0991,-3.0402,-3.0593,-3.06,-3.0612,-3.0612,-3.0151,-2.9531,-2.9225,-2.8531,-2.7775,-2.7467,-2.7144,-2.6884,-2.6832,-2.6779,-2.6779,-2.6779,-2.6779,-2.6779,-2.6779,-2.6779,-2.6779,-2.6779,-2.6899,-2.6951,-2.6846,-2.6484,-2.614,-2.6023,-2.5471,-2.5092,-2.5173,-2.4622,-2.4532,-2.518,-2.4998,-2.4817,-2.4694,-2.4773,-2.4524,-2.3842,-2.3889,-2.3912,-2.3912,-2.3496,-2.3544,-2.4094,-2.3917,-2.4044,-2.4491,-2.3889,-2.3763,-2.5564,-2.4739,-2.4321,-2.5033,-2.512,-2.5601,0.0,0.0,-2.9485,-3.0226,-3.1029,-3.189,-3.2908,-3.3193,-3.3799,-3.5362,-3.5203,-3.4929,-3.5036,-3.474,-3.4245,-3.3481,-3.4648,-3.5571,-3.5783,-3.7812,-3.9206,-3.9387,-3.9529,-3.9942,-4.0737,-4.0236,-4.0317,-4.1189,-4.1207,-4.0859,-4.0093,-3.9337,-3.854,-3.7699,-3.694,-3.6801,-3.7271,-3.7271,-3.7473,-3.7721,-3.7017,-3.67,-3.6649,-3.591,-3.5622,-3.5622,-3.5622,-3.4927,-3.3919,-3.3986,-3.2823,-3.1328,-3.202,-3.1735,-3.1236,-3.1927,-3.1767,-3.1274,-3.1274,-3.0828,-3.013,-2.9246,-2.8966,-2.8616,-2.7469,-2.7181,-2.7078,-2.6832,-2.6779,-2.6779,-2.6779,-2.6779,-2.6779,-2.6779,-2.6779,-2.6779,-2.6779,-2.6899,-2.7003,-2.7003,-2.6945,-2.6681,-2.6082,-2.5821,-2.5523,-2.5053,-2.497,-2.5213,-2.5758,-2.536,-2.505,-2.505,-2.4926,-2.4688,-2.4236,-2.4236,-2.422,-2.422,-2.3788,-2.3492,-2.3407,-2.4134,-2.4372,-2.4153,-2.4086,-2.442,-2.5586,-2.5336,0.0,0.0,-2.6192,-2.6602,-2.8447,-2.9032,-2.9693,-3.1336,-3.19,-3.2558,-3.3956,-3.424,-3.4656,0.0,-3.5814,-3.5558,-3.528,-3.5277,-3.4838,-3.3546,-3.4957,-3.597,-3.582,-3.7975,-3.9206,-3.8735,-3.9636,-3.9958,-3.944,-3.9191,-3.9456,-4.0377,-4.0396,-4.0134,-3.9553,-3.8996,-3.818,-3.7132,-3.696,-3.6945,-3.7075,-3.7502,-3.7784,-3.7902,-3.7614,-3.7195,-3.6755,-3.6434,-3.6028,-3.5622,-3.5622,-3.5131,-3.4431,-3.4136,-3.3129,-3.1974,-3.229,-3.2158,-3.1974,-3.2305,-3.2198,-3.1967,-3.1967,-3.1467,-3.07,-2.984,-2.9109,-2.8412,-2.7447,-2.7078,-2.6937,-2.6832,-2.6779,-2.6779,-2.6779,-2.6779,-2.6779,-2.6779,-2.6779,-2.6779,-2.6779,-2.6899,-2.7003,-2.7003,-2.7041,-2.7041,-2.6747,-2.6579,-2.628,-2.5771,-2.5845,-2.5938,-2.5723,-2.553,-2.5244,-2.4806,-2.4783,-2.4475,-2.3925,-2.3909,-2.4048,-2.4369,-2.4149,-2.4208,-2.4534,-2.4908,-2.5203,-2.5427,-2.4643,-2.4557,-2.5525,0.0,0.0,-2.6922,-2.7245,-2.7682,-2.8957,-2.9402,-2.9973,-3.1615,-3.2336,-3.2996,-3.4225,-3.4679,-3.5247,-3.6249,-3.6289,-3.6071,-3.5727,-3.5988,-3.5619,-3.3927,-3.5454,-3.6501,-3.6159,-3.7902,-3.8826,-3.8228,-3.9379,-3.9574,-3.8455,-3.8496,-3.8975,-3.9895,-3.9913,-3.991,-3.9896,-3.9463,-3.865,-3.745,-3.7694,-3.7617,-3.7291,-3.8197,-3.856,-3.8481,-3.8091,-3.7601,-3.706,-3.6637,-3.6129,-3.5622,-3.5622,-3.527,-3.4769,-3.4366,-3.3563,-3.2641,-3.2641,-3.2547,-3.2398,-3.2398,-3.2398,-3.2398,-3.2287,-3.191,-3.1226,-3.031,-2.934,-2.8379,-2.7571,-2.7068,-2.6779,-2.6779,-2.6779,-2.6779,-2.6779,-2.6779,-2.6779,-2.6779,-2.6779,-2.6779,-2.6846,-2.6951,-2.7003,-2.7055,-2.7196,-2.7233,-2.7181,-2.7144,-2.6916,-2.6583,-2.6723,-2.6628,-2.6198,-2.5989,-2.5674,-2.5196,-2.5001,-2.4672,-2.4178,-2.4148,-2.4343,-2.4744,-2.4698,-2.4889,-2.5301,-2.5494,-2.5785,-2.6159,-2.5131,-2.4778,0.0,0.0,-2.696,-2.7768,-2.8502,-2.924,-2.9997,-3.0758,-3.1291,-3.1159,-3.2539,-3.3713,-3.3563,-3.4282,-3.5419,-3.7005,-3.6668,-3.6279,-3.6526,-3.7009,-3.6648,-3.4793,-3.6434,-3.7524,0.0,-3.7721,-3.821,-3.8192,-3.8358,-3.8437,-3.8382,-3.8578,-3.9087,-3.9952,-4.0019,-4.0437,-4.1329,-4.0936,-4.0073,-3.8742,-3.9027,-3.8807,-3.8184,-3.9474,-4.002,-3.9935,-3.8514,-3.7889,-3.7753,-3.6265,-3.5639,-3.5622,-3.5622,-3.527,-3.4769,-3.4769,-3.4119,-3.3198,-3.3198,-3.2841,-3.2398,-3.2398,-3.2398,-3.2342,-3.2094,-3.1981,-3.1702,-3.0446,-2.9625,-2.8866,-2.7923,-2.7244,-2.6779,-2.6779,-2.6779,-2.6779,-2.6779,-2.6779,-2.6779,-2.6779,-2.6779,-2.6846,-2.6951,-2.7003,-2.7041,-2.7181,-2.7284,-2.735,-2.7233,-2.7181,-2.7233,-2.7372,-2.7372,-2.7408,-2.7515,-2.6916,-2.6557,-2.6527,-2.5929,-2.557,-2.5555,-2.5555,-2.5555,-2.557,-2.5429,-2.5224,-2.4985,-2.5806,-2.5979,-2.564,-2.5326,-2.5273,0.0,0.0,-2.7906,-2.8674,-2.9013,-2.9344,-3.0043,-3.0409,-3.0744,-3.1203,-3.1775,-3.2346,-3.2817,-3.3665,-3.4805,-3.631,-3.6881,-3.7194,-3.7415,-3.792,-3.7554,-3.563,-3.6801,0.0,0.0,0.0,0.0,-3.831,-3.8846,-3.898,-3.8496,-3.8609,-3.9087,-3.9982,-4.0019,-4.0406,-4.1235,-4.0972,-4.052,-3.9986,-3.9846,-3.9673,-3.9491,-3.9884,-3.9817,-3.9326,-3.8853,-3.777,-3.64,-3.6383,-3.5791,-3.4928,-3.5419,-3.547,-3.5316,-3.5316,-3.4673,-3.3665,-3.3339,-3.2841,-3.2398,-3.2398,-3.2302,-3.215,-3.2053,-3.1754,-3.1228,-2.9844,-2.9204,-2.8682,-2.7428,-2.6939,-2.6779,-2.6779,-2.6779,-2.6779,-2.6779,-2.6779,-2.6779,-2.6779,-2.6899,-2.7003,-2.7093,-2.7196,-2.7299,-2.7423,-2.7473,-2.7539,-2.7473,-2.7524,-2.759,-2.7539,-2.7524,-2.7524,-2.7575,-2.7415,-2.7051,-2.6617,-2.6378,-2.6063,-2.563,-2.5615,-2.5777,-2.6128,-2.5982,-2.609,-2.6453,-2.6652,-2.6667,-2.6512,-2.559,-2.5175,-2.8379,-2.8461,-2.8738,-2.9226,-2.95,-2.9773,-3.0177,-3.026,-3.0311,-3.0513,-3.08,-3.1169,-3.1645,-3.2477,-3.3777,-3.5949,-3.6786,-3.7394,-3.8056,-3.8893,-3.8694,-3.6673,-3.7934,-3.8681,0.0,0.0,0.0,-3.838,-3.9134,-3.9502,-3.9017,-3.9093,-3.97,-4.088,-4.0948,-4.1335,-4.2166,-4.2032,-4.1677,-4.1124,-4.0225,-3.992,-4.007,-4.007,-3.9681,-3.8954,-3.843,-3.7381,-3.6028,-3.5977,-3.5537,-3.4945,-3.5419,-3.5622,-3.5622,-3.5622,-3.4927,-3.3935,-3.3614,-3.3002,-3.2398,-3.2302,-3.215,-3.194,-3.1697,-3.1452,-3.0983,-2.9912,-2.9241,-2.8645,-2.7719,-2.7128,-2.6779,-2.6779,-2.6846,-2.6899,-2.6899,-2.6937,-2.6989,-2.6937,-2.7093,-2.7248,-2.7284,-2.735,-2.7452,-2.7625,-2.7675,-2.7625,-2.7625,-2.774,-2.774,-2.7625,-2.7625,-2.7625,-2.7625,-2.7625,-2.7445,-2.6961,-2.6946,-2.6752,-2.6236,-2.6221,-2.6317,-2.6663,-2.6512,-2.6667,-2.7144,-2.6989,-2.6951,-2.6884,-2.592,-2.541,-2.8645,-2.8934,-2.9479,-2.9474,-2.9994,-3.0479,-3.0428,-3.0375,-3.009,-2.9193,-2.9634,-3.0164,0.0,0.0,-3.2522,-3.5832,-3.643,-3.6973,-3.8438,-3.9879,-3.999,0.0,0.0,0.0,0.0,0.0,0.0,-3.8576,0.0,-3.9896,-3.9955,-4.0031,-4.0843,-4.2562,-4.2662,-4.3095,-4.3897,-4.3942,-4.3316,-4.2073,-4.0199,-3.9542,-4.002,-4.002,-3.9597,-3.8802,-3.7347,-3.6671,-3.6502,-3.5081,-3.4895,-3.5504,-3.5588,-3.5622,-3.5622,-3.5622,-3.4927,-3.4036,-3.4036,-3.3319,-3.2342,-3.2094,-3.1981,-3.1868,-3.1204,-3.1029,-3.097,-3.0658,-2.9697,-2.8722,-2.8693,-2.7763,-2.6832,-2.6832,-2.6899,-2.7003,-2.7003,-2.7211,-2.735,-2.7233,-2.7423,-2.7575,-2.7452,-2.7452,-2.7539,-2.779,-2.779,-2.774,-2.7625,-2.774,-2.774,-2.7625,-2.7625,-2.7625,-2.7625,-2.7625,-2.7625,-2.7625,-2.7625,-2.7524,-2.7401,-2.7284,-2.7233,-2.7233,-2.6937,-2.6899,-2.7003,-2.6846,-2.6779,-2.6779,-2.6111,-2.5813,-3.0226,-3.027,-3.0361,-3.0358,-3.0432,-3.0492,-3.0481,-2.9969,-2.9438,-2.9196,-2.8859,-2.855,-2.8426,0.0,0.0,-3.4332,-3.6094,0.0,-3.929,-3.9854,0.0,-3.8693,0.0,-4.0651,-3.967,-4.1126,0.0,0.0,-4.0639,-4.0781,-4.0859,-4.099,-4.1533,-4.258,-4.2662,-4.3095,-4.3897,-4.3422,-4.2812,-4.2091,-4.1103,-4.0161,-3.9276,-3.9276,-3.8565,-3.7297,-3.6332,-3.5284,-3.4286,-3.4438,-3.4286,-3.4083,-3.5182,-3.5622,-3.5622,-3.5622,-3.5178,-3.4577,-3.4513,-3.3543,-3.2247,-3.2191,-3.191,-3.161,-3.1422,-3.1219,-3.097,-3.0396,-2.9618,-2.8884,-2.8454,-2.7733,-2.7078,-2.7078,-2.713,-2.7144,-2.7144,-2.7299,-2.735,-2.7233,-2.7488,-2.779,-2.7989,-2.7989,-2.7989,-2.7955,-2.7955,-2.7905,-2.779,-2.7855,-2.7905,-2.774,-2.7675,-2.7625,-2.7625,-2.7625,-2.7625,-2.7625,-2.7625,-2.7575,-2.7524,-2.7437,-2.735,-2.735,-2.7107,-2.6951,-2.7003,-2.6698,-2.6645,-2.6779,-2.5591,-2.5276,-3.0752,-3.1035,-3.1217,-3.0794,-3.1195,-3.1389,-3.0201,-3.0123,-2.9969,-2.8818,-2.8271,0.0,-2.7903,0.0,0.0,0.0,0.0,0.0,-3.9699,-4.0207,-4.022,0.0,-4.0766,0.0,-3.9882,-4.1533,-4.2415,0.0,-4.1705,-4.1738,-4.1865,-4.1946,-4.2334,-4.3148,-4.3243,-4.3465,-4.3851,-4.2886,-4.2271,-4.1943,-4.1087,-4.0072,-3.8988,-3.8988,-3.8193,-3.6738,0.0,-3.5148,-3.4387,-3.4455,-3.4498,-3.4515,-3.5301,-3.5622,-3.5684,-3.5594,-3.5211,-3.4754,-3.4643,-3.3646,-3.2342,-3.2302,-3.1951,-3.1495,-3.1336,-3.1234,-3.094,-3.0277,-2.9613,-2.895,-2.8302,-2.7653,-2.7181,-2.7181,-2.7233,-2.7284,-2.7372,-2.7539,-2.7705,-2.774,-2.779,-2.7955,-2.825,-2.8186,-2.8103,-2.8103,-2.8103,-2.8054,-2.7905,-2.7955,-2.7955,-2.779,-2.779,-2.779,-2.779,-2.774,-2.7675,-2.7675,-2.7625,-2.7575,-2.7539,-2.735,-2.7196,-2.7196,-2.6922,-2.6817,-2.6899,-2.6712,-2.6712,-2.6779,-2.5988,-2.5825,-3.07,-3.1306,-3.1736,-3.0927,-3.1818,-3.2252,-2.9767,-3.0335,-3.0711,-2.8318,0.0,-2.8,-2.8,-2.8067,-2.9148,-3.2276,0.0,-3.6307,-3.9808,-4.0478,-4.07,-4.0984,-4.158,-4.1518,-4.0302,-4.1883,-4.2939,-4.2797,-4.2664,-4.2664,-4.2841,-4.2872,-4.3187,-4.3878,-4.3942,-4.3929,-4.3804,-4.2358,-4.1651,-4.1633,-4.0384,-3.9411,-3.87,-3.87,-3.7987,-3.6632,0.0,0.0,-3.5311,-3.4549,-3.4745,-3.5528,-3.5525,-3.5576,-3.5681,-3.5414,-3.5027,-3.449,-3.4347,-3.3526,-3.25,-3.2431,-3.1992,-3.1437,-3.1249,-3.1073,-3.0895,-3.0319,-2.961,-2.8902,-2.834,-2.772,-2.7269,-2.7269,-2.7335,-2.7437,-2.7575,-2.784,-2.8069,-2.8363,-2.8217,-2.8103,-2.8363,-2.8201,-2.8054,-2.8137,-2.8186,-2.8152,-2.8005,-2.8005,-2.7955,-2.784,-2.7905,-2.802,-2.802,-2.7905,-2.779,-2.779,-2.7675,-2.7524,-2.7401,-2.7144,-2.7003,-2.7003,-2.6698,-2.6645,-2.6779,-2.6779,-2.6779,-2.6779,-2.6674,-2.6693,-3.0749,-3.0896,-3.0992,-3.0817,-3.0998,-3.0878,-2.9579,-2.9508,0.0,0.0,0.0,-2.7913,-2.7913,-2.8461,-2.9752,-3.2302,0.0,0.0,0.0,0.0,-3.9491,0.0,0.0,0.0,0.0,0.0,0.0,0.0,0.0,0.0,-4.3693,-4.3738,-4.3825,-4.3974,-4.3883,-4.3851,-4.3883,-4.1877,-4.0902,-4.0966,-3.9124,-3.7889,-3.7161,-3.7221,-3.6791,-3.5892,0.0,0.0,-3.3963,-3.3213,-3.339,-3.4123,-3.4772,-3.5028,-3.5028,-3.4752,-3.4233,-3.3564,-3.3301,-3.2725,-3.224,-3.2482,-3.2064,-3.1467,-3.1424,-3.1021,-3.06,-3.0425,-2.9615,-2.8689,-2.8517,-2.8032,-2.7524,-2.7524,-2.7524,-2.7575,-2.774,-2.7905,-2.8069,-2.8363,-2.825,-2.8201,-2.8348,-2.825,-2.8152,-2.8054,-2.8005,-2.8005,-2.784,-2.8039,-2.8088,-2.7955,-2.8005,-2.802,-2.802,-2.7955,-2.7855,-2.7625,-2.7625,-2.7473,-2.7233,-2.7093,-2.7003,-2.7003,-2.6832,-2.6779,-2.6779,-2.6645,-2.6645,-2.6779,-2.615,-2.6386,-3.0721,-3.1445,-3.1926,-3.0973,-3.1738,-3.2104,-2.9745,0.0,0.0,0.0,0.0,-2.8516,-2.8483,0.0,0.0,0.0,0.0,0.0,0.0,0.0,0.0,0.0,0.0,0.0,0.0,0.0,0.0,0.0,0.0,0.0,-4.3942,-4.3974,-4.3819,-4.3392,-4.3204,-4.2904,-4.2511,-4.0809,-3.9982,-4.0005,-3.8608,-3.756,-3.6847,-3.6968,-3.6604,-3.5837,-3.4755,0.0,-3.425,-3.3499,-3.3436,-3.3836,-3.4172,-3.4243,-3.4201,-3.3931,-3.3523,-3.3091,-3.2873,-3.2438,-3.1997,-3.1852,-3.1358,-3.0809,-3.0563,-3.0283,-2.9953,-2.9609,-2.9071,-2.8517,-2.8158,-2.7814,-2.7625,-2.7625,-2.7725,-2.784,-2.7905,-2.8054,-2.8266,-2.8363,-2.8348,-2.8299,-2.8411,-2.8348,-2.8299,-2.8217,-2.8217,-2.8201,-2.8103,-2.8201,-2.825,-2.8103,-2.8152,-2.8217,-2.8217,-2.8152,-2.7989,-2.774,-2.7625,-2.7473,-2.7233,-2.7093,-2.7003,-2.7003,-2.6899,-2.6779,-2.6779,-2.6712,-2.6712,-2.6779,-2.6379,-2.6523,-3.0662,-3.1894,-3.2783,-3.1334,-3.2486,-3.3153,-3.0105,-3.0458,0.0,0.0,-2.9173,-2.9344,-2.9269,0.0,0.0,0.0,0.0,0.0,0.0,0.0,0.0,0.0,0.0,0.0,0.0,0.0,0.0,0.0,0.0,0.0,-4.4005,-4.3838,-4.3448,-4.2816,-4.2364,-4.1848,-4.1235,-3.9781,-3.9083,-3.9083,-3.8006,-3.7228,-3.6622,-3.6819,-3.66,-3.5985,-3.5232,0.0,0.0,-3.3847,-3.3562,-3.3682,-3.3522,-3.3441,-3.3352,-3.3069,-3.2756,-3.245,-3.2276,-3.195,-3.1524,-3.1007,-3.0595,-3.021,-2.9726,-2.949,-2.9265,-2.8742,-2.8502,-2.8248,-2.776,-2.7679,-2.7835,-2.7835,-2.7946,-2.8054,-2.8054,-2.8201,-2.8411,-2.8411,-2.8411,-2.8411,-2.8411,-2.8411,-2.8411,-2.8348,-2.8396,-2.8411,-2.8348,-2.8396,-2.8348,-2.8235,-2.8299,-2.8299,-2.8299,-2.8152,-2.7974,-2.779,-2.7575,-2.7423,-2.7233,-2.7041,-2.6951,-2.6951,-2.6846,-2.6779,-2.6779,-2.6779,-2.6779,-2.6779,-2.6779,-2.6845,-3.0554,-3.1495,-3.2168,-3.1948,-3.2069,-3.1902,-3.0662,0.0,0.0,-2.9279,-2.9685,-3.0177,-3.0087,-2.9506,0.0,0.0,0.0,0.0,0.0,0.0,0.0,0.0,0.0,0.0,0.0,0.0,0.0,0.0,0.0,0.0,0.0,-4.3318,-4.2872,-4.2797,-4.1828,-4.1291,-4.1292,-3.9282,-3.8351,-3.8447,-3.6818,-3.5881,-3.5723,-3.6095,-3.6191,-3.5985,0.0,0.0,0.0,-3.3252,-3.2926,-3.2969,-3.2792,-3.2713,-3.2633,-3.2251,-3.1666,-3.1072,-3.0809,-3.0683,-3.054,-3.0076,-3.0101,-3.021,-2.9726,-2.916,-2.8682,-2.8622,-2.8143,-2.77,-2.764,-2.8038,-2.8554,-2.8643,-2.843,-2.8186,-2.8186,-2.8299,-2.8411,-2.8411,-2.8411,-2.8411,-2.8411,-2.8411,-2.8348,-2.8235,-2.8299,-2.8348,-2.8235,-2.8299,-2.8411,-2.8396,-2.8152,-2.8069,-2.8069,-2.779,-2.7625,-2.7625,-2.7372,-2.7233,-2.7181,-2.6937,-2.6832,-2.6832,-2.6779,-2.6779,-2.6779,-2.6779,-2.6779,-2.6779,-2.6779,-2.7074,-3.0105,-3.1074,-3.2084,-3.2015,-3.198,-3.1829,-3.1381,0.0,-3.0298,-2.9894,-3.0081,-3.0286,-3.0202,-2.9966,-3.0075,0.0,-3.1293,-3.2469,0.0,0.0,0.0,0.0,0.0,0.0,0.0,0.0,0.0,0.0,0.0,0.0,0.0,-4.2965,-4.2575,-4.2092,-4.1077,-4.032,-3.9852,-3.8366,-3.7633,-3.7651,-3.6422,-3.5773,-3.5728,-3.6036,-3.5908,-3.5385,0.0,0.0,0.0,-3.2943,-3.2526,-3.2059,-3.1944,-3.1788,-3.155,-3.1388,-3.1065,-3.0651,-3.0526,-3.0526,-3.0426,-2.9941,-2.9685,-2.9479,-2.8985,-2.8414,-2.7979,-2.7979,-2.7784,-2.7715,-2.8083,-2.8434,-2.8643,-2.8273,-2.8187,-2.8186,-2.8186,-2.8299,-2.8411,-2.8411,-2.8411,-2.8411,-2.8411,-2.8411,-2.8314,-2.8103,-2.8118,-2.8103,-2.7875,-2.7875,-2.794,-2.794,-2.7955,-2.802,-2.802,-2.774,-2.7524,-2.7372,-2.7284,-2.713,-2.6989,-2.6832,-2.6779,-2.6779,-2.6779,-2.6779,-2.6779,-2.6779,-2.6779,-2.6779,-2.6779,-2.6924,-3.003,-3.0996,-3.2112,-3.2328,-3.213,-3.193,0.0,-3.1245,-3.0379,-3.0316,-3.0304,-3.0279,-3.0202,-3.0235,-3.0337,0.0,-3.1287,-3.2527,-3.4362,0.0,0.0,0.0,0.0,0.0,0.0,0.0,0.0,0.0,0.0,0.0,0.0,-4.2222,-4.1813,-4.1208,-4.0244,-3.9464,-3.8881,-3.779,-3.7248,-3.721,-3.6367,-3.5905,-3.5861,-3.6122,-3.5899,-3.5324,0.0,0.0,0.0,-3.2926,-3.2278,-3.1479,-3.144,-3.119,-3.0912,-3.0814,-3.0651,-3.0526,-3.0526,-3.0526,-3.0443,-3.0113,-2.9617,-2.9028,-2.8638,-2.8076,-2.7625,-2.7625,-2.7625,-2.7775,-2.8464,-2.8598,-2.8525,-2.8253,-2.824,-2.8235,-2.8235,-2.8299,-2.8348,-2.8348,-2.8348,-2.8348,-2.8348,-2.8348,-2.8299,-2.8069,-2.802,-2.7905,-2.7625,-2.7625,-2.7625,-2.7625,-2.769,-2.7755,-2.7755,-2.7539,-2.7321,-2.7233,-2.713,-2.7026,-2.6937,-2.6832,-2.6779,-2.6779,-2.6779,-2.6779,-2.6779,-2.6779,-2.6779,-2.6779,-2.6779,-2.6779,-3.0554,-3.1385,-3.2215,-3.3067,-3.2545,-3.2019,0.0,-3.165,-3.0379,-3.0316,-3.0304,-3.0279,-3.0202,-3.0188,-3.0447,-3.1184,-3.2134,-3.357,-3.5779,0.0,0.0,0.0,0.0,0.0,0.0,0.0,0.0,0.0,0.0,0.0,0.0,-4.0847,-4.0372,-4.023,-3.9364,-3.8881,-3.8822,-3.779,-3.7305,-3.7305,-3.6574,-3.6122,-3.6019,-3.6216,-3.6276,0.0,0.0,0.0,0.0,-3.3149,-3.2278,-3.1479,-3.1269,-3.1072,-3.0871,-3.0609,-3.0526,-3.0526,-3.0526,-3.0526,-3.0526,-3.0468,-2.9837,-2.9074,-2.9074,-2.8367,-2.7625,-2.7625,-2.7625,-2.7775,-2.8604,-2.8404,-2.8236,-2.8976,-2.8774,-2.8411,-2.8411,-2.8299,-2.8186,-2.8186,-2.8186,-2.8186,-2.8186,-2.8299,-2.8299,-2.8069,-2.802,-2.7905,-2.7625,-2.7625,-2.7625,-2.7625,-2.7372,-2.7233,-2.7233,-2.6989,-2.6937,-2.7181,-2.6937,-2.6937,-2.7181,-2.6937,-2.6779,-2.6779,-2.6779,-2.6779,-2.6779,-2.6779,-2.6779,-2.6779,-2.6779,-2.6779,-3.0045,-3.0566,-3.1394,-3.2254,-3.1689,-3.1128,-3.199,-3.1226,-3.0337,-3.0286,-3.0305,-3.0273,-3.0202,-3.0147,-3.0552,-3.1851,0.0,0.0,0.0,0.0,0.0,0.0,0.0,0.0,0.0,0.0,0.0,0.0,0.0,0.0,0.0,0.0,-4.0335,-4.0211,-3.9346,-3.8881,-3.8792,-3.7807,-3.7305,-3.7305,-3.6474,-3.6019,-3.6019,-3.6165,0.0,0.0,0.0,0.0,0.0,-3.2926,-3.22,-3.1269,-3.123,-3.0992,-3.0609,-3.051,-3.0526,-3.0526,-3.0526,-3.0526,-3.0526,-3.0526,-3.007,-2.9528,-2.9212,-2.8383,-2.7625,-2.7625,-2.7919,-2.8269,-2.8167,-2.8404,-2.8677,-2.8568,-2.8452,-2.8411,-2.8411,-2.8299,-2.8373,-2.8897,-2.8408,-2.8076,-2.8667,-2.8228,-2.7775,-2.7488,-2.7437,-2.7335,-2.7078,-2.7026,-2.7026,-2.7026,-2.6989,-2.6974,-2.7181,-2.6937,-2.6832,-2.6937,-2.6832,-2.6832,-2.6937,-2.6832,-2.6779,-2.6779,-2.6779,-2.6779,-2.6779,-2.6779,-2.6779,-2.6779,-2.6779,-2.6779,0.0,-3.0429,-3.0997,-3.1847,-3.1288,-3.075,-3.1574,-3.1022,-3.0318,-3.0279,-3.0266,-3.0253,-3.0207,-3.0185,-3.0537,-3.1743,0.0,0.0,0.0,0.0,0.0,0.0,0.0,0.0,0.0,0.0,0.0,0.0,0.0,0.0,0.0,0.0,-3.9843,-3.9708,-3.918,-3.8773,-3.8541,-3.7755,-3.7285,-3.7135,-3.6433,-3.6088,-3.6105,-3.6191,0.0,0.0,0.0,0.0,0.0,-3.3085,-3.2337,-3.1579,-3.1309,-3.0895,-3.0526,-3.0526,-3.0526,-3.0526,-3.0526,-3.0526,-3.0526,-3.0526,-3.0199,-2.9661,-2.9012,-2.8222,-2.7625,-2.7625,-2.7874,-2.8165,-2.7961,-2.8258,-2.8571,-2.8342,-2.8348,-2.8411,-2.8411,-2.8385,-2.854,-2.9068,-2.8701,-2.8419,-2.8673,-2.8306,-2.7757,-2.7262,-2.7181,-2.7078,-2.6832,-2.6779,-2.6779,-2.6779,-2.6779,-2.6884,-2.7026,-2.6884,-2.6779,-2.6779,-2.6779,-2.6779,-2.6779,-2.6779,-2.6779,-2.6779,-2.6779,-2.6779,-2.6779,-2.6779,-2.6779,-2.6779,-2.6779,-2.6832,0.0,-3.0795,-3.0986,-3.1718,-3.1234,-3.077,-3.1452,-3.096,0.0,-3.0234,-3.0207,-3.0213,-3.0294,-3.028,-3.0547,-3.1341,0.0,0.0,0.0,0.0,0.0,0.0,0.0,0.0,0.0,0.0,0.0,0.0,0.0,0.0,0.0,0.0,-3.9036,-3.8892,-3.891,-3.8634,-3.8101,-3.7685,-3.7321,-3.69,-3.6492,-3.6301,-3.6301,-3.6301,0.0,0.0,0.0,0.0,0.0,-3.3593,-3.2757,-3.229,-3.1613,-3.1103,-3.0675,-3.0675,-3.0642,-3.0593,-3.0593,-3.0559,-3.0526,-3.0526,-3.0199,-2.9617,-2.8622,-2.8027,-2.761,-2.7625,-2.7625,-2.7675,-2.7905,-2.802,-2.8069,-2.8363,-2.8442,-2.8473,-2.8473,-2.8632,-2.8793,-2.8854,-2.9077,-2.9025,-2.8432,-2.8375,-2.8107,-2.7321,-2.7181,-2.7078,-2.6832,-2.6779,-2.6779,-2.6779,-2.6779,-2.6779,-2.6779,-2.6779,-2.6779,-2.6779,-2.6779,-2.6779,-2.6779,-2.6779,-2.6779,-2.6779,-2.6779,-2.6779,-2.6779,-2.6779,-2.6779,-2.6779,-2.6779,-2.6899,-3.0647,0.0,-3.0827,-3.0969,-3.0769,-3.0565,0.0,-3.047,-3.0245,-3.0199,0.0,-3.0409,-3.1064,-3.1145,-3.1768,0.0,0.0,0.0,0.0,0.0,0.0,0.0,0.0,0.0,0.0,0.0,0.0,0.0,0.0,0.0,0.0,0.0,-3.9007,-3.8997,-3.8881,-3.8572,-3.8101,-3.7685,-3.7321,-3.69,-3.6492,-3.6301,-3.6301,-3.6301,0.0,0.0,0.0,0.0,-3.4971,-3.4043,-3.3464,-3.3119,-3.2949,-3.2715,-3.2503,-3.2503,-3.2067,-3.1499,-3.1499,-3.1032,-3.0526,-3.0526,-3.0199,-2.9705,-2.9104,-2.8543,-2.8076,-2.771,-2.7675,-2.779,-2.7955,-2.8054,-2.8186,-2.8348,-2.8796,-2.9181,-2.9181,-2.9301,-2.9644,-3.031,-2.9262,-2.8355,-2.8803,-2.7944,-2.7112,-2.6899,-2.6884,-2.6884,-2.6779,-2.6779,-2.6779,-2.6779,-2.6899,-2.6951,-2.6951,-2.6846,-2.6779,-2.6779,-2.6779,-2.6779,-2.6779,-2.6779,-2.6779,-2.6779,-2.6779,-2.6779,-2.6779,-2.6779,-2.6846,-2.6951,-2.6951,-2.7041,-3.06,-3.0934,-3.1285,-3.119,-3.1138,-3.1062,-3.0933,-3.0554,0.0,0.0,0.0,-3.0472,-3.1331,-3.142,0.0,0.0,0.0,0.0,0.0,0.0,0.0,0.0,0.0,0.0,0.0,0.0,0.0,0.0,0.0,0.0,0.0,0.0,-3.9036,-3.8979,-3.8881,-3.8572,-3.8101,-3.7879,-3.7469,-3.69,-3.6678,-3.6492,-3.6301,-3.6301,0.0,0.0,0.0,0.0,-3.5309,-3.4658,-3.4167,-3.3846,-3.3152,-3.2976,-3.3074,-3.2739,-3.2529,-3.2343,-3.2009,-3.1324,-3.0609,-3.0609,-3.0384,-3.0027,-2.9572,-2.9241,-2.8904,-2.7959,-2.774,-2.784,-2.8054,-2.8137,-2.8235,-2.8348,-2.8688,-2.9042,-2.935,-2.9596,-2.9984,-3.0624,-2.9773,-2.8928,-2.8931,-2.7963,-2.7128,-2.6823,-2.6779,-2.6779,-2.6779,-2.6846,-2.6899,-2.6899,-2.6951,-2.7003,-2.7093,-2.6989,-2.6951,-2.6989,-2.6974,-2.6937,-2.6884,-2.6899,-2.6846,-2.6779,-2.6779,-2.6779,-2.6779,-2.6779,-2.6846,-2.6899,-2.6951,-2.7093,-3.0704,-3.1363,-3.1939,-3.1581,-3.1639,-3.1675,-3.1358,0.0,0.0,0.0,0.0,0.0,0.0,-3.168,0.0,0.0,0.0,0.0,0.0,0.0,0.0,0.0,0.0,0.0,0.0,0.0,0.0,0.0,0.0,0.0,0.0,0.0,0.0,-3.9007,-3.8803,-3.851,-3.8168,-3.8068,-3.765,-3.69,-3.6821,-3.6638,-3.6301,-3.6301,0.0,0.0,0.0,0.0,-3.5749,-3.5028,-3.4704,-3.4523,-3.3152,-3.2984,-3.3386,-3.2664,-3.2714,-3.299,-3.2152,-3.1349,-3.0733,-3.0733,-3.0651,-3.0426,-2.9984,-2.9897,-2.975,-2.8431,-2.8024,-2.7974,-2.8137,-2.8235,-2.8235,-2.8299,-2.844,-2.8655,-2.9173,-2.9544,-2.99,-3.0253,-3.0004,-2.9486,-2.8679,-2.7998,-2.7403,-2.6866,-2.6779,-2.6779,-2.6779,-2.6899,-2.6951,-2.6951,-2.7003,-2.7055,-2.7181,-2.7093,-2.7093,-2.7181,-2.7181,-2.7144,-2.7055,-2.7003,-2.6951,-2.6832,-2.6779,-2.6779,-2.6779,-2.6779,-2.6779,-2.6832,-2.6951,-2.7093,-3.1162,-3.1962,-3.2256,-3.0929,-3.108,-3.1328,-3.0496,0.0,0.0,0.0,0.0,0.0,0.0,0.0,0.0,0.0,0.0,0.0,0.0,0.0,0.0,0.0,0.0,0.0,0.0,0.0,0.0,0.0,0.0,0.0,0.0,0.0,0.0,-3.9073,-3.8504,-3.8318,-3.8596,-3.7913,-3.7358,-3.69,-3.6557,-3.6385,-3.6301,-3.6301,-3.6301,0.0,0.0,-3.5463,-3.5873,-3.4423,-3.4449,-3.5368,-3.4489,-3.4607,-3.5138,-3.4395,-3.3777,-3.3043,-3.1566,-3.0972,-3.0871,-3.0871,-3.0773,-3.0551,-3.0113,-2.9968,-2.9881,-2.9316,-2.8935,-2.8637,-2.8268,-2.8299,-2.8314,-2.8103,-2.8464,-2.889,-2.874,-2.8964,-2.9237,-2.9286,-2.8653,-2.8039,-2.7897,-2.7345,-2.6895,-2.6794,-2.6779,-2.6779,-2.6779,-2.6832,-2.6832,-2.6832,-2.6951,-2.7003,-2.7055,-2.7144,-2.7181,-2.7181,-2.7181,-2.7181,-2.7181,-2.7041,-2.7003,-2.6951,-2.6846,-2.6779,-2.6779,-2.6779,-2.6846,-2.6951,-2.7003,-2.7093,-3.0685,-3.1336,-3.1714,-3.1016,-3.1814,-3.2664,-3.2216,0.0,0.0,0.0,0.0,0.0,0.0,0.0,0.0,0.0,0.0,0.0,0.0,0.0,0.0,0.0,0.0,0.0,0.0,0.0,0.0,0.0,0.0,0.0,0.0,0.0,0.0,0.0,-3.8442,-3.8285,-3.8707,-3.7685,-3.7208,-3.7208,-3.6821,-3.6533,-3.6301,-3.6301,-3.6259,-3.6114,0.0,-3.5343,-3.5137,-3.4312,-3.4167,-3.4353,-3.3592,-3.3761,-3.4387,-3.4032,-3.3398,-3.263,-3.1898,-3.1352,-3.0935,-3.0935,-3.0912,-3.079,-3.0551,-3.051,-3.0452,-2.9995,-2.9585,-2.9241,-2.9074,-2.909,-2.8997,-2.8494,-2.8614,-2.879,-2.8628,-2.8964,-2.9366,-2.961,-2.8987,-2.8396,-2.8245,-2.7432,-2.6779,-2.6779,-2.6779,-2.6779,-2.6779,-2.6846,-2.6899,-2.6899,-2.6951,-2.7055,-2.7093,-2.7093,-2.7144,-2.7181,-2.713,-2.7093,-2.7093,-2.6937,-2.6899,-2.6899,-2.6832,-2.6779,-2.6779,-2.6779,-2.6832,-2.6899,-2.6951,-2.7093,-3.0371,-3.0811,-3.1263,-3.1419,-3.2378,-3.3342,-3.3637,-3.3033,0.0,0.0,0.0,0.0,0.0,0.0,0.0,0.0,0.0,0.0,0.0,0.0,0.0,0.0,0.0,0.0,0.0,0.0,0.0,0.0,0.0,0.0,0.0,0.0,0.0,0.0,-3.8473,-3.8267,-3.8564,-3.7469,-3.7094,-3.7505,-3.7017,-3.6597,-3.6301,-3.6259,-3.6148,-3.5958,-3.5613,-3.5074,-3.4455,-3.397,-3.3616,-3.3339,-3.2577,-3.2645,-3.3136,-3.3136,-3.2679,-3.2019,-3.2019,-3.1624,-3.1072,-3.1072,-3.0975,-3.0912,-3.0912,-3.0935,-3.0935,-3.0576,-3.0208,-2.9951,-2.9837,-2.9793,-2.9617,-2.895,-2.881,-2.8778,-2.8647,-2.9115,-2.9531,-2.951,-2.9248,-2.8872,-2.8371,-2.7486,-2.6779,-2.6846,-2.6832,-2.6779,-2.6779,-2.6899,-2.6951,-2.6951,-2.6951,-2.6989,-2.7078,-2.6989,-2.7003,-2.7078,-2.7093,-2.7055,-2.7055,-2.6951,-2.6846,-2.6846,-2.6832,-2.6779,-2.6779,-2.6779,-2.6779,-2.6779,-2.6899,-2.7055,-3.0934,-3.1151,-3.1383,-3.2125,-3.1858,0.0,-3.3107,-3.2845,0.0,-3.416,0.0,0.0,0.0,0.0,0.0,0.0,0.0,0.0,0.0,0.0,0.0,0.0,0.0,0.0,0.0,0.0,0.0,0.0,0.0,0.0,0.0,0.0,0.0,0.0,0.0,-3.8231,-3.8135,-3.7321,-3.7094,-3.7505,-3.6701,-3.6343,-3.6301,-3.6105,-3.6019,-3.5941,-3.4861,-3.4435,-3.4387,-3.2892,-3.2706,-3.3339,-3.2577,-3.2307,-3.2357,-3.2357,-3.1901,-3.1275,-3.1275,-3.1241,-3.119,-3.119,-3.1112,-3.0975,-3.0975,-3.0975,-3.0975,-3.0975,-3.1015,-3.0878,-3.0011,-2.9793,-2.9689,-2.9255,-2.9148,-2.9073,-2.8732,-2.923,-2.9314,-2.8102,-2.8363,-2.8486,-2.7342,-2.6957,-2.6846,-2.6951,-2.6899,-2.6779,-2.6779,-2.6779,-2.6779,-2.6779,-2.6779,-2.6832,-2.6832,-2.6832,-2.6832,-2.6832,-2.7026,-2.7181,-2.7181,-2.7041,-2.7003,-2.7003,-2.6846,-2.6779,-2.6779,-2.6779,-2.6779,-2.6779,-2.6779,-2.6899,-3.0305,-3.0727,-3.1147,-3.1448,-3.1712,0.0,0.0,-3.3518,-3.3456,-3.5653,-3.5623,0.0,0.0,0.0,0.0,0.0,0.0,0.0,0.0,0.0,0.0,0.0,0.0,0.0,0.0,0.0,0.0,0.0,0.0,0.0,0.0,0.0,0.0,0.0,0.0,-3.7773,-3.7739,-3.717,-3.6978,-3.7132,-3.6557,-3.6301,-3.6301,-3.6216,-3.5848,-3.5275,-3.4694,-3.3921,-3.3068,-3.2337,-3.2042,-3.2002,-3.1715,-3.1613,-3.1613,-3.1613,-3.1427,-3.119,-3.119,-3.119,-3.119,-3.119,-3.1151,-3.1112,-3.1112,-3.1112,-3.1112,-3.1112,-3.1151,-3.1112,-3.0757,-3.0675,-3.0493,-2.9772,-2.9641,-2.9576,-2.9391,-2.9481,-2.9601,-2.9589,-2.921,-2.8701,-2.8269,-2.755,-2.7078,-2.7144,-2.6989,-2.6899,-2.6899,-2.6846,-2.6779,-2.6779,-2.6779,-2.6779,-2.6779,-2.6779,-2.6779,-2.6779,-2.6884,-2.6937,-2.6937,-2.6884,-2.6899,-2.6899,-2.6832,-2.6779,-2.6779,-2.6779,-2.6779,-2.6779,-2.6779,-2.6899,-2.9452,-2.9963,-3.0603,-3.081,0.0,0.0,-3.4526,-3.4214,-3.4259,-3.6721,0.0,0.0,0.0,0.0,0.0,0.0,0.0,0.0,0.0,0.0,0.0,0.0,0.0,0.0,0.0,0.0,0.0,0.0,0.0,0.0,0.0,0.0,0.0,0.0,0.0,0.0,-3.7321,-3.6826,-3.647,-3.6369,-3.5861,-3.5852,-3.6284,-3.5717,-3.5231,-3.4763,-3.4252,-3.3296,-3.2126,-3.2018,-3.1664,-3.119,-3.119,-3.119,-3.119,-3.119,-3.119,-3.119,-3.119,-3.119,-3.119,-3.119,-3.119,-3.119,-3.119,-3.119,-3.119,-3.1151,-3.1151,-3.1151,-3.1112,-3.1112,-3.0975,-3.0335,-3.0149,-3.0109,-2.9998,-3.0084,-3.0275,-3.0337,-2.9757,-2.9092,-2.8708,-2.7859,-2.7233,-2.7284,-2.7144,-2.7055,-2.7003,-2.6899,-2.6846,-2.6779,-2.6779,-2.6779,-2.6779,-2.6779,-2.6779,-2.6779,-2.6779,-2.6779,-2.6779,-2.6846,-2.6846,-2.6779,-2.6779,-2.6779,-2.6779,-2.6779,-2.6779,-2.6779,-2.6779,-2.6899,-2.854,-2.8933,-2.9774,0.0,0.0,0.0,-3.4884,-3.4883,-3.5019,0.0,0.0,0.0,0.0,0.0,0.0,0.0,0.0,0.0,0.0,0.0,0.0,0.0,0.0,0.0,0.0,0.0,0.0,0.0,0.0,0.0,0.0,0.0,0.0,0.0,0.0,0.0,-3.6882,-3.6145,-3.5584,-3.518,-3.4438,-3.4852,-3.6232,-3.447,-3.3989,-3.4438,-3.3436,-3.2527,-3.1791,-3.1934,-3.1664,-3.119,-3.119,-3.119,-3.119,-3.119,-3.119,-3.119,-3.119,-3.119,-3.119,-3.119,-3.119,-3.1207,-3.1207,-3.1207,-3.1168,-3.1032,-3.1032,-3.0975,-3.0912,-3.0952,-3.0935,-3.0733,-3.0692,-3.0651,-3.0526,-3.1064,-3.1199,-2.9863,-2.975,-2.9531,-2.833,-2.7595,-2.7233,-2.7401,-2.7284,-2.713,-2.7003,-2.7003,-2.6951,-2.6779,-2.6779,-2.6779,-2.6779,-2.6779,-2.6779,-2.6779,-2.6779,-2.6779,-2.6779,-2.6951,-2.6951,-2.6779,-2.6779,-2.6779,-2.6779,-2.6779,-2.6779,-2.6779,-2.6779,-2.6899,-2.8483,-2.9285,0.0,-3.1315,0.0,0.0,0.0,-3.5219,0.0,0.0,0.0,0.0,0.0,0.0,0.0,0.0,0.0,0.0,0.0,0.0,0.0,0.0,0.0,0.0,0.0,0.0,0.0,0.0,0.0,0.0,0.0,0.0,0.0,0.0,0.0,0.0,-3.4914,-3.4979,-3.4798,-3.4404,-3.3628,-3.3783,-3.4731,-3.4243,-3.3688,-3.3138,-3.2696,-3.2066,-3.1369,-3.1409,-3.1354,-3.119,-3.119,-3.119,-3.119,-3.119,-3.119,-3.119,-3.119,-3.119,-3.119,-3.119,-3.1546,-3.1952,-3.1952,-3.1952,-3.1952,-3.1813,-3.1402,-3.0975,-3.0814,-3.0773,-3.0773,-3.0692,-3.0692,-3.08,-3.1189,-3.1056,-3.0754,-3.0551,-2.9888,-2.9108,-2.8383,-2.7845,-2.7473,-2.7524,-2.7437,-2.7248,-2.7055,-2.6899,-2.6846,-2.6779,-2.6779,-2.6779,-2.6779,-2.6779,-2.6779,-2.6779,-2.6899,-2.6899,-2.6779,-2.6846,-2.6846,-2.6779,-2.6779,-2.6779,-2.6779,-2.6779,-2.6779,-2.6779,-2.6779,-2.6832,-2.8164,-2.915,0.0,-3.2109,-3.3568,0.0,0.0,0.0,0.0,0.0,0.0,0.0,0.0,0.0,0.0,0.0,0.0,0.0,0.0,0.0,0.0,0.0,0.0,0.0,0.0,0.0,0.0,0.0,0.0,0.0,0.0,0.0,0.0,0.0,0.0,0.0,-3.4076,-3.4019,-3.3862,-3.3611,-3.2835,-3.2714,-3.3179,-3.3102,-3.2843,-3.2474,-3.1968,-3.1476,-3.1072,-3.1072,-3.1112,-3.119,-3.119,-3.119,-3.119,-3.119,-3.119,-3.119,-3.119,-3.123,-3.1252,-3.1252,-3.154,-3.1896,-3.1896,-3.1873,-3.185,-3.1672,-3.1311,-3.0895,-3.0692,-3.0609,-3.0609,-3.0609,-3.0609,-3.0726,-3.109,-3.0782,-3.0474,-3.0465,-2.9742,-2.8935,-2.8384,-2.7894,-2.7625,-2.7625,-2.7488,-2.735,-2.7159,-2.7003,-2.6899,-2.6899,-2.6832,-2.6779,-2.6779,-2.6779,-2.6779,-2.6779,-2.6899,-2.6899,-2.6779,-2.6846,-2.6899,-2.6899,-2.6899,-2.6899,-2.6899,-2.6899,-2.6846,-2.6779,-2.6779,-2.6779,-2.7688,0.0,0.0,-3.2679,-3.4393,0.0,0.0,0.0,0.0,0.0,0.0,0.0,0.0,0.0,0.0,0.0,0.0,0.0,0.0,0.0,0.0,0.0,0.0,0.0,0.0,0.0,0.0,0.0,0.0,0.0,0.0,0.0,0.0,0.0,0.0,0.0,-3.3869,-3.3162,-3.28,0.0,-3.211,-3.18,-3.1763,-3.1576,-3.1759,-3.2154,-3.1278,-3.0912,-3.0912,-3.0912,-3.1032,-3.119,-3.119,-3.119,-3.119,-3.119,-3.119,-3.119,-3.119,-3.1252,-3.1295,-3.1295,-3.1346,-3.1397,-3.1397,-3.1353,-3.1252,-3.1053,-3.0962,-3.0831,-3.0568,-3.0526,-3.0526,-3.0526,-3.0526,-3.0526,-3.0526,-3.0485,-3.03,-2.9853,-2.9348,-2.8889,-2.8352,-2.7894,-2.7625,-2.7625,-2.7488,-2.7401,-2.7401,-2.7159,-2.7003,-2.7003,-2.6899,-2.6779,-2.6779,-2.6779,-2.6779,-2.6779,-2.6779,-2.6779,-2.6779,-2.6899,-2.7003,-2.7003,-2.7003,-2.7003,-2.7003,-2.7003,-2.6951,-2.6832,-2.6779,-2.6779,0.0,-2.8335,0.0,0.0,0.0,0.0,0.0,0.0,0.0,0.0,0.0,0.0,0.0,0.0,0.0,0.0,0.0,0.0,0.0,0.0,0.0,0.0,0.0,0.0,0.0,0.0,0.0,0.0,0.0,0.0,0.0,0.0,0.0,0.0,0.0,-3.2283,-3.2283,-3.211,-3.2041,0.0,-3.1869,-3.1726,-3.1538,-3.1517,-3.1392,-3.1211,-3.1043,-3.0952,-3.0912,-3.0952,-3.1072,-3.119,-3.119,-3.119,-3.119,-3.119,-3.119,-3.119,-3.119,-3.123,-3.123,-3.123,-3.1602,-3.2076,-3.2076,-3.2076,-3.2013,-3.1825,-3.1364,-3.0831,-3.0568,-3.0526,-3.0526,-3.0526,-3.0526,-3.0526,-3.0526,-3.0199,-2.9793,-2.9348,-2.8826,-2.8304,-2.7845,-2.766,-2.7625,-2.7625,-2.7488,-2.7401,-2.7401,-2.7159,-2.7003,-2.7003,-2.6899,-2.6779,-2.6779,-2.6779,-2.6779,-2.6779,-2.6779,-2.6779,-2.6779,-2.6832,-2.6899,-2.7003,-2.7003,-2.7041,-2.7181,-2.7041,-2.7003,-2.6951,-2.6846,-2.6779,0.0,0.0,0.0,0.0,0.0,0.0,0.0,0.0,0.0,0.0,0.0,0.0,0.0,0.0,0.0,0.0,0.0,0.0,0.0,0.0,0.0,0.0,0.0,0.0,0.0,0.0,0.0,0.0,0.0,0.0,0.0,0.0,0.0,0.0,-3.18,-3.18,-3.18,-3.18,-3.18,-3.18,-3.18,-3.1671,-3.1406,-3.1406,-3.1213,-3.0912,-3.1032,-3.1032,-3.0952,-3.0975,-3.1072,-3.119,-3.119,-3.119,-3.119,-3.119,-3.119,-3.119,-3.119,-3.123,-3.1252,-3.1308,-3.154,-3.1788,-3.1811,-3.1749,-3.1587,-3.1441,-3.1074,-3.0773,-3.0568,-3.0526,-3.0526,-3.0526,-3.0526,-3.0526,-3.0526,-3.03,-2.9941,-2.9212,-2.8873,-2.8448,-2.771,-2.7625,-2.7625,-2.7625,-2.7524,-2.7488,-2.7488,-2.7299,-2.7159,-2.7093,-2.7003,-2.6899,-2.6779,-2.6779,-2.6779,-2.6779,-2.6779,-2.6779,-2.6779,-2.6846,-2.6951,-2.7093,-2.7093,-2.713,-2.7181,-2.7144,-2.7041,-2.6899,-2.6832,-2.6779,0.0,0.0,0.0,0.0,0.0,0.0,0.0,0.0,0.0,0.0,0.0,0.0,0.0,0.0,0.0,0.0,0.0,0.0,0.0,0.0,0.0,0.0,0.0,0.0,0.0,0.0,0.0,0.0,0.0,0.0,0.0,0.0,-3.18,-3.18,-3.18,-3.18,-3.18,-3.18,-3.18,-3.18,-3.18,-3.1634,-3.1351,-3.1351,-3.1173,-3.0912,-3.1072,-3.1112,-3.1015,-3.1015,-3.1072,-3.119,-3.119,-3.119,-3.119,-3.119,-3.119,-3.119,-3.123,-3.1235,-3.1295,-3.1462,-3.1346,-3.123,-3.1274,-3.1078,-3.0871,-3.0733,-3.0692,-3.0651,-3.051,-3.0526,-3.0526,-3.0526,-3.0526,-3.0526,-3.0526,-3.0426,-3.0113,-2.9257,-2.8935,-2.8559,-2.776,-2.7625,-2.7625,-2.7625,-2.7625,-2.7625,-2.7625,-2.7488,-2.735,-2.7233,-2.7093,-2.6951,-2.6779,-2.6779,-2.6779,-2.6779,-2.6779,-2.6779,-2.6779,-2.6899,-2.7041,-2.7181,-2.7181,-2.7233,-2.7233,-2.7181,-2.7026,-2.6832,-2.6779,-2.6779,0.0,0.0,0.0,0.0,0.0,0.0,0.0,0.0,0.0,0.0,0.0,0.0,0.0,0.0,0.0,0.0,0.0,0.0,0.0,0.0,0.0,0.0,0.0,0.0,0.0,0.0,0.0,0.0,0.0,0.0,0.0,-3.18,-3.18,-3.18,-3.18,-3.18,-3.18,-3.18,-3.18,-3.18,-3.18,-3.1688,-3.1462,-3.1462,-3.1269,-3.0912,-3.0912,-3.0935,-3.1015,-3.1015,-3.1072,-3.119,-3.119,-3.119,-3.119,-3.119,-3.119,-3.119,-3.1274,-3.1295,-3.1295,-3.1462,-3.1346,-3.119,-3.123,-3.1072,-3.0871,-3.0733,-3.0692,-3.0651,-3.051,-3.0526,-3.0526,-3.0526,-3.0526,-3.0526,-3.0526,-3.0156,-2.975,-2.9212,-2.8383,-2.776,-2.7625,-2.7625,-2.7625,-2.7625,-2.7625,-2.7625,-2.7625,-2.7488,-2.735,-2.7233,-2.7093,-2.6951,-2.6779,-2.6779,-2.6779,-2.6779,-2.6779,-2.6779,-2.6779,-2.6832,-2.6937,-2.7181,-2.7181,-2.7284,-2.735,-2.7144,-2.7003,-2.6951,-2.6846,-2.6779,-2.6047,0.0,0.0,0.0,0.0,0.0,0.0,0.0,0.0,0.0,0.0,0.0,0.0,0.0,0.0,0.0,0.0,0.0,0.0,0.0,0.0,0.0,0.0,0.0,0.0,0.0,0.0,0.0,0.0,0.0,-3.18,-3.18,-3.18,-3.18,-3.18,-3.18,-3.18,-3.18,-3.1746,-3.1709,-3.1651,-3.1538,-3.1406,-3.1346,-3.123,-3.1072,-3.1072,-3.1072,-3.1112,-3.1112,-3.1151,-3.119,-3.119,-3.119,-3.119,-3.119,-3.119,-3.123,-3.1274,-3.1295,-3.1334,-3.1521,-3.1406,-3.1252,-3.123,-3.1072,-3.0871,-3.0651,-3.0609,-3.0568,-3.0526,-3.0526,-3.0526,-3.0526,-3.03,-3.0113,-3.0113,-3.0156,-2.9984,-2.9257,-2.8286,-2.7625,-2.7625,-2.7625,-2.7625,-2.7625,-2.7625,-2.7625,-2.7625,-2.7524,-2.7437,-2.7335,-2.7248,-2.7196,-2.7041,-2.6937,-2.6899,-2.6899,-2.6846,-2.6779,-2.6779,-2.6899,-2.6989,-2.7181,-2.7181,-2.7284,-2.7401,-2.6828,-2.6704,-2.7003,-2.6454,-2.6431,0.0,0.0,0.0,0.0,0.0,0.0,0.0,0.0,0.0,0.0,0.0,0.0,0.0,0.0,0.0,0.0,0.0,0.0,0.0,0.0,0.0,0.0,0.0,0.0,0.0,0.0,0.0,0.0,0.0,0.0,-3.1819,-3.1819,-3.1819,-3.1819,-3.18,-3.18,-3.18,-3.18,-3.1746,-3.1617,-3.1576,-3.1445,-3.1295,-3.1252,-3.123,-3.119,-3.119,-3.119,-3.119,-3.119,-3.119,-3.119,-3.119,-3.119,-3.119,-3.119,-3.123,-3.1252,-3.1312,-3.1351,-3.1334,-3.1504,-3.1389,-3.1196,-3.1151,-3.0992,-3.0749,-3.0568,-3.0526,-3.0526,-3.0526,-3.0526,-3.0468,-3.0342,-3.007,-2.9766,-2.9661,-2.9793,-2.9733,-2.9012,-2.8174,-2.7625,-2.7625,-2.7625,-2.7625,-2.7625,-2.7625,-2.7625,-2.7625,-2.7625,-2.7524,-2.7401,-2.7401,-2.735,-2.7233,-2.7093,-2.7041,-2.7041,-2.6951,-2.6846,-2.6846,-2.6899,-2.7041,-2.7181,-2.7181,-2.7284,-2.7401,-2.6745,-2.6659,-2.6989,-2.6374,-2.6352,0.0,0.0,0.0,0.0,0.0,0.0,0.0,0.0,0.0,0.0,0.0,0.0,0.0,0.0,0.0,0.0,0.0,0.0,0.0,0.0,0.0,0.0,0.0,0.0,0.0,0.0,0.0,0.0,0.0,0.0,-3.1894,-3.1894,-3.1894,-3.1894,-3.1819,-3.18,-3.18,-3.18,-3.1746,-3.1617,-3.1579,-3.1504,-3.1295,-3.1295,-3.1274,-3.119,-3.119,-3.119,-3.119,-3.119,-3.119,-3.119,-3.119,-3.119,-3.119,-3.119,-3.1252,-3.1295,-3.1462,-3.1406,-3.1295,-3.1462,-3.123,-3.0912,-3.0912,-3.0733,-3.0526,-3.051,-3.0526,-3.0526,-3.0526,-3.0526,-3.0384,-2.9941,-2.9793,-2.9661,-2.9212,-2.8779,-2.8384,-2.8336,-2.7944,-2.7625,-2.7625,-2.7625,-2.7625,-2.7625,-2.7625,-2.7625,-2.7625,-2.7625,-2.7524,-2.7401,-2.7401,-2.735,-2.7233,-2.7181,-2.7181,-2.7181,-2.7041,-2.7003,-2.7003,-2.6899,-2.6937,-2.7181,-2.7181,-2.7284,-2.7401,-2.7255,-2.7115,-2.7003,-2.6974,-2.687,0.0,0.0,0.0,0.0,0.0,0.0,0.0,0.0,0.0,0.0,0.0,0.0,0.0,0.0,0.0,0.0,0.0,0.0,0.0,0.0,0.0,0.0,0.0,0.0,0.0,0.0,0.0,0.0,0.0,0.0,-3.1894,-3.1894,-3.1705,-3.1272,-3.1184,-3.113,-3.1076,-3.0575,-3.0451,-3.0677,-3.0289,-2.9941,-2.9715,-3.0281,-3.0264,-2.9803,-3.0294,-3.0768,-3.119,-3.119,-3.119,-3.119,-3.119,-3.119,-3.119,-3.119,-3.1252,-3.1295,-3.1462,-3.1406,-3.1295,-3.1462,-3.1325,-3.1072,-3.0952,-3.0831,-3.0733,-3.0568,-3.0526,-3.0526,-3.0526,-3.0526,-3.03,-2.9528,-2.9348,-2.912,-2.8319,-2.8207,-2.8288,-2.8288,-2.7929,-2.7625,-2.7625,-2.7625,-2.7625,-2.7625,-2.7625,-2.7625,-2.7625,-2.7625,-2.7575,-2.7524,-2.7539,-2.7539,-2.7473,-2.7386,-2.7335,-2.7335,-2.7181,-2.7093,-2.7003,-2.7041,-2.7078,-2.7181,-2.7284,-2.7386,-2.7539,-2.6941,-2.687,-2.7233,-2.6718,-2.6645,-2.2821,0.0,0.0,0.0,0.0,0.0,0.0,0.0,0.0,0.0,0.0,0.0,0.0,0.0,0.0,0.0,0.0,0.0,0.0,0.0,0.0,0.0,0.0,0.0,0.0,0.0,0.0,0.0,0.0,0.0,-3.1513,-3.1323,-3.0994,-3.0525,-3.049,-3.0456,-3.0404,-2.9885,-2.9713,-3.0,-2.9486,-2.9157,-2.8958,-2.9499,-2.9448,-2.9008,-2.9516,-3.0159,-3.0835,-3.0835,-3.097,-3.119,-3.119,-3.119,-3.119,-3.119,-3.1252,-3.1295,-3.1462,-3.1406,-3.1295,-3.1385,-3.1269,-3.1072,-3.0814,-3.079,-3.0733,-3.0568,-3.0526,-3.0526,-3.0526,-3.0384,-3.0113,-2.9483,-2.9074,-2.8654,-2.7993,-2.7978,-2.8076,-2.8076,-2.7795,-2.7625,-2.7625,-2.7625,-2.7625,-2.7625,-2.7625,-2.7625,-2.7625,-2.7625,-2.7625,-2.7625,-2.7625,-2.7625,-2.7625,-2.7539,-2.7488,-2.7488,-2.7335,-2.7181,-2.7093,-2.713,-2.7181,-2.7181,-2.7335,-2.7488,-2.7625,-2.7076,-2.6991,-2.7386,-2.679,-2.6681,0.0,0.0,0.0,0.0,0.0,0.0,0.0,0.0,0.0,0.0,0.0,0.0,0.0,0.0,0.0,0.0,0.0,0.0,0.0,0.0,0.0,0.0,0.0,0.0,0.0,0.0,0.0,0.0,0.0,-3.0975,-3.0786,-3.0142,-2.9776,-2.9776,-2.9758,-2.9741,-2.9758,-2.9741,-2.9674,-2.9574,-2.942,-2.9247,-2.9143,-2.9016,-2.8977,-2.8943,-2.8977,-2.9364,-3.004,-3.0074,-3.0497,-3.1157,-3.1157,-3.1173,-3.119,-3.119,-3.1252,-3.1295,-3.1462,-3.1406,-3.1257,-3.123,-3.1072,-3.0831,-3.0568,-3.0526,-3.0526,-3.0526,-3.0526,-3.0526,-3.0526,-3.0156,-2.9793,-2.981,-2.9042,-2.8304,-2.8304,-2.7929,-2.7625,-2.7625,-2.7625,-2.7625,-2.7625,-2.7625,-2.7625,-2.7625,-2.7625,-2.7625,-2.7625,-2.7625,-2.7625,-2.7625,-2.7625,-2.7625,-2.7625,-2.7625,-2.7625,-2.7625,-2.7488,-2.735,-2.7233,-2.7233,-2.7233,-2.7233,-2.735,-2.7488,-2.7625,-2.7625,-2.7524,-2.7401,-2.7284,-2.7078,-2.1541,0.0,0.0,0.0,0.0,0.0,0.0,0.0,0.0,0.0,0.0,0.0,0.0,0.0,0.0,0.0,0.0,0.0,0.0,0.0,0.0,0.0,0.0,0.0,0.0,0.0,0.0,0.0,-3.0676,-3.0189,-3.0155,-2.9505,-2.9134,-2.9071,-2.8512,-2.8446,-2.894,-2.8401,-2.8355,-2.8729,-2.8094,-2.7738,-2.7639,-2.8117,-2.8083,-2.7572,-2.8066,-2.8387,-2.8625,-2.9096,-2.9736,-3.0412,-3.0412,-3.0734,-3.119,-3.119,-3.1252,-3.1295,-3.1462,-3.1308,-3.1095,-3.119,-3.0935,-3.0609,-3.0526,-3.0526,-3.0526,-3.0526,-3.0526,-3.0526,-3.0526,-3.0384,-3.0113,-2.9438,-2.9074,-2.8701,-2.7944,-2.771,-2.7625,-2.7625,-2.7625,-2.7625,-2.7625,-2.7625,-2.7625,-2.7625,-2.7625,-2.7625,-2.7625,-2.7625,-2.7625,-2.7625,-2.7625,-2.7625,-2.7625,-2.7625,-2.7625,-2.7625,-2.7488,-2.7401,-2.735,-2.735,-2.735,-2.735,-2.7488,-2.7575,-2.7625,-2.7625,-2.7575,-2.7524,-2.7524,-2.7423,0.0,0.0,0.0,0.0,0.0,0.0,0.0,0.0,0.0,0.0,0.0,0.0,0.0,0.0,0.0,0.0,0.0,0.0,0.0,0.0,0.0,0.0,0.0,0.0,0.0,0.0,0.0,0.0,-3.0833,-3.0117,-2.947,-2.8732,-2.8343,-2.8343,-2.7905,-2.784,-2.8216,-2.7796,-2.7766,-2.8108,-2.758,-2.723,-2.7105,-2.75,-2.74,-2.6976,-2.7402,-2.7589,-2.7623,-2.798,-2.8706,-2.9634,-2.9634,-3.0091,-3.07,-3.0434,-3.0484,-3.0683,-3.0908,-3.0755,-3.0572,-3.0971,-3.0912,-3.0651,-3.051,-3.0526,-3.0526,-3.0526,-3.0526,-3.0526,-3.0526,-3.0342,-3.007,-2.9528,-2.9058,-2.8591,-2.8027,-2.776,-2.7625,-2.7625,-2.7625,-2.7625,-2.7625,-2.7625,-2.7625,-2.7625,-2.7625,-2.7625,-2.7625,-2.7625,-2.7625,-2.7625,-2.7625,-2.7625,-2.7625,-2.7524,-2.7539,-2.7539,-2.7386,-2.7335,-2.7335,-2.735,-2.7401,-2.7401,-2.7524,-2.7625,-2.7625,-2.7625,-2.7575,-2.7539,-2.7203,-2.7034,-2.0635,-2.074,0.0,0.0,0.0,0.0,-2.3277,-2.3697,0.0,0.0,0.0,0.0,0.0,0.0,0.0,0.0,0.0,0.0,0.0,0.0,0.0,0.0,0.0,0.0,0.0,0.0,-3.2109,-3.2057,-3.1393,-3.0359,-2.8889,-2.8124,-2.7717,-2.7701,-2.7701,-2.7701,-2.7701,-2.7701,-2.7701,-2.7701,-2.7569,-2.7417,-2.7213,-2.7166,-2.7055,-2.6926,-2.6975,-2.7007,-2.7007,-2.6959,-2.7691,-2.8892,-2.8892,-2.9313,-2.9905,-2.9302,-2.9343,-2.9748,-2.9976,-2.9901,-2.9789,-3.0543,-3.0754,-3.0714,-3.0535,-3.0526,-3.0526,-3.0526,-3.0526,-3.0485,-3.0426,-3.0113,-2.975,-2.9661,-2.895,-2.8304,-2.824,-2.7894,-2.7625,-2.7625,-2.7625,-2.7625,-2.7625,-2.7625,-2.7625,-2.7625,-2.7625,-2.7625,-2.7625,-2.7625,-2.7625,-2.7625,-2.7625,-2.7625,-2.7625,-2.7488,-2.7401,-2.7401,-2.7233,-2.7181,-2.7233,-2.7335,-2.7386,-2.7401,-2.7473,-2.7524,-2.7625,-2.7625,-2.7524,-2.7386,-2.6669,-2.6283,-1.9924,-2.0384,-2.0703,-2.0679,0.0,0.0,0.0,-2.2375,0.0,0.0,0.0,0.0,0.0,0.0,0.0,0.0,0.0,0.0,0.0,0.0,0.0,0.0,0.0,0.0,0.0,0.0,-3.0709,-3.1098,-3.0606,-2.9881,-2.8917,-2.8724,-2.8355,-2.7719,-2.7701,-2.7701,-2.7701,-2.7701,-2.7701,-2.7701,-2.763,-2.7496,-2.7373,-2.7359,-2.7233,-2.707,-2.707,-2.707,-2.707,-2.7007,-2.747,-2.8167,-2.8096,-2.8518,-2.9178,-2.9079,-2.9076,-2.9158,-2.9231,-2.9067,-2.9051,-2.975,-2.9865,-2.9772,-3.0344,-3.0526,-3.0526,-3.0526,-3.0526,-3.0426,-3.0027,-2.9897,-2.9617,-2.8764,-2.8432,-2.8207,-2.7795,-2.766,-2.7625,-2.7625,-2.7625,-2.7625,-2.7625,-2.7625,-2.7625,-2.7625,-2.7625,-2.7625,-2.7625,-2.7625,-2.7625,-2.7625,-2.7625,-2.7625,-2.7625,-2.7488,-2.7401,-2.7401,-2.7144,-2.7144,-2.735,-2.7284,-2.7335,-2.7575,-2.6982,-2.6982,-2.7625,-2.7625,-2.7575,-2.7524,-2.6916,-2.6625,0.0,0.0,-2.055,-2.0319,0.0,0.0,0.0,0.0,0.0,0.0,0.0,0.0,0.0,0.0,0.0,0.0,0.0,0.0,0.0,0.0,0.0,0.0,0.0,0.0,0.0,0.0,-3.0163,-3.0762,-3.0472,-3.0057,-2.9676,-2.9173,-2.8719,-2.8315,-2.7912,-2.7701,-2.7701,-2.7701,-2.7701,-2.7701,-2.76,-2.7465,-2.7293,-2.731,-2.7184,-2.699,-2.712,-2.7152,-2.7103,-2.7038,-2.7212,-2.7504,-2.7403,-2.7844,-2.8507,-2.8151,-2.813,-2.8308,-2.8381,-2.8182,-2.8018,-2.8843,-2.9231,-2.9417,-2.945,-2.9698,-3.0005,-3.01,-3.0156,-3.0027,-2.9572,-2.9241,-2.8904,-2.8432,-2.811,-2.7894,-2.766,-2.7625,-2.7625,-2.7625,-2.7625,-2.7625,-2.7625,-2.7625,-2.7625,-2.7625,-2.7625,-2.7625,-2.7625,-2.7625,-2.7625,-2.7625,-2.7625,-2.7625,-2.7625,-2.7437,-2.7284,-2.7284,-2.7041,-2.7041,-2.7284,-2.7233,-2.7167,-2.7034,-2.6336,-2.6108,-2.6481,-2.6481,-2.6707,-2.7034,-2.5986,-2.5481,0.0,0.0,0.0,0.0,0.0,-2.0646,0.0,0.0,0.0,-2.0496,0.0,0.0,0.0,0.0,0.0,0.0,0.0,0.0,0.0,0.0,0.0,0.0,0.0,0.0,0.0,0.0,-2.9722,-3.0229,-3.0166,-3.0101,-3.0065,-2.9314,-2.8847,-2.8771,-2.8141,-2.7682,-2.7397,-2.7461,-2.7373,-2.7128,-2.7073,-2.6991,-2.683,-2.6862,-2.6836,-2.6809,-2.6957,-2.7023,-2.7021,-2.6989,-2.6973,-2.6942,-2.6926,-2.7283,-2.776,-2.7163,-2.7131,-2.7427,-2.7481,-2.725,-2.709,-2.7926,-2.8638,-2.9095,-2.8626,-2.885,-2.9305,-2.9599,-2.9661,-2.9572,-2.9074,-2.8638,-2.8304,-2.8207,-2.7894,-2.7625,-2.7625,-2.7625,-2.7625,-2.7625,-2.7625,-2.7625,-2.7625,-2.7625,-2.7625,-2.7625,-2.7625,-2.7625,-2.7625,-2.7625,-2.7625,-2.7625,-2.7625,-2.7625,-2.7625,-2.7372,-2.7233,-2.7233,-2.6989,-2.6937,-2.7233,-2.7269,-2.7049,-2.651,-2.5783,-2.5398,-2.5398,-2.5119,-2.5398,-2.6283,-2.4894,-2.4292,0.0,0.0,0.0,0.0,-2.0475,0.0,0.0,0.0,-1.9578,-1.9072,0.0,0.0,0.0,0.0,0.0,0.0,0.0,0.0,0.0,0.0,0.0,0.0,0.0,0.0,0.0,0.0,0.0,-2.8677,-2.8986,-2.9081,-2.8901,-2.8769,-2.8611,-2.8385,-2.8282,-2.7589,-2.6298,-2.6586,-2.6185,-2.5141,-2.5357,-2.548,-2.553,-2.5579,-2.5916,-2.6453,-2.6123,-2.6264,-2.6725,-2.6624,-2.6624,-2.6742,-2.6842,-2.6876,-2.6843,-2.6691,-2.6657,-2.6706,-2.6534,-2.6464,-2.6509,-2.7201,-2.7931,-2.851,-2.8616,-2.8702,-2.8828,-2.9112,-2.9166,-2.9074,-2.8543,-2.8352,-2.8207,-2.776,-2.761,-2.7625,-2.7625,-2.7625,-2.7625,-2.7625,-2.7625,-2.7625,-2.7625,-2.7625,-2.7625,-2.7625,-2.7625,-2.7625,-2.7625,-2.7625,-2.7625,-2.7625,-2.7625,-2.7625,-2.7625,-2.7437,-2.7401,-2.7401,-2.7159,-2.7107,-2.735,-2.7473,-2.7203,-2.651,-2.5783,-2.5398,-2.5398,-2.4047,-2.4105,-2.5508,-2.4681,-2.4292,0.0,0.0,0.0,0.0,0.0,0.0,0.0,0.0,-2.0078,0.0,0.0,0.0,0.0,0.0,0.0,0.0,0.0,0.0,0.0,0.0,0.0,0.0,0.0,0.0,0.0,0.0,0.0,0.0,0.0,-2.8498,-2.8405,-2.8359,-2.827,-2.8117,-2.7262,-2.6493,-2.5811,-2.5428,-2.5009,-2.4503,-2.4441,-2.4609,-2.5027,-2.496,-2.5287,-2.5872,-2.5819,-2.5908,-2.612,-2.6175,-2.621,-2.6227,-2.6572,-2.6792,-2.6859,-2.6725,-2.6572,-2.6469,-2.64,-2.6312,-2.6303,-2.6738,-2.6793,-2.6912,-2.8003,-2.8051,-2.7826,-2.8466,-2.8638,-2.8543,-2.8027,-2.7894,-2.7845,-2.766,-2.7625,-2.7625,-2.7625,-2.7625,-2.7625,-2.7625,-2.7625,-2.7625,-2.7625,-2.7625,-2.7625,-2.7625,-2.7625,-2.7625,-2.7625,-2.7625,-2.7625,-2.7625,-2.7625,-2.7625,-2.7625,-2.7488,-2.7401,-2.7401,-2.7299,-2.7299,-2.7401,-2.6721,-2.6162,-2.5837,-2.4654,-2.4047,-2.4034,-2.3424,-2.3412,-2.4034,-2.3767,-2.359,-1.996,0.0,0.0,0.0,0.0,0.0,0.0,0.0,0.0,0.0,0.0,0.0,0.0,0.0,0.0,0.0,0.0,0.0,0.0,0.0,0.0,0.0,0.0,0.0,0.0,0.0,0.0,0.0,0.0,0.0,-2.762,-2.7644,-2.7703,-2.7791,-2.6539,-2.5644,-2.519,-2.4447,-2.3883,-2.3558,-2.3338,-2.3523,-2.4092,-2.3937,-2.4317,-2.5137,-2.5158,-2.5287,-2.5572,-2.5721,-2.5815,-2.5888,-2.6418,-2.6708,-2.6892,-2.6742,-2.659,-2.6435,-2.64,-2.6225,-2.6036,-2.6096,-2.577,-2.5644,-2.7119,-2.7083,-2.6733,-2.7825,-2.7987,-2.7799,-2.7615,-2.7625,-2.7625,-2.7625,-2.7625,-2.7625,-2.7625,-2.7625,-2.7625,-2.7625,-2.7625,-2.7625,-2.7625,-2.7625,-2.7625,-2.7625,-2.7625,-2.7625,-2.7625,-2.7625,-2.7625,-2.7625,-2.7625,-2.7625,-2.7625,-2.7539,-2.7437,-2.7401,-2.7233,-2.7115,-2.7115,-2.6014,-2.5287,-2.5119,-2.3989,-2.3305,-2.3078,-2.3078,-2.3078,-2.3078,-2.3078,-2.3078,0.0,0.0,0.0,-2.022,0.0,0.0,0.0,0.0,-2.1182,0.0,0.0,0.0,0.0,0.0,0.0,0.0,0.0,0.0,0.0,0.0,0.0,0.0,0.0,0.0,0.0,0.0,0.0,0.0,0.0,0.0,-2.6238,-2.6455,-2.6737,-2.7197,-2.6609,-2.5597,-2.4146,-2.3658,-2.2862,-2.1685,-2.1741,-2.195,-2.2293,-2.2075,-2.2824,-2.4207,-2.3716,-2.4131,-2.523,-2.523,-2.5519,-2.6049,-2.6453,-2.6624,-2.6691,-2.6691,-2.6623,-2.6485,-2.6347,-2.5977,-2.5465,-2.5075,-2.4918,-2.5091,-2.5975,-2.5857,-2.5676,-2.7203,-2.716,-2.6816,-2.746,-2.7625,-2.7625,-2.7625,-2.7625,-2.7625,-2.7625,-2.7625,-2.7625,-2.7625,-2.7625,-2.7625,-2.7625,-2.7625,-2.7625,-2.7625,-2.7625,-2.7625,-2.7625,-2.7625,-2.7625,-2.7625,-2.7625,-2.7625,-2.7625,-2.7575,-2.7524,-2.7401,-2.6841,-2.6457,-2.6336,-2.5728,-2.5063,-2.435,-2.4292,-2.3884,-2.3078,-2.3078,-2.3078,-2.3078,-2.3078,-2.3078,0.0,0.0,-1.942,-1.9797,0.0,0.0,0.0,0.0,0.0,0.0,0.0,0.0,0.0,0.0,0.0,0.0,0.0,0.0,0.0,0.0,0.0,0.0,0.0,0.0,0.0,0.0,0.0,0.0,0.0,0.0,0.0,-2.5978,-2.6204,-2.6409,-2.5254,-2.4363,-2.3769,-2.2506,-2.1661,-2.1262,-2.1166,-2.1325,-2.1752,-2.1768,-2.222,-2.3011,-2.2892,-2.3319,-2.403,-2.4084,-2.4662,-2.5519,-2.6013,-2.6314,-2.6469,-2.6589,-2.6503,-2.6239,-2.5905,-2.5465,-2.5059,-2.4639,-2.4492,-2.4581,-2.5014,-2.5017,-2.5123,-2.6531,-2.6752,-2.6737,-2.7445,-2.7625,-2.7625,-2.7625,-2.7625,-2.7625,-2.7625,-2.7625,-2.7625,-2.7625,-2.7625,-2.7625,-2.7625,-2.7625,-2.7625,-2.7625,-2.7625,-2.7625,-2.7625,-2.7625,-2.7625,-2.7625,-2.7625,-2.7408,-2.693,-2.6428,-2.6162,-2.6229,-2.596,-2.5728,-2.5728,-2.5063,-2.4567,-2.4292,-2.3767,-2.3365,-2.3078,-2.3078,-2.3078,-2.3078,-2.3078,-2.3078,-1.9228,-1.9176,0.0,-1.953,-1.9581,0.0,-1.9848,0.0,0.0,0.0,0.0,0.0,0.0,0.0,0.0,0.0,0.0,0.0,0.0,0.0,0.0,0.0,0.0,0.0,0.0,0.0,-2.4697,-2.4989,0.0,0.0,0.0,0.0,-2.5807,-2.5864,-2.454,-2.3785,-2.3667,-2.2037,-2.1183,-2.1167,-2.099,-2.1049,-2.1271,-2.1371,-2.1643,-2.2102,-2.2243,-2.272,-2.3429,-2.3522,-2.4225,-2.523,-2.5631,-2.5868,-2.6049,-2.6521,-2.6434,-2.5917,-2.5291,-2.4902,-2.4599,-2.4204,-2.4036,-2.4131,-2.4507,-2.4403,-2.4537,-2.5869,-2.6078,-2.6093,-2.6991,-2.7215,-2.7275,-2.7565,-2.7625,-2.7625,-2.7625,-2.7625,-2.7625,-2.7625,-2.7625,-2.7625,-2.7625,-2.7625,-2.7625,-2.7625,-2.7625,-2.7625,-2.7625,-2.7625,-2.7625,-2.7625,-2.7625,-2.7408,-2.693,-2.6229,-2.5837,-2.596,-2.5342,-2.5007,-2.5063,-2.4279,-2.3884,-2.3884,-2.3365,-2.3078,-2.3078,-2.3078,-2.3078,-2.3078,-2.3078,-2.3078]},{"header":{"parameterUnit":"m.s-1","parameterCategory":1,"la1":30.6,"la2":29.2853,"lo1":-89.7004,"lo2":-87.6739,"dy":0.0162,"dx":0.0183,"nx":112,"ny":82,"refTime":"2024-06-26T12:00:00:Z","depth":0,"parameterNumber":3,"parameterNumberName":"V-component_of_WINDS"},"data":[0.0,0.0,0.0,0.0,0.0,0.0,0.0,0.0,0.0,0.0,0.0,0.0,0.0,0.0,0.0,0.0,0.0,0.0,0.0,0.0,0.0,0.0,0.0,0.0,0.0,0.0,0.0,0.0,0.0,0.0,0.0,0.0,0.0,0.0,0.0,0.0,0.0,0.0,0.0,0.0,0.0,0.0,0.0,0.0,0.0,0.0,0.0,0.0,0.0,0.0,0.0,0.0,0.0,0.0,0.0,0.0,0.0,0.0,0.0,0.0,0.0,0.0,0.0,0.0,0.0,0.0,0.0,0.0,0.0,0.0,0.0,0.0,0.0,0.0,0.0,0.0,0.0,0.0,0.0,0.0,0.0,0.0,0.0,0.0,0.0,0.0,0.0,0.0,0.0,0.0,0.0,-1.5079,-1.528,-1.541,-1.541,-1.5196,-1.4586,-1.3459,0.0,0.0,0.0,0.0,0.0,0.0,0.0,0.0,0.0,0.0,0.0,0.0,0.0,0.0,0.0,0.0,0.0,0.0,0.0,0.0,0.0,0.0,0.0,0.0,0.0,0.0,0.0,0.0,0.0,0.0,0.0,0.0,0.0,0.0,0.0,0.0,0.0,0.0,0.0,0.0,0.0,0.0,0.0,0.0,0.0,0.0,0.0,0.0,0.0,0.0,0.0,0.0,0.0,0.0,0.0,0.0,0.0,0.0,0.0,0.0,0.0,0.0,0.0,0.0,0.0,0.0,0.0,0.0,0.0,0.0,0.0,0.0,0.0,0.0,0.0,0.0,0.0,0.0,0.0,0.0,0.0,0.0,0.0,0.0,0.0,0.0,0.0,0.0,0.0,0.0,0.0,0.0,0.0,0.0,0.0,0.0,0.0,0.0,0.0,0.0,0.0,0.0,0.0,0.0,-1.4073,-1.4763,-1.5166,-1.541,-1.541,-1.4808,-1.437,-1.431,0.0,0.0,0.0,0.0,0.0,0.0,0.0,0.0,0.0,0.0,0.0,0.0,0.0,0.0,0.0,0.0,0.0,0.0,0.0,0.0,0.0,0.0,0.0,0.0,0.0,0.0,0.0,0.0,0.0,0.0,0.0,0.0,0.0,0.0,0.0,0.0,0.0,0.0,0.0,0.0,0.0,0.0,0.0,0.0,0.0,0.0,0.0,0.0,0.0,0.0,0.0,0.0,0.0,0.0,0.0,0.0,0.0,0.0,0.0,0.0,0.0,0.0,0.0,0.0,0.0,0.0,0.0,0.0,0.0,0.0,0.0,0.0,0.0,0.0,0.0,0.0,0.0,0.0,0.0,0.0,0.0,0.0,0.0,0.0,0.0,0.0,0.0,0.0,0.0,0.0,0.0,0.0,0.0,0.0,0.0,0.0,0.0,0.0,0.0,0.0,0.0,0.0,0.0,-1.369,-1.4287,-1.5029,-1.5293,-1.5322,-1.5088,-1.4819,-1.435,-1.3756,-1.2512,0.0,0.0,0.0,0.0,0.0,0.0,0.0,0.0,0.0,0.0,0.0,0.0,0.0,0.0,0.0,0.0,0.0,0.0,0.0,0.0,0.0,0.0,0.0,0.0,0.0,0.0,0.0,0.0,0.0,0.0,0.0,0.0,0.0,0.0,0.0,0.0,0.0,0.0,0.0,0.0,0.0,0.0,0.0,0.0,0.0,0.0,0.0,0.0,0.0,0.0,0.0,0.0,0.0,0.0,0.0,0.0,0.0,0.0,0.0,0.0,0.0,0.0,0.0,0.0,0.0,0.0,0.0,0.0,0.0,0.0,0.0,0.0,0.0,0.0,0.0,0.0,0.0,0.0,0.0,0.0,0.0,0.0,0.0,0.0,0.0,0.0,0.0,0.0,0.0,0.0,0.0,0.0,0.0,0.0,0.0,0.0,0.0,0.0,0.0,0.0,0.0,0.0,-1.4188,-1.4533,-1.5186,-1.5409,-1.5359,-1.4936,-1.4925,-1.4469,-1.3259,-1.2043,0.0,0.0,0.0,0.0,0.0,0.0,0.0,0.0,0.0,0.0,0.0,0.0,0.0,0.0,0.0,0.0,0.0,0.0,0.0,0.0,0.0,0.0,0.0,0.0,0.0,0.0,0.0,0.0,0.0,0.0,0.0,0.0,0.0,0.0,0.0,0.0,0.0,0.0,0.0,0.0,0.0,0.0,0.0,0.0,0.0,0.0,0.0,0.0,0.0,0.0,0.0,0.0,0.0,0.0,0.0,0.0,0.0,0.0,0.0,0.0,0.0,0.0,0.0,0.0,0.0,0.0,0.0,0.0,0.0,0.0,0.0,0.0,0.0,0.0,0.0,0.0,0.0,0.0,0.0,0.0,0.0,0.0,0.0,0.0,0.0,0.0,0.0,0.0,0.0,0.0,0.0,0.0,0.0,0.0,0.0,0.0,0.0,0.0,0.0,0.0,0.0,0.0,-1.3896,-1.4316,-1.4775,-1.5462,-1.5703,-1.5225,-1.5159,-1.4687,-1.3547,-1.207,0.0,0.0,0.0,0.0,0.0,0.0,0.0,0.0,0.0,0.0,0.0,0.0,0.0,0.0,0.0,0.0,0.0,0.0,0.0,0.0,0.0,0.0,0.0,0.0,0.0,0.0,0.0,0.0,0.0,0.0,0.0,0.0,0.0,0.0,0.0,0.0,0.0,0.0,0.0,0.0,0.0,0.0,0.0,0.0,0.0,0.0,0.0,0.0,0.0,0.0,0.0,0.0,0.0,0.0,0.0,0.0,0.0,0.0,0.0,0.0,0.0,0.0,0.0,0.0,0.0,0.0,0.0,0.0,0.0,0.0,0.0,0.0,0.0,0.0,0.0,0.0,0.0,0.0,0.0,0.0,0.0,0.0,0.0,0.0,0.0,0.0,0.0,0.0,0.0,0.0,0.0,0.0,0.0,0.0,0.0,0.0,0.0,0.0,0.0,0.0,0.0,0.0,-1.4252,-1.478,0.0,-1.5472,-1.5512,-1.5137,-1.4894,-1.4426,-1.3598,0.0,0.0,0.0,0.0,0.0,0.0,0.0,0.0,0.0,0.0,0.0,0.0,0.0,0.0,0.0,0.0,0.0,0.0,0.0,0.0,0.0,0.0,0.0,0.0,0.0,0.0,0.0,0.0,0.0,0.0,0.0,0.0,0.0,0.0,0.0,0.0,0.0,0.0,0.0,0.0,0.0,0.0,0.0,0.0,0.0,0.0,0.0,0.0,0.0,0.0,0.0,0.0,0.0,0.0,0.0,0.0,0.0,0.0,0.0,0.0,0.0,0.0,0.0,0.0,0.0,0.0,0.0,0.0,0.0,0.0,0.0,0.0,0.0,0.0,0.0,0.0,0.0,0.0,0.0,0.0,0.0,0.0,0.0,0.0,0.0,0.0,0.0,0.0,0.0,0.0,0.0,0.0,0.0,0.0,0.0,0.0,0.0,0.0,0.0,0.0,0.0,0.0,-1.355,-1.4471,-1.5007,0.0,-1.5429,-1.5529,-1.4935,-1.4692,-1.4192,-1.3293,0.0,0.0,0.0,0.0,0.0,0.0,0.0,0.0,0.0,0.0,0.0,0.0,0.0,0.0,0.0,0.0,0.0,0.0,0.0,0.0,0.0,0.0,0.0,0.0,0.0,0.0,0.0,0.0,0.0,0.0,0.0,0.0,0.0,0.0,0.0,0.0,0.0,0.0,0.0,0.0,0.0,0.0,0.0,0.0,0.0,0.0,0.0,0.0,0.0,0.0,0.0,0.0,0.0,0.0,0.0,0.0,0.0,0.0,0.0,0.0,0.0,0.0,0.0,0.0,0.0,0.0,0.0,0.0,0.0,0.0,0.0,0.0,0.0,0.0,0.0,0.0,0.0,0.0,0.0,0.0,0.0,0.0,0.0,0.0,0.0,0.0,0.0,0.0,0.0,0.0,0.0,0.0,0.0,0.0,0.0,0.0,0.0,0.0,0.0,0.0,0.0,0.0,-1.3496,-1.4417,-1.4811,-1.4355,-1.5374,-1.5712,-1.4687,-1.4641,-1.4035,0.0,0.0,0.0,0.0,0.0,0.0,0.0,0.0,0.0,0.0,0.0,0.0,0.0,0.0,0.0,0.0,0.0,0.0,0.0,0.0,0.0,0.0,0.0,0.0,0.0,0.0,0.0,0.0,0.0,0.0,0.0,0.0,0.0,0.0,0.0,0.0,0.0,0.0,0.0,0.0,0.0,0.0,0.0,0.0,0.0,0.0,0.0,0.0,0.0,0.0,0.0,0.0,0.0,0.0,0.0,0.0,0.0,0.0,0.0,0.0,0.0,0.0,0.0,0.0,0.0,0.0,0.0,0.0,0.0,0.0,0.0,0.0,0.0,0.0,0.0,0.0,0.0,0.0,0.0,0.0,0.0,0.0,0.0,0.0,0.0,0.0,0.0,0.0,0.0,0.0,0.0,0.0,0.0,0.0,0.0,0.0,0.0,0.0,0.0,0.0,0.0,0.0,0.0,-1.3538,-1.4726,-1.5323,-1.4652,-1.5046,-1.5261,-1.4821,-1.4451,-1.3815,-1.2888,0.0,0.0,0.0,0.0,0.0,0.0,0.0,0.0,0.0,0.0,0.0,0.0,0.0,0.0,0.0,0.0,0.0,0.0,0.0,0.0,0.0,0.0,0.0,0.0,0.0,0.0,0.0,0.0,0.0,0.0,0.0,0.0,0.0,0.0,0.0,0.0,0.0,0.0,0.0,0.0,0.0,0.0,0.0,0.0,0.0,0.0,0.0,0.0,0.0,0.0,0.0,0.0,0.0,0.0,0.0,0.0,0.0,0.0,0.0,0.0,0.0,0.0,0.0,0.0,0.0,0.0,0.0,0.0,0.0,0.0,0.0,0.0,0.0,0.0,0.0,0.0,0.0,0.0,0.0,0.0,0.0,0.0,0.0,0.0,0.0,0.0,0.0,0.0,0.0,0.0,0.0,0.0,0.0,0.0,0.0,0.0,0.0,0.0,0.0,0.0,0.0,0.0,-1.405,-1.5182,-1.5654,-1.4687,-1.4952,-1.5077,-1.4639,-1.4169,-1.3621,-1.2979,0.0,0.0,0.0,0.0,0.0,0.0,0.0,0.0,0.0,0.0,0.0,0.0,0.0,0.0,0.0,0.0,0.0,0.0,0.0,0.0,0.0,0.0,0.0,0.0,0.0,0.0,0.0,0.0,0.0,0.0,0.0,0.0,0.0,0.0,0.0,0.0,0.0,0.0,0.0,0.0,0.0,0.0,0.0,0.0,0.0,0.0,0.0,0.0,0.0,0.0,0.0,0.0,0.0,0.0,0.0,0.0,0.0,0.0,0.0,0.0,0.0,0.0,0.0,0.0,0.0,0.0,0.0,0.0,0.0,0.0,0.0,0.0,0.0,0.0,0.0,0.0,0.0,0.0,0.0,0.0,0.0,0.0,0.0,0.0,0.0,0.0,0.0,0.0,0.0,0.0,0.0,0.0,0.0,0.0,0.0,0.0,0.0,0.0,0.0,0.0,0.0,0.0,-1.4869,-1.5694,-1.5818,-1.4602,-1.4999,-1.5028,-1.4269,-1.3973,-1.3528,-1.2832,0.0,0.0,0.0,0.0,0.0,0.0,0.0,0.0,0.0,0.0,0.0,0.0,0.0,0.0,0.0,0.0,0.0,0.0,0.0,0.0,0.0,0.0,0.0,0.0,0.0,0.0,0.0,0.0,0.0,0.0,0.0,0.0,0.0,0.0,0.0,0.0,0.0,0.0,0.0,0.0,0.0,0.0,0.0,0.0,0.0,0.0,0.0,0.0,0.0,0.0,0.0,0.0,0.0,0.0,0.0,0.0,0.0,0.0,0.0,0.0,-1.2438,0.0,0.0,0.0,0.0,0.0,0.0,0.0,0.0,0.0,0.0,0.0,0.0,0.0,0.0,0.0,0.0,0.0,0.0,0.0,0.0,0.0,0.0,0.0,0.0,0.0,0.0,0.0,0.0,0.0,0.0,0.0,0.0,0.0,0.0,0.0,0.0,0.0,0.0,0.0,0.0,0.0,-1.5182,-1.5765,-1.589,-1.5257,-1.4967,-1.4736,-1.4475,-1.4031,-1.3481,-1.2686,0.0,0.0,0.0,0.0,0.0,0.0,0.0,0.0,0.0,0.0,0.0,0.0,0.0,0.0,0.0,0.0,0.0,0.0,0.0,0.0,0.0,0.0,0.0,0.0,0.0,0.0,0.0,0.0,0.0,0.0,0.0,0.0,0.0,0.0,0.0,0.0,0.0,0.0,0.0,0.0,0.0,0.0,0.0,0.0,0.0,0.0,0.0,0.0,0.0,0.0,0.0,0.0,0.0,0.0,0.0,0.0,0.0,0.0,0.0,0.0,0.0,-1.2985,0.0,0.0,0.0,0.0,0.0,0.0,0.0,0.0,0.0,0.0,0.0,0.0,0.0,0.0,0.0,0.0,0.0,0.0,0.0,0.0,0.0,0.0,0.0,0.0,0.0,0.0,0.0,0.0,0.0,0.0,0.0,0.0,0.0,0.0,0.0,0.0,0.0,0.0,0.0,0.0,-1.5963,-1.6221,-1.6204,-1.5833,-1.5241,-1.4765,-1.4534,-1.4035,-1.3517,-1.3093,-1.2665,0.0,0.0,0.0,0.0,0.0,0.0,0.0,0.0,0.0,0.0,0.0,0.0,0.0,0.0,0.0,0.0,0.0,0.0,0.0,0.0,0.0,0.0,0.0,0.0,0.0,0.0,0.0,0.0,0.0,0.0,0.0,0.0,0.0,0.0,0.0,0.0,0.0,0.0,0.0,0.0,0.0,0.0,0.0,0.0,0.0,0.0,0.0,0.0,0.0,0.0,0.0,0.0,0.0,0.0,-1.3776,-1.4074,-1.4074,-1.4266,-1.4602,-1.4002,-1.367,-1.3597,0.0,0.0,0.0,0.0,0.0,0.0,0.0,0.0,0.0,0.0,0.0,0.0,0.0,0.0,0.0,0.0,0.0,0.0,0.0,0.0,0.0,0.0,0.0,0.0,0.0,-1.8427,-1.7872,0.0,0.0,0.0,0.0,0.0,0.0,0.0,0.0,0.0,0.0,0.0,0.0,-1.6779,-1.6714,-1.6546,-1.6372,-1.5615,-1.4987,-1.4631,-1.4101,-1.3751,-1.3621,-1.3109,-1.2757,0.0,0.0,0.0,0.0,0.0,0.0,0.0,0.0,0.0,0.0,0.0,0.0,0.0,0.0,0.0,0.0,0.0,0.0,0.0,0.0,0.0,0.0,0.0,0.0,0.0,0.0,0.0,0.0,0.0,0.0,0.0,0.0,-0.8052,-0.7265,0.0,0.0,0.0,0.0,0.0,0.0,0.0,0.0,0.0,0.0,0.0,0.0,0.0,0.0,-1.1832,-1.2649,-1.3475,-1.4366,-1.5366,-1.5751,-1.546,-1.546,-1.5469,-1.5524,-1.5423,0.0,-1.4531,-1.4644,0.0,0.0,0.0,0.0,0.0,0.0,0.0,0.0,0.0,0.0,0.0,0.0,0.0,0.0,0.0,0.0,0.0,0.0,0.0,0.0,0.0,0.0,-1.8706,-1.8339,-1.8251,-1.8176,0.0,-1.71,-1.6448,-1.6351,0.0,0.0,0.0,0.0,0.0,0.0,0.0,0.0,-1.7075,-1.6779,-1.6593,-1.7027,-1.6189,-1.5411,-1.4945,-1.4702,-1.43,-1.3641,-1.3935,-1.3893,-1.328,-1.317,0.0,0.0,0.0,0.0,0.0,0.0,0.0,0.0,0.0,0.0,0.0,0.0,0.0,0.0,0.0,0.0,0.0,0.0,0.0,0.0,0.0,0.0,0.0,0.0,0.0,0.0,0.0,0.0,0.0,-0.7734,-0.8015,-0.8074,-0.8526,-0.8873,0.0,0.0,0.0,0.0,0.0,0.0,0.0,0.0,0.0,-1.0887,-1.1142,-1.1861,-1.3253,-1.4212,-1.5105,-1.5979,-1.665,-1.6881,-1.6697,-1.6477,-1.6434,-1.655,-1.6204,-1.5928,-1.5766,-1.5563,-1.533,-1.5175,0.0,0.0,0.0,0.0,0.0,-1.6128,-1.6662,0.0,0.0,0.0,0.0,0.0,0.0,0.0,0.0,0.0,0.0,0.0,0.0,0.0,0.0,-1.9095,-1.9207,-1.9256,-1.9145,-1.8624,-1.8071,0.0,-1.7163,-1.6832,-1.6376,0.0,0.0,0.0,0.0,0.0,-1.8041,-1.7431,-1.7174,-1.7838,-1.6689,-1.5645,-1.5237,-1.4917,-1.4499,-1.4078,-1.4186,-1.4186,-1.3988,-1.3889,-1.3664,0.0,0.0,0.0,0.0,0.0,0.0,0.0,0.0,0.0,0.0,0.0,0.0,0.0,0.0,0.0,0.0,0.0,0.0,0.0,0.0,0.0,0.0,0.0,0.0,0.0,0.0,0.0,0.0,-0.7562,-0.8189,-0.859,-0.9172,-0.9408,0.0,0.0,0.0,0.0,0.0,0.0,-1.0656,-1.0843,-1.1279,-1.1985,-1.2312,-1.3121,-1.4508,-1.5288,-1.6182,-1.7114,-1.7476,-1.766,-1.7642,-1.7348,-1.7281,-1.7394,-1.6858,-1.6683,-1.6775,-1.6204,-1.5958,-1.5949,-1.6255,-1.6539,-1.6849,-1.7002,-1.7134,-1.741,-1.8187,-1.859,-1.869,-1.8718,0.0,-1.8568,-1.7953,0.0,0.0,0.0,0.0,-1.8846,-1.9395,0.0,-1.9649,-2.004,-2.0182,-2.0169,-2.0016,-1.9787,-1.9353,0.0,-1.8387,-1.8206,-1.7652,0.0,0.0,0.0,0.0,-1.8073,-1.8942,-1.8116,-1.774,-1.8466,-1.7114,-1.5923,-1.5446,-1.5124,-1.4822,-1.437,-1.4326,-1.4326,-1.4373,-1.4373,-1.422,-1.3881,0.0,0.0,0.0,0.0,0.0,0.0,0.0,0.0,0.0,0.0,0.0,0.0,0.0,0.0,0.0,0.0,0.0,0.0,0.0,0.0,0.0,0.0,0.0,0.0,0.0,0.0,0.0,0.0,0.0,-0.8317,-0.9489,0.0,0.0,0.0,0.0,-1.1403,-1.135,-1.1493,-1.1905,-1.2502,-1.3004,-1.3361,-1.3591,-1.4288,-1.5492,-1.5669,-1.6305,-1.7424,-1.7814,-1.8091,-1.8091,-1.8073,-1.8064,-1.8036,-1.7614,-1.744,-1.7383,-1.6348,-1.6287,-1.686,-1.6835,-1.7346,-1.8004,-1.8155,-1.8674,-1.9329,-1.9684,-1.9861,-2.0135,-2.0872,-2.0382,-1.9515,-1.949,-1.9118,0.0,0.0,-1.9927,-2.0665,-2.0983,-2.1033,-2.0987,-2.1013,-2.0682,-2.0372,-2.0372,-2.0258,-1.9927,0.0,-1.8652,-1.832,-1.7999,0.0,-1.8329,-1.8304,-1.8456,-1.8848,-1.9643,-1.8623,-1.808,-1.8602,-1.7534,-1.6403,-1.5467,-1.5599,-1.5289,-1.4287,-1.443,-1.4534,-1.4373,-1.4373,-1.4408,-1.4387,-1.3813,0.0,0.0,0.0,0.0,0.0,0.0,0.0,0.0,0.0,0.0,0.0,0.0,0.0,0.0,0.0,0.0,0.0,0.0,0.0,0.0,0.0,0.0,0.0,0.0,0.0,0.0,0.0,0.0,-0.9894,-1.0763,0.0,0.0,-1.1548,-1.1835,-1.1992,-1.2121,-1.2476,-1.295,-1.3397,-1.3722,-1.4009,-1.4626,-1.537,-1.6265,-1.6869,-1.7672,-1.8601,-1.8534,-1.8504,-1.8495,-1.8238,-1.8128,-1.8109,-1.7963,-1.7743,-1.7449,-1.7079,-1.7298,-1.7823,-1.7871,-1.8291,-1.8988,-1.9332,-1.9608,-1.9944,-2.0479,-2.0716,-2.0809,-2.1063,-2.0909,-2.0588,-2.0685,-2.0548,-2.0436,-2.0677,-2.1041,-2.1395,-2.1473,-2.1619,-2.1709,-2.1709,-2.1419,-2.103,-2.0875,-2.063,-2.0307,-1.9876,-1.9585,-1.9282,-1.8733,-1.8864,-1.8977,-1.8678,-1.9076,-1.9517,-1.9903,-1.9057,-1.8501,-1.8785,-1.7699,-1.6579,-1.5747,-1.5734,-1.5421,-1.4496,-1.4477,-1.443,-1.4373,-1.4373,-1.4373,-1.4373,-1.4117,-1.3747,0.0,0.0,0.0,0.0,0.0,0.0,0.0,0.0,0.0,0.0,0.0,0.0,0.0,0.0,0.0,0.0,0.0,0.0,0.0,0.0,0.0,0.0,0.0,0.0,0.0,0.0,-1.0793,-1.1004,-1.1852,-1.2406,-1.2187,-1.247,-1.2742,-1.2945,-1.3204,-1.3439,-1.3799,-1.4052,-1.4259,-1.4434,-1.5183,-1.5909,-1.637,-1.7432,-1.8327,-1.8886,-1.8879,-1.8907,-1.8898,-1.8641,-1.8522,-1.8513,-1.8385,-1.8164,-1.7899,-1.7761,-1.8216,-1.8971,-1.8818,-1.9208,-1.9894,-2.0688,-2.0997,-2.1056,-2.1596,-2.1782,-2.1782,-2.1782,-2.1601,-2.1453,-2.1555,-2.1555,-2.1612,-2.1656,-2.1964,-2.2261,-2.2261,-2.236,-2.2386,-2.2386,-2.2122,-2.1812,-2.164,-2.1381,-2.1094,-2.0656,-2.0322,-1.9915,-1.9409,-1.9533,-1.9603,-1.9387,-1.9742,-2.0122,-2.0316,-1.9661,-1.9085,-1.9032,-1.8027,-1.695,-1.5913,-1.5785,-1.5421,-1.4589,-1.443,-1.4373,-1.4373,-1.4373,-1.4326,-1.4326,-1.4025,-1.3707,-1.3352,0.0,0.0,0.0,0.0,0.0,0.0,0.0,0.0,0.0,0.0,0.0,0.0,0.0,0.0,0.0,0.0,0.0,0.0,0.0,0.0,0.0,0.0,0.0,-0.8791,-1.0755,-1.1997,-1.1473,-1.2741,-1.3557,-1.3388,-1.3721,-1.4094,-1.4193,-1.4374,-1.4487,-1.4494,-1.4554,-1.4646,-1.4653,-1.5359,-1.5756,-1.5748,-1.7286,-1.8014,-1.8078,-1.8895,-1.9301,-1.9301,-1.9301,-1.9301,-1.9283,-1.8898,-1.8724,-1.8678,-1.8302,-1.9058,-2.0286,-1.9733,-1.9966,-2.0805,-2.2185,-2.2702,-2.2739,-2.3017,-2.3078,-2.3078,-2.3078,-2.2668,-2.2126,-2.2126,-2.2126,-2.2126,-2.2126,-2.2749,-2.3403,-2.3403,-2.3335,-2.325,-2.325,-2.2942,-2.2643,-2.2643,-2.2495,-2.2204,-2.1497,-2.0772,-2.022,-2.0042,-2.0131,-2.0233,-2.0372,-2.051,0.0,-2.0934,-2.0409,-1.9786,-1.9279,-1.859,-1.7489,-1.5986,-1.5847,-1.5421,-1.446,-1.443,-1.443,-1.4395,-1.4302,-1.4197,-1.4197,-1.3608,-1.3228,-1.3118,0.0,0.0,0.0,0.0,0.0,0.0,0.0,0.0,0.0,0.0,0.0,0.0,0.0,0.0,0.0,0.0,0.0,0.0,0.0,0.0,0.0,0.0,-0.9853,-0.9503,-1.1258,-1.2539,-1.2298,-1.3247,-1.3961,-1.4206,-1.4328,-1.4392,-1.4403,-1.4626,-1.4911,-1.5153,-1.5209,-1.5312,-1.5366,-1.6736,-1.7172,-1.6744,-1.8499,-1.9192,-1.8975,-1.9222,-1.9301,-1.9301,-1.9301,-1.9301,-1.9292,-1.9358,-1.9291,-1.9146,-1.9212,-1.9338,-1.9436,-1.9959,-2.0893,-2.1946,-2.2599,-2.2935,-2.3017,-2.3078,-2.3078,-2.3078,-2.3078,-2.2917,-2.2685,-2.2792,-2.2745,-2.2745,-2.2984,-2.3276,-2.3569,-2.37,-2.382,-2.3877,-2.3877,-2.342,-2.3057,-2.3057,-2.2716,-2.2322,-2.2137,-2.1901,-2.1458,-2.0476,-2.0347,-2.0448,-2.0599,-2.0712,0.0,-2.0812,-2.0308,-1.9888,-1.9552,-1.8963,-1.8107,-1.6897,-1.6485,-1.5914,0.0,-1.458,-1.4537,-1.4897,-1.4801,-1.4607,-1.4412,-1.391,-1.3464,0.0,0.0,0.0,0.0,0.0,0.0,0.0,0.0,0.0,0.0,0.0,0.0,0.0,0.0,0.0,0.0,0.0,0.0,0.0,0.0,0.0,0.0,-0.9364,-1.0152,-1.0117,-1.1737,-1.3022,-1.3108,-1.3701,-1.4256,-1.4585,-1.4587,-1.4712,-1.5043,-1.5248,-1.5489,-1.5804,-1.5648,-1.5658,-1.5658,-1.6793,-1.7124,-1.6751,-1.8642,-1.9475,-1.9235,-1.9643,-1.9723,-1.9567,-1.9567,-1.9467,0.0,-1.9478,-1.9496,-1.9418,-1.9505,-1.9659,0.0,0.0,0.0,0.0,0.0,-2.3123,-2.3367,-2.3367,-2.3217,-2.3017,-2.3017,-2.2909,-2.286,-2.2909,-2.2848,-2.286,-2.321,-2.339,-2.3582,-2.3832,-2.4008,-2.4112,-2.4112,-2.3851,-2.3589,-2.3589,-2.3328,-2.3027,-2.2847,0.0,0.0,-2.1472,-2.1329,-2.1342,-2.1419,-2.1287,-2.1079,0.0,-2.059,-2.0118,-1.9668,-1.9384,-1.8694,-1.734,-1.7003,0.0,0.0,0.0,-1.4969,-1.4947,-1.48,0.0,0.0,0.0,0.0,0.0,0.0,0.0,0.0,-1.7302,-1.8101,0.0,0.0,0.0,0.0,0.0,0.0,0.0,0.0,0.0,0.0,0.0,0.0,0.0,0.0,0.0,0.0,-0.9492,-1.0194,-1.0767,-1.2111,-1.3164,-1.3669,-1.4157,-1.4498,-1.4717,-1.4795,-1.5146,-1.5848,-1.5913,-1.6067,-1.6404,0.0,0.0,0.0,0.0,-1.6337,-1.6264,-1.8189,-1.9025,-1.9025,-1.9955,-2.02,-1.9861,-1.9861,-1.9659,-1.9381,-1.9557,-1.9636,-1.9715,-1.9548,-2.0235,-2.1303,-2.1657,-2.1312,-2.0807,-2.2503,-2.3376,0.0,0.0,0.0,0.0,-2.3009,-2.2936,-2.2776,-2.2776,-2.2727,-2.2739,-2.3017,-2.321,-2.3403,-2.3772,-2.3936,-2.4054,-2.4112,-2.4112,-2.4112,-2.4112,-2.4112,-2.3955,-2.3589,-2.3371,-2.3158,-2.2839,-2.2546,-2.24,-2.2415,-2.193,0.0,-2.1368,-2.1016,-2.0513,-1.9772,0.0,0.0,-1.7578,-1.7445,-1.6967,-1.5872,-1.581,-1.5553,-1.496,-1.4811,-1.471,-1.456,-1.5094,-1.5576,-1.6019,-1.7105,-1.7678,-1.7691,-1.872,-1.9242,0.0,0.0,0.0,0.0,0.0,0.0,0.0,0.0,0.0,0.0,0.0,0.0,0.0,0.0,0.0,-0.927,-0.946,-1.0107,-1.1579,-1.1918,-1.2271,-1.2998,-1.3976,-1.4635,-1.4684,-1.5256,-1.5709,-1.5899,-1.5913,-1.6075,-1.6469,-1.5887,0.0,-1.612,-1.6779,-1.6887,-1.6271,-1.8189,-1.8845,-1.822,0.0,0.0,-1.9421,-1.9421,-1.9463,-1.9557,-1.9784,-2.002,-2.0411,-2.0498,-2.1118,-2.1962,-2.2024,-2.2286,-2.2748,-2.2981,-2.3376,-2.3728,-2.402,-2.3887,-2.3579,-2.3872,-2.3597,-2.3128,-2.3266,-2.296,0.0,-2.2848,-2.2969,-2.309,-2.3509,-2.3688,-2.3747,-2.4054,-2.4112,-2.4112,-2.4112,-2.4112,-2.4073,-2.3968,-2.3942,-2.3903,-2.3799,-2.3057,-2.2415,-2.2415,-2.2323,-2.2034,-2.1524,-2.1407,-2.1004,-2.0182,-2.0246,-1.9991,-1.9052,-1.8279,-1.7622,-1.6961,-1.634,-1.6127,-1.6324,-1.6345,-1.6252,-1.6083,-1.6294,-1.6474,-1.6528,-1.7621,-1.8137,-1.8188,-1.8994,-1.9544,0.0,0.0,0.0,0.0,0.0,0.0,0.0,0.0,0.0,0.0,0.0,-0.8622,-0.8828,0.0,-0.9253,-0.934,-0.938,-1.0005,-1.1761,-1.1706,-1.2003,-1.3178,-1.3851,-1.4342,-1.4591,-1.505,-1.5562,-1.5891,-1.606,-1.6199,-1.6249,-1.5838,-1.5791,-1.5985,-1.6264,-1.638,-1.6504,-1.7929,-1.8621,-1.8579,-1.9497,-1.9887,-1.9925,-1.9765,-1.9823,-1.996,-2.0029,-2.0255,-2.0498,-2.0654,-2.0886,-2.1001,-2.1281,-2.2282,-2.3635,-2.3183,-2.3546,-2.4247,-2.445,-2.4193,-2.3855,-2.4047,-2.3831,-2.3494,-2.3636,-2.3195,-2.2771,-2.3009,-2.3059,-2.309,-2.339,-2.3688,-2.3878,-2.4054,-2.4112,-2.4112,-2.4112,-2.4112,-2.4112,-2.4112,-2.4112,-2.4112,-2.4112,-2.3571,-2.3193,-2.3237,-2.2932,-2.2577,-2.2304,-2.2072,-2.1732,-2.1104,-2.0939,-2.0564,-1.976,-1.8773,-1.8055,-1.7896,-1.7469,-1.7196,-1.7138,-1.7138,-1.7033,-1.698,-1.7299,-1.7603,-1.7863,-1.8651,-1.9189,-1.9512,-2.0258,-2.0679,0.0,0.0,0.0,0.0,0.0,0.0,0.0,0.0,-0.631,-0.7903,-0.8561,-0.8941,-0.9462,-0.9297,-0.9241,-0.9374,-0.9311,-0.9857,-1.1783,-1.1515,-1.1781,-1.3499,-1.3836,-1.4044,-1.4499,-1.4867,-1.535,-1.5877,-1.614,-1.6132,-1.5931,-1.5704,-1.5549,-1.5684,-1.5409,-1.5643,-1.6285,-1.7443,-1.8161,-1.8676,-1.9773,-2.0319,-2.0476,-2.0323,-2.0344,-2.0505,-2.0507,-2.0468,-2.0458,-2.0605,-2.0411,-2.0098,-2.0489,-2.1973,-2.3829,-2.3243,-2.3738,-2.4828,-2.4856,-2.4541,-2.4183,-2.4226,-2.4123,-2.3917,-2.3917,-2.3556,-2.3176,-2.3247,-2.3207,-2.3203,-2.3356,-2.37,-2.3995,-2.4054,-2.4112,-2.4112,-2.4112,-2.4112,-2.4112,-2.4112,-2.4112,-2.4112,-2.4112,-2.4008,-2.3949,-2.4067,-2.3534,-2.3127,-2.3023,-2.2734,-2.2395,-2.1979,-2.1689,-2.1138,-2.03,-1.9269,-1.8701,-1.8863,-1.8499,-1.8147,-1.7885,-1.7757,-1.7694,-1.7694,-1.8274,-1.8812,-1.9251,-1.9716,-2.0265,-2.0825,-2.1891,-2.2257,-0.0335,-0.1513,-0.2717,-0.3185,-0.3698,-0.4399,0.0,0.0,-0.7832,-0.8882,-0.9265,-0.9522,-0.9592,-0.9518,-0.9532,-0.989,-0.9433,-0.9769,-1.1808,-1.0953,-1.0962,-1.3273,-1.4087,-1.4462,-1.4457,-1.5277,-1.584,-1.5913,-1.577,-1.5734,-1.5739,-1.5244,-1.4974,-1.5093,-1.51,-1.4972,-1.4791,-1.6395,-1.7159,-1.6982,-1.8619,-1.9774,-2.0342,-2.0342,-2.0665,-2.1342,-2.1157,-2.1082,-2.1053,-2.0732,-2.0566,-2.0566,-2.0566,-2.1614,-2.3095,-2.3032,-2.3738,-2.4808,-2.5129,-2.5018,-2.4735,-2.5057,-2.4819,-2.4434,-2.4434,-2.4085,-2.3646,-2.3472,-2.3352,-2.338,-2.3564,-2.3628,-2.3747,-2.4054,-2.4112,-2.4112,-2.4112,-2.4112,-2.4112,-2.4112,-2.4112,-2.4112,-2.4112,-2.4008,-2.3891,-2.3891,-2.3839,-2.3606,-2.3075,-2.3046,-2.288,-2.2263,-2.2092,-2.1725,-2.1045,-2.0263,-1.9837,-1.9837,-1.8783,-1.8352,-1.885,-1.885,-1.8838,-1.8838,-1.9349,-1.9799,-2.008,-2.0431,-2.0815,-2.1275,-2.3362,-2.3998,-0.1005,-0.1661,0.0,0.0,-0.3506,-0.4213,-0.5658,-0.6569,-0.7335,-0.847,-0.8997,-0.9182,-0.9257,-0.9255,-0.9286,0.0,-0.9262,-0.9694,-1.1634,-1.087,-1.0901,-1.3214,-1.3682,-1.3988,-1.4472,-1.5343,-1.584,-1.565,-1.5713,-1.5639,-1.514,-1.475,-1.4654,-1.4696,-1.4703,-1.4906,-1.5282,-1.6452,-1.7199,-1.7513,-1.9138,-2.0164,-2.0657,-2.0895,-2.1269,-2.1773,-2.1607,-2.1475,-2.1221,-2.1035,-2.0801,-2.0566,-2.0566,-2.1318,-2.236,-2.2809,-2.3849,-2.5093,-2.5228,-2.5238,-2.5093,-2.524,-2.5155,-2.4975,-2.4975,-2.4695,-2.4311,-2.3949,-2.3889,-2.3841,-2.365,-2.3747,-2.3936,-2.4054,-2.4112,-2.4112,-2.4112,-2.4112,-2.4112,-2.4112,-2.4112,-2.4112,-2.4112,-2.4008,-2.3891,-2.3891,-2.3819,-2.361,-2.3354,-2.3515,-2.3353,-2.2601,-2.2368,-2.1958,-2.1394,-2.1045,-2.0717,-2.0449,-1.989,-1.9556,-1.946,-1.9448,-1.9648,-2.0089,-2.0353,-2.0676,-2.1046,-2.118,-2.1526,-2.2103,-2.3797,-2.4664,-0.1449,0.0,0.0,-0.3008,-0.3587,-0.4384,-0.5694,-0.625,-0.692,-0.8103,-0.8513,-0.8764,-0.8931,-0.8969,-0.9034,-0.9375,-0.9216,-0.9665,-1.1522,-1.0746,-1.089,-1.3364,-1.3256,-1.3466,-1.4518,-1.5313,-1.5687,-1.5445,-1.5512,-1.5389,-1.4762,-1.4489,-1.4379,-1.4422,-1.4429,-1.4723,-1.5315,-1.6245,-1.7007,-1.7663,-1.9206,-2.0318,-2.0991,-2.1611,-2.2039,-2.2217,-2.1992,-2.1709,-2.1396,-2.1152,-2.0859,-2.0566,-2.0566,-2.1088,-2.1832,-2.2424,-2.361,-2.4933,-2.4933,-2.5087,-2.5312,-2.5312,-2.5312,-2.5312,-2.5453,-2.5269,-2.5061,-2.4764,-2.4619,-2.4453,-2.4073,-2.4053,-2.4112,-2.4112,-2.4112,-2.4112,-2.4112,-2.4112,-2.4112,-2.4112,-2.4112,-2.4112,-2.4067,-2.3949,-2.3891,-2.3832,-2.3641,-2.3569,-2.3628,-2.37,-2.3605,-2.3007,-2.2723,-2.2443,-2.1983,-2.1807,-2.1543,-2.1142,-2.0978,-2.0702,-2.0288,-2.0263,-2.0517,-2.104,-2.1094,-2.1352,-2.1801,-2.1967,-2.2316,-2.284,-2.4163,-2.5105,0.0,0.0,-0.3191,-0.3656,-0.4451,-0.5353,-0.6171,-0.6538,-0.6937,-0.7913,-0.8113,-0.8328,-0.8915,-0.8866,-0.8913,-0.957,-0.9312,-0.9721,-1.178,-1.0525,-1.0509,-1.3618,-1.3081,-1.3104,0.0,-1.524,-1.5438,-1.5431,-1.5013,-1.4755,-1.4734,-1.4328,-1.413,-1.4148,-1.4073,-1.4121,-1.4231,-1.5102,-1.5987,-1.6846,-1.8302,-1.9773,-2.1275,-2.2447,-2.3105,-2.3057,-2.2236,-2.1875,-2.1797,-2.0937,-2.0576,-2.0566,-2.0566,-2.1088,-2.1832,-2.1832,-2.2798,-2.412,-2.412,-2.4636,-2.5312,-2.5312,-2.5312,-2.5382,-2.5758,-2.5898,-2.5901,-2.6003,-2.564,-2.5203,-2.5031,-2.453,-2.4112,-2.4112,-2.4112,-2.4112,-2.4112,-2.4112,-2.4112,-2.4112,-2.4112,-2.4067,-2.3949,-2.3891,-2.3819,-2.3628,-2.3509,-2.3463,-2.3569,-2.3628,-2.3569,-2.3378,-2.3378,-2.3305,-2.3088,-2.2585,-2.2284,-2.2259,-2.1757,-2.1455,-2.1443,-2.1443,-2.1443,-2.1455,-2.1622,-2.1831,-2.2105,-2.2531,-2.2985,-2.3392,-2.4888,-2.5494,0.0,0.0,-0.238,-0.333,-0.4207,-0.5108,-0.6044,-0.6394,-0.6605,-0.7061,-0.719,-0.7319,-0.7879,-0.7772,-0.7956,-0.9053,-0.9025,-0.9619,-1.1887,-1.0605,-1.068,-1.3945,-1.3213,0.0,0.0,0.0,0.0,-1.5187,-1.5106,-1.4866,-1.4489,-1.4243,-1.413,-1.406,-1.4073,-1.4209,-1.4501,-1.5116,-1.5758,-1.6257,-1.858,-2.0652,-2.2457,-2.2911,-2.2988,-2.2705,-2.2432,-2.1807,-2.1016,-2.1006,-2.0664,-2.0166,-2.0449,-2.0789,-2.1011,-2.1011,-2.1983,-2.3463,-2.3891,-2.4636,-2.5312,-2.5312,-2.5465,-2.5688,-2.584,-2.6176,-2.6319,-2.5715,-2.5499,-2.5265,-2.4588,-2.4256,-2.4112,-2.4112,-2.4112,-2.4112,-2.4112,-2.4112,-2.4112,-2.4112,-2.4008,-2.3891,-2.376,-2.3641,-2.3522,-2.3318,-2.3258,-2.321,-2.3258,-2.3198,-2.315,-2.321,-2.3198,-2.3198,-2.3138,-2.2902,-2.2698,-2.2334,-2.2133,-2.187,-2.1506,-2.1493,-2.1725,-2.2217,-2.2388,-2.268,-2.3097,-2.3373,-2.3593,-2.3767,-2.5037,-2.5618,0.0124,-0.0932,-0.201,-0.275,-0.3818,-0.4915,-0.5661,-0.5951,-0.6098,-0.6277,-0.6336,-0.6483,-0.6871,-0.6903,-0.7179,-0.8299,-0.8408,-0.9064,-1.0912,-1.0603,-1.1095,-1.362,-1.3526,-1.3698,0.0,0.0,0.0,-1.5118,-1.512,-1.4867,-1.4491,-1.4229,-1.4156,-1.4276,-1.4199,-1.4334,-1.4622,-1.4884,-1.5686,-1.6929,-1.9511,-2.1562,-2.3135,-2.3135,-2.291,-2.249,-2.2187,-2.1582,-2.0801,-2.0771,-2.0518,-2.0176,-2.0449,-2.0566,-2.0566,-2.0566,-2.1614,-2.3106,-2.3537,-2.442,-2.5312,-2.5465,-2.5688,-2.598,-2.6245,-2.6508,-2.6697,-2.6232,-2.5871,-2.5454,-2.4849,-2.4426,-2.4112,-2.4112,-2.4067,-2.4008,-2.4008,-2.3936,-2.3878,-2.3936,-2.376,-2.3582,-2.3509,-2.3463,-2.3343,-2.3078,-2.3017,-2.3078,-2.3078,-2.2969,-2.2969,-2.3078,-2.3078,-2.3078,-2.3078,-2.3078,-2.2927,-2.2623,-2.2611,-2.2447,-2.221,-2.2198,-2.2477,-2.2974,-2.3148,-2.3386,-2.37,-2.3878,-2.3949,-2.3995,-2.4921,-2.5633,0.0625,-0.0821,-0.2061,-0.2126,-0.3484,-0.4827,-0.5024,-0.5219,-0.5373,-0.5608,-0.5693,-0.5727,0.0,0.0,-0.6691,-0.7371,-0.766,-0.8197,-0.9317,-1.0313,-1.1467,0.0,0.0,0.0,0.0,0.0,0.0,-1.5098,0.0,-1.4817,-1.4543,-1.4274,-1.4263,-1.4551,-1.4378,-1.4315,-1.4688,-1.449,-1.5873,-1.8732,-2.1038,-2.2486,-2.3105,-2.3105,-2.2861,-2.2402,-2.1562,-2.1172,-2.1074,-2.0254,-2.0146,-2.0498,-2.0547,-2.0566,-2.0566,-2.0566,-2.1614,-2.2957,-2.2957,-2.3986,-2.5382,-2.5758,-2.5898,-2.6037,-2.6769,-2.6973,-2.704,-2.7364,-2.6622,-2.5749,-2.5722,-2.4888,-2.4054,-2.4054,-2.4008,-2.3891,-2.3891,-2.3654,-2.3463,-2.3569,-2.3318,-2.3138,-2.3343,-2.3343,-2.321,-2.2909,-2.2909,-2.2969,-2.3078,-2.2969,-2.2969,-2.3078,-2.3078,-2.3078,-2.3078,-2.3078,-2.3078,-2.3078,-2.3078,-2.3198,-2.3403,-2.3509,-2.3569,-2.3569,-2.3936,-2.4008,-2.3891,-2.4067,-2.4112,-2.4112,-2.4778,-2.5701,0.0726,-0.0462,-0.1724,-0.2589,-0.3602,-0.4489,-0.4691,-0.468,-0.4662,-0.469,-0.4571,-0.465,-0.514,0.0,0.0,-0.6907,-0.7919,0.0,-0.9614,-0.9937,0.0,-1.2759,0.0,-1.2331,-1.503,-1.4867,0.0,0.0,-1.4892,-1.4843,-1.4569,-1.4314,-1.4301,-1.4558,-1.4378,-1.4315,-1.4688,-1.5697,-1.708,-1.874,-2.0381,-2.1692,-2.2676,-2.2676,-2.2266,-2.1533,-2.0977,-2.0371,-1.9795,-1.9883,-1.9795,-1.9678,-2.0312,-2.0566,-2.0566,-2.0566,-2.1242,-2.2134,-2.2306,-2.3706,-2.5535,-2.5606,-2.5955,-2.6289,-2.6483,-2.6782,-2.6921,-2.6539,-2.5975,-2.5331,-2.4844,-2.4214,-2.3747,-2.3747,-2.3688,-2.37,-2.37,-2.3522,-2.3463,-2.3569,-2.3271,-2.2909,-2.2665,-2.2665,-2.2665,-2.2739,-2.2739,-2.28,-2.2909,-2.286,-2.28,-2.2969,-2.3017,-2.3078,-2.3078,-2.3078,-2.3078,-2.3078,-2.3078,-2.3138,-2.3198,-2.333,-2.3463,-2.3463,-2.3772,-2.3949,-2.3891,-2.4144,-2.4203,-2.4112,-2.5258,-2.6174,0.1343,-0.0068,-0.1431,-0.2288,-0.3279,-0.4132,-0.4581,-0.4704,-0.468,-0.4822,-0.4414,0.0,-0.4607,0.0,0.0,0.0,0.0,0.0,-0.8983,-0.956,-1.0402,0.0,-1.1305,0.0,-1.4516,-1.4301,-1.4192,0.0,-1.4871,-1.478,-1.4415,-1.4239,-1.4371,-1.4647,-1.4364,-1.4438,-1.4885,-1.7001,-1.838,-1.9115,-2.0935,-2.2098,-2.251,-2.251,-2.2051,-2.1211,0.0,-2.0293,-1.9853,-1.9893,-1.9817,-1.9827,-2.0381,-2.0566,-2.0498,-2.0654,-2.1262,-2.1928,-2.2176,-2.3559,-2.5382,-2.5465,-2.5873,-2.6427,-2.6645,-2.6794,-2.6896,-2.6319,-2.5743,-2.5166,-2.4602,-2.4038,-2.3628,-2.3628,-2.3569,-2.3509,-2.3378,-2.321,-2.3042,-2.2969,-2.2909,-2.2739,-2.2371,-2.242,-2.2555,-2.2555,-2.2555,-2.2616,-2.28,-2.2739,-2.2739,-2.2909,-2.2909,-2.2909,-2.2909,-2.2969,-2.3017,-2.3017,-2.3078,-2.3138,-2.321,-2.3463,-2.3641,-2.3641,-2.3923,-2.4041,-2.4008,-2.4157,-2.4157,-2.4112,-2.4878,-2.5938,0.1945,0.041,-0.1178,-0.1756,-0.2714,-0.3675,-0.4449,-0.4737,-0.4864,-0.5185,0.0,-0.4247,-0.4247,-0.4195,-0.4617,-0.5909,0.0,-0.7387,-0.8009,-0.9345,-1.0336,-1.0409,-1.1141,-1.2298,-1.3975,-1.3811,-1.3848,-1.4528,-1.4795,-1.4795,-1.4334,-1.4241,-1.4346,-1.4682,-1.449,-1.4592,-1.5083,-1.798,-1.9422,-1.9414,-2.1813,-2.2754,-2.2344,-2.2344,-2.1821,-2.1043,0.0,0.0,-2.0284,-1.9847,-1.9858,-2.0101,-2.0304,-2.0333,-2.0187,-2.0653,-2.1151,-2.1761,-2.1987,-2.315,-2.4602,-2.511,-2.5791,-2.6496,-2.6807,-2.6892,-2.6739,-2.624,-2.5627,-2.5013,-2.4528,-2.3991,-2.3497,-2.3497,-2.345,-2.333,-2.3138,-2.2848,-2.2629,-2.2259,-2.2445,-2.2555,-2.2259,-2.2432,-2.2616,-2.2482,-2.242,-2.2494,-2.2678,-2.2678,-2.2739,-2.2848,-2.28,-2.269,-2.269,-2.28,-2.2909,-2.2909,-2.3017,-2.3198,-2.3403,-2.37,-2.3891,-2.3891,-2.4144,-2.4203,-2.4112,-2.4112,-2.4112,-2.4112,-2.4229,-2.5441,0.141,0.0404,-0.0473,-0.1615,-0.2168,-0.2701,-0.3501,-0.3754,0.0,0.0,0.0,-0.4546,-0.4671,-0.4827,-0.538,-0.6499,0.0,0.0,0.0,0.0,-0.9938,0.0,0.0,0.0,0.0,0.0,0.0,0.0,0.0,0.0,-1.462,-1.4423,-1.4345,-1.4394,-1.479,-1.4885,-1.479,-1.7561,-1.8856,-1.8669,-2.1022,-2.1875,-2.1455,-2.1273,-2.0922,-2.041,0.0,0.0,-1.902,-1.86,-1.8604,-1.9012,-1.9374,-1.9516,-1.9516,-1.9963,-1.9964,-1.9869,-2.0307,-2.115,-2.2262,-2.4366,-2.5734,-2.6521,-2.6602,-2.6261,-2.5791,-2.5757,-2.496,-2.418,-2.4141,-2.3626,-2.3198,-2.3198,-2.3198,-2.3138,-2.2969,-2.28,-2.2629,-2.2259,-2.2371,-2.2432,-2.2247,-2.2371,-2.2494,-2.2616,-2.2678,-2.2678,-2.2848,-2.2604,-2.2543,-2.2739,-2.2678,-2.269,-2.269,-2.2739,-2.286,-2.3078,-2.3078,-2.3258,-2.3569,-2.376,-2.3891,-2.3891,-2.4054,-2.4112,-2.4112,-2.4203,-2.4203,-2.4112,-2.4708,-2.5704,0.114,0.0206,-0.0697,-0.1962,-0.2498,-0.3021,-0.4048,0.0,0.0,0.0,0.0,-0.4964,-0.5151,0.0,0.0,0.0,0.0,0.0,0.0,0.0,0.0,0.0,0.0,0.0,0.0,0.0,0.0,0.0,0.0,0.0,-1.449,-1.4394,-1.4238,-1.4099,-1.4666,-1.4878,-1.4638,-1.7428,-1.875,-1.8655,-2.0745,-2.1467,-2.106,-2.0809,-2.0499,-2.007,-1.9364,0.0,-1.8985,-1.8569,-1.8439,-1.8563,-1.8844,-1.9079,-1.9154,-1.959,-1.9746,-1.9785,-2.0145,-2.0765,-2.1684,-2.3248,-2.439,-2.5172,-2.5532,-2.541,-2.5134,-2.4845,-2.4393,-2.3929,-2.3627,-2.3339,-2.3078,-2.3078,-2.2957,-2.2848,-2.28,-2.2616,-2.2383,-2.2259,-2.2247,-2.2309,-2.2197,-2.2247,-2.2309,-2.2445,-2.2445,-2.2432,-2.2555,-2.2432,-2.2371,-2.2555,-2.2494,-2.2445,-2.2445,-2.2494,-2.2665,-2.2969,-2.3078,-2.3258,-2.3569,-2.376,-2.3891,-2.3891,-2.4008,-2.4112,-2.4112,-2.4157,-2.4157,-2.4112,-2.4492,-2.528,0.1138,0.0209,-0.0787,-0.2122,-0.2699,-0.3338,-0.4566,-0.496,0.0,0.0,-0.5605,-0.5439,-0.5623,0.0,0.0,0.0,0.0,0.0,0.0,0.0,0.0,0.0,0.0,0.0,0.0,0.0,0.0,0.0,0.0,0.0,-1.4298,-1.4244,-1.4117,-1.3912,-1.4587,-1.4819,-1.4501,-1.7297,-1.8641,-1.8641,-2.0421,-2.1063,-2.0825,-2.0514,-2.0184,-1.9844,-1.9429,0.0,0.0,-1.8665,-1.8413,-1.8193,-1.8486,-1.8632,-1.887,-1.9285,-1.9584,-1.9788,-2.0071,-2.0551,-2.1163,-2.1812,-2.2846,-2.3923,-2.4613,-2.4745,-2.4556,-2.4117,-2.3916,-2.3703,-2.319,-2.3226,-2.3253,-2.3253,-2.2935,-2.2616,-2.2616,-2.2432,-2.2197,-2.2197,-2.2197,-2.2197,-2.2197,-2.2197,-2.2197,-2.2247,-2.2185,-2.2197,-2.2247,-2.2185,-2.2247,-2.2359,-2.2309,-2.2309,-2.2309,-2.2494,-2.2653,-2.2909,-2.3138,-2.3318,-2.3569,-2.3819,-2.3949,-2.3949,-2.4067,-2.4112,-2.4112,-2.4112,-2.4112,-2.4112,-2.4112,-2.4707,0.1401,0.0756,0.007,-0.1255,-0.1961,-0.2651,-0.3969,0.0,0.0,-0.536,-0.5636,-0.5866,-0.6121,-0.5936,0.0,0.0,0.0,0.0,0.0,0.0,0.0,0.0,0.0,0.0,0.0,0.0,0.0,0.0,0.0,0.0,0.0,-1.4075,-1.393,-1.3906,-1.4403,-1.452,-1.4218,-1.6877,-1.8087,-1.7928,-1.9577,-2.0508,-2.0625,-2.0008,-1.9752,-1.9844,0.0,0.0,0.0,-1.7961,-1.7784,-1.7622,-1.799,-1.8133,-1.8276,-1.8903,-1.8933,-1.867,-1.9065,-1.9266,-1.9456,-2.0096,-2.187,-2.3923,-2.4613,-2.4469,-2.4067,-2.4017,-2.3615,-2.314,-2.309,-2.3527,-2.3854,-2.3717,-2.3022,-2.242,-2.242,-2.2309,-2.2197,-2.2197,-2.2197,-2.2197,-2.2197,-2.2197,-2.2247,-2.2359,-2.2309,-2.2247,-2.2359,-2.2309,-2.2197,-2.2185,-2.2494,-2.2629,-2.2629,-2.2909,-2.3078,-2.3078,-2.3378,-2.3569,-2.3628,-2.3936,-2.4054,-2.4054,-2.4112,-2.4112,-2.4112,-2.4112,-2.4112,-2.4112,-2.4112,-2.4485,0.0854,0.0136,-0.063,-0.1888,-0.2657,-0.3416,-0.448,0.0,-0.5206,-0.5473,-0.5643,-0.5818,-0.6145,-0.5825,-0.5778,0.0,-0.6652,-0.6754,0.0,0.0,0.0,0.0,0.0,0.0,0.0,0.0,0.0,0.0,0.0,0.0,0.0,-1.396,-1.3833,-1.3676,-1.3944,-1.3982,-1.3722,-1.6286,-1.7549,-1.7557,-1.9366,-2.0342,-2.042,-1.9872,-1.9496,-1.9313,0.0,0.0,0.0,-1.7794,-1.766,-1.7497,-1.7707,-1.7985,-1.84,-1.8674,-1.8758,-1.8875,-1.9075,-1.9075,-1.9198,-1.9911,-2.1076,-2.2315,-2.2953,-2.3319,-2.3477,-2.3477,-2.3314,-2.3153,-2.3565,-2.3754,-2.3717,-2.3306,-2.2825,-2.242,-2.242,-2.2309,-2.2197,-2.2197,-2.2197,-2.2197,-2.2197,-2.2197,-2.2321,-2.2555,-2.2567,-2.2555,-2.2775,-2.2775,-2.2726,-2.2726,-2.2739,-2.269,-2.269,-2.2969,-2.3198,-2.3378,-2.3509,-2.3688,-2.3878,-2.4054,-2.4112,-2.4112,-2.4112,-2.4112,-2.4112,-2.4112,-2.4112,-2.4112,-2.4112,-2.4243,0.0721,-0.0135,-0.1051,-0.219,-0.3164,-0.4062,0.0,-0.5229,-0.5425,-0.555,-0.5617,-0.5749,-0.6145,-0.5877,-0.576,0.0,-0.6294,-0.647,-0.7147,0.0,0.0,0.0,0.0,0.0,0.0,0.0,0.0,0.0,0.0,0.0,0.0,-1.3719,-1.3586,-1.3489,-1.3661,-1.3589,-1.3483,-1.5944,-1.7172,-1.7253,-1.9134,-2.0108,-2.0186,-1.9715,-1.939,-1.918,0.0,0.0,0.0,-1.7784,-1.7708,-1.7539,-1.7608,-1.8008,-1.8482,-1.8607,-1.8875,-1.9075,-1.9075,-1.9075,-1.9208,-1.9649,-2.0355,-2.1187,-2.1678,-2.2433,-2.3078,-2.3078,-2.3078,-2.3203,-2.3779,-2.3679,-2.3306,-2.3084,-2.2665,-2.2359,-2.2359,-2.2309,-2.2247,-2.2247,-2.2247,-2.2247,-2.2247,-2.2247,-2.2309,-2.2629,-2.269,-2.28,-2.3078,-2.3078,-2.3078,-2.3078,-2.303,-2.2982,-2.2982,-2.321,-2.3437,-2.3569,-2.3688,-2.3806,-2.3936,-2.4054,-2.4112,-2.4112,-2.4112,-2.4112,-2.4112,-2.4112,-2.4112,-2.4112,-2.4112,-2.4112,0.1401,0.0342,-0.0844,-0.195,-0.3134,-0.4286,0.0,-0.5296,-0.5425,-0.555,-0.5617,-0.5749,-0.6145,-0.621,-0.6402,-0.7056,-0.683,-0.7212,-0.9004,0.0,0.0,0.0,0.0,0.0,0.0,0.0,0.0,0.0,0.0,0.0,0.0,-1.3272,-1.3215,-1.3461,-1.3458,-1.3483,-1.3652,-1.5944,-1.7001,-1.7001,-1.8736,-1.9715,-1.9863,-1.946,-1.939,0.0,0.0,0.0,0.0,-1.7905,-1.7708,-1.7539,-1.7872,-1.8212,-1.8549,-1.8942,-1.9075,-1.9075,-1.9075,-1.9075,-1.9075,-1.9131,-2.0031,-2.1123,-2.1123,-2.2063,-2.3078,-2.3078,-2.3078,-2.3203,-2.358,-2.3207,-2.2764,-2.3152,-2.2684,-2.2197,-2.2197,-2.2309,-2.242,-2.242,-2.242,-2.242,-2.242,-2.2309,-2.2309,-2.2629,-2.269,-2.28,-2.3078,-2.3078,-2.3078,-2.3078,-2.3378,-2.3569,-2.3569,-2.3878,-2.3936,-2.3628,-2.3936,-2.3936,-2.3628,-2.3936,-2.4112,-2.4112,-2.4112,-2.4112,-2.4112,-2.4112,-2.4112,-2.4112,-2.4112,-2.4112,0.0918,0.0067,-0.0891,-0.1408,-0.2842,-0.4167,-0.4638,-0.5225,-0.576,-0.5818,-0.5822,-0.5885,-0.6145,-0.6408,-0.6843,-0.772,0.0,0.0,0.0,0.0,0.0,0.0,0.0,0.0,0.0,0.0,0.0,0.0,0.0,0.0,0.0,0.0,-1.3203,-1.3454,-1.3452,-1.3483,-1.3737,-1.5854,-1.7001,-1.7001,-1.8886,-1.9863,-1.9863,-1.9636,0.0,0.0,0.0,0.0,0.0,-1.7784,-1.7849,-1.7872,-1.794,-1.8347,-1.8942,-1.9065,-1.9075,-1.9075,-1.9075,-1.9075,-1.9075,-1.9075,-1.9715,-2.0484,-2.0933,-2.2075,-2.3078,-2.3078,-2.3427,-2.3616,-2.3219,-2.3207,-2.3119,-2.2724,-2.243,-2.2197,-2.2197,-2.2309,-2.2468,-2.2781,-2.28,-2.2837,-2.3008,-2.296,-2.2896,-2.3271,-2.333,-2.345,-2.3747,-2.3806,-2.3806,-2.3806,-2.3878,-2.3865,-2.3628,-2.3936,-2.4054,-2.3936,-2.4054,-2.4054,-2.3936,-2.4054,-2.4112,-2.4112,-2.4112,-2.4112,-2.4112,-2.4112,-2.4112,-2.4112,-2.4112,-2.4112,0.0,-0.0199,-0.1082,-0.1739,-0.2944,-0.4048,-0.4648,-0.5261,-0.5756,-0.5954,-0.602,-0.6086,-0.6214,-0.6416,-0.691,-0.7914,0.0,0.0,0.0,0.0,0.0,0.0,0.0,0.0,0.0,0.0,0.0,0.0,0.0,0.0,0.0,0.0,-1.3138,-1.3479,-1.3395,-1.373,-1.4314,-1.6026,-1.709,-1.7415,-1.8966,-1.9696,-1.9706,-1.9548,0.0,0.0,0.0,0.0,0.0,-1.7777,-1.7925,-1.8232,-1.8076,-1.8472,-1.9075,-1.9075,-1.9075,-1.9075,-1.9075,-1.9075,-1.9075,-1.9075,-1.9518,-2.0291,-2.1175,-2.2249,-2.3078,-2.3078,-2.3389,-2.3528,-2.2947,-2.2985,-2.3033,-2.2444,-2.2247,-2.2197,-2.2197,-2.2578,-2.3009,-2.3225,-2.3554,-2.3741,-2.3742,-2.3542,-2.3498,-2.3595,-2.3628,-2.3747,-2.4054,-2.4112,-2.4112,-2.4112,-2.4112,-2.3995,-2.3806,-2.3995,-2.4112,-2.4112,-2.4112,-2.4112,-2.4112,-2.4112,-2.4112,-2.4112,-2.4112,-2.4112,-2.4112,-2.4112,-2.4112,-2.4112,-2.4112,-2.4054,0.0,-0.0605,-0.1353,-0.2496,-0.3283,-0.4051,-0.5052,-0.5389,0.0,-0.6083,-0.6214,-0.6284,-0.637,-0.6436,-0.6772,-0.7669,0.0,0.0,0.0,0.0,0.0,0.0,0.0,0.0,0.0,0.0,0.0,0.0,0.0,0.0,0.0,0.0,-1.2966,-1.3392,-1.3398,-1.4062,-1.5394,-1.6288,-1.7107,-1.7997,-1.8895,-1.9301,-1.9301,-1.9301,0.0,0.0,0.0,0.0,0.0,-1.7862,-1.7971,-1.8643,-1.8252,-1.8504,-1.9168,-1.9168,-1.9147,-1.9116,-1.9116,-1.9096,-1.9075,-1.9075,-1.9518,-2.0355,-2.1667,-2.2494,-2.3065,-2.3078,-2.3078,-2.3017,-2.28,-2.269,-2.2629,-2.2259,-2.2221,-2.2246,-2.2246,-2.3082,-2.3841,-2.3891,-2.4507,-2.49,-2.4391,-2.4128,-2.39,-2.3646,-2.3628,-2.3747,-2.4054,-2.4112,-2.4112,-2.4112,-2.4112,-2.4112,-2.4112,-2.4112,-2.4112,-2.4112,-2.4112,-2.4112,-2.4112,-2.4112,-2.4112,-2.4112,-2.4112,-2.4112,-2.4112,-2.4112,-2.4112,-2.4112,-2.4112,-2.4008,-0.2412,0.0,-0.0875,-0.1691,-0.2827,-0.3956,0.0,-0.5579,-0.6222,-0.635,0.0,-0.6394,-0.6603,-0.6691,-0.7043,0.0,0.0,0.0,0.0,0.0,0.0,0.0,0.0,0.0,0.0,0.0,0.0,0.0,0.0,0.0,0.0,0.0,-1.3052,-1.3143,-1.3483,-1.423,-1.5394,-1.6288,-1.7107,-1.7997,-1.8895,-1.9301,-1.9301,-1.9301,0.0,0.0,0.0,0.0,-1.8889,-1.8388,-1.855,-1.9121,-1.9023,-1.9271,-1.9626,-1.9626,-1.9554,-1.9397,-1.9397,-1.9297,-1.9075,-1.9075,-1.9518,-2.0226,-2.1049,-2.1803,-2.2433,-2.2944,-2.3017,-2.2909,-2.2739,-2.2616,-2.242,-2.2247,-2.2498,-2.2799,-2.2799,-2.3622,-2.4437,-2.4764,-2.4772,-2.4867,-2.5038,-2.4506,-2.4092,-2.4008,-2.3995,-2.3995,-2.4112,-2.4112,-2.4112,-2.4112,-2.4008,-2.3949,-2.3949,-2.4067,-2.4112,-2.4112,-2.4112,-2.4112,-2.4112,-2.4112,-2.4112,-2.4112,-2.4112,-2.4112,-2.4112,-2.4112,-2.4067,-2.3949,-2.3949,-2.3819,-0.3149,-0.2502,-0.1982,-0.2935,-0.3617,-0.4365,-0.5315,-0.587,0.0,0.0,0.0,-0.6477,-0.666,-0.6894,0.0,0.0,0.0,0.0,0.0,0.0,0.0,0.0,0.0,0.0,0.0,0.0,0.0,0.0,0.0,0.0,0.0,0.0,-1.2966,-1.3137,-1.3483,-1.423,-1.5394,-1.5884,-1.678,-1.7997,-1.8487,-1.8895,-1.9301,-1.9301,0.0,0.0,0.0,0.0,-1.9572,-1.9014,-1.9134,-1.9541,-1.9141,-1.9328,-1.9775,-1.9574,-1.9545,-1.9626,-1.9424,-1.9196,-1.8942,-1.8942,-1.9264,-1.9781,-2.042,-2.0858,-2.129,-2.2641,-2.2969,-2.2848,-2.2616,-2.2482,-2.2359,-2.2247,-2.2414,-2.269,-2.2931,-2.3753,-2.4607,-2.5244,-2.5317,-2.5369,-2.5484,-2.4957,-2.4426,-2.4151,-2.4112,-2.4112,-2.4112,-2.4067,-2.4008,-2.4008,-2.3949,-2.3891,-2.376,-2.3878,-2.3949,-2.3878,-2.3865,-2.3936,-2.3995,-2.4008,-2.4067,-2.4112,-2.4112,-2.4112,-2.4112,-2.4112,-2.4067,-2.4008,-2.3949,-2.376,-0.3634,-0.3712,-0.3992,-0.4861,-0.487,-0.5017,-0.6238,0.0,0.0,0.0,0.0,0.0,0.0,-0.7168,0.0,0.0,0.0,0.0,0.0,0.0,0.0,0.0,0.0,0.0,0.0,0.0,0.0,0.0,0.0,0.0,0.0,0.0,0.0,-1.3052,-1.3646,-1.4398,-1.5228,-1.5477,-1.637,-1.7997,-1.8158,-1.8567,-1.9301,-1.9301,0.0,0.0,0.0,0.0,-2.0226,-1.9516,-1.9535,-1.9932,-1.9141,-1.9236,-1.9862,-1.9433,-1.9463,-1.9725,-1.9224,-1.893,-1.8741,-1.8741,-1.8875,-1.9198,-1.9846,-1.9977,-2.0161,-2.2013,-2.2592,-2.2653,-2.2482,-2.2359,-2.2359,-2.2309,-2.232,-2.2488,-2.2998,-2.3818,-2.4648,-2.5385,-2.5739,-2.5859,-2.5709,-2.521,-2.4674,-2.4191,-2.4112,-2.4112,-2.4112,-2.4008,-2.3949,-2.3949,-2.3891,-2.3832,-2.3628,-2.376,-2.376,-2.3628,-2.3628,-2.37,-2.3832,-2.3891,-2.3949,-2.4054,-2.4112,-2.4112,-2.4112,-2.4112,-2.4112,-2.4054,-2.3949,-2.376,-0.5705,-0.5996,-0.6124,-0.5106,-0.5271,-0.5877,-0.6552,0.0,0.0,0.0,0.0,0.0,0.0,0.0,0.0,0.0,0.0,0.0,0.0,0.0,0.0,0.0,0.0,0.0,0.0,0.0,0.0,0.0,0.0,0.0,0.0,0.0,0.0,-1.279,-1.43,-1.4901,-1.4334,-1.5801,-1.7025,-1.7997,-1.8727,-1.9143,-1.9301,-1.9301,-1.9301,0.0,0.0,-1.9456,-1.9885,-1.9278,-1.9589,-2.042,-1.9912,-1.998,-2.0389,-1.9958,-1.9698,-1.9561,-1.8873,-1.861,-1.8549,-1.8549,-1.8674,-1.8998,-1.9649,-1.9835,-1.9966,-2.0719,-2.1313,-2.1776,-2.2285,-2.2309,-2.2321,-2.2555,-2.2947,-2.3291,-2.3691,-2.452,-2.5192,-2.5346,-2.5239,-2.5136,-2.5118,-2.4622,-2.4217,-2.4125,-2.4112,-2.4112,-2.4112,-2.4054,-2.4054,-2.4054,-2.3949,-2.3891,-2.3832,-2.37,-2.3628,-2.3628,-2.3628,-2.3628,-2.3628,-2.3819,-2.3891,-2.3949,-2.4067,-2.4112,-2.4112,-2.4112,-2.4067,-2.3949,-2.3891,-2.376,-0.6313,-0.6732,-0.7103,-0.6451,-0.6545,-0.6869,-0.7364,0.0,0.0,0.0,0.0,0.0,0.0,0.0,0.0,0.0,0.0,0.0,0.0,0.0,0.0,0.0,0.0,0.0,0.0,0.0,0.0,0.0,0.0,0.0,0.0,0.0,0.0,0.0,-1.4468,-1.4985,-1.4088,-1.6288,-1.735,-1.735,-1.8158,-1.8816,-1.9301,-1.9301,-1.9381,-1.9608,0.0,-1.9793,-1.988,-1.971,-1.9727,-1.9834,-1.9394,-1.9492,-1.9853,-1.9648,-1.938,-1.9029,-1.8695,-1.8468,-1.8405,-1.8405,-1.8482,-1.8684,-1.8998,-1.9065,-1.9121,-1.9759,-2.0333,-2.0858,-2.1123,-2.1135,-2.1262,-2.1963,-2.2255,-2.2696,-2.3704,-2.452,-2.5192,-2.5627,-2.5421,-2.5234,-2.5432,-2.47,-2.4112,-2.4112,-2.4112,-2.4112,-2.4112,-2.4067,-2.4008,-2.4008,-2.3949,-2.3832,-2.376,-2.376,-2.37,-2.3628,-2.3688,-2.376,-2.376,-2.3936,-2.4008,-2.4008,-2.4054,-2.4112,-2.4112,-2.4112,-2.4054,-2.4008,-2.3949,-2.376,-0.6664,-0.7113,-0.7578,-0.7761,-0.7699,-0.7698,-0.8309,-0.8313,0.0,0.0,0.0,0.0,0.0,0.0,0.0,0.0,0.0,0.0,0.0,0.0,0.0,0.0,0.0,0.0,0.0,0.0,0.0,0.0,0.0,0.0,0.0,0.0,0.0,0.0,-1.4384,-1.4977,-1.4419,-1.678,-1.7594,-1.6698,-1.7755,-1.8647,-1.9301,-1.9381,-1.9627,-1.9932,-2.0149,-2.0148,-1.9893,-1.991,-1.9703,-1.9248,-1.8809,-1.8848,-1.9131,-1.9131,-1.8867,-1.8486,-1.8486,-1.835,-1.8212,-1.8212,-1.8337,-1.8482,-1.8482,-1.8405,-1.8405,-1.8921,-1.9431,-1.9824,-2.0031,-2.0096,-2.0355,-2.1227,-2.1416,-2.1785,-2.3095,-2.3788,-2.4452,-2.5204,-2.509,-2.4988,-2.5322,-2.464,-2.4112,-2.4067,-2.4054,-2.4112,-2.4112,-2.4008,-2.3949,-2.3949,-2.3949,-2.3878,-2.3747,-2.3878,-2.3891,-2.3747,-2.376,-2.3832,-2.3832,-2.3949,-2.4067,-2.4067,-2.4054,-2.4112,-2.4112,-2.4112,-2.4112,-2.4112,-2.4008,-2.3832,-0.7355,-0.7623,-0.7825,-0.8159,-0.8017,0.0,-0.9104,-0.8878,0.0,-0.9473,0.0,0.0,0.0,0.0,0.0,0.0,0.0,0.0,0.0,0.0,0.0,0.0,0.0,0.0,0.0,0.0,0.0,0.0,0.0,0.0,0.0,0.0,0.0,0.0,0.0,-1.4963,-1.5311,-1.7107,-1.7594,-1.6698,-1.8399,-1.9222,-1.9301,-1.9706,-1.9863,-1.9923,-2.0127,-2.0082,-1.9853,-1.9278,-1.917,-1.9248,-1.8809,-1.8652,-1.8682,-1.8682,-1.8418,-1.8057,-1.8057,-1.8037,-1.8008,-1.8008,-1.8144,-1.8337,-1.8337,-1.8337,-1.8337,-1.8337,-1.8269,-1.8462,-1.977,-2.0096,-2.0215,-2.0771,-2.0887,-2.1026,-2.1651,-2.2126,-2.2595,-2.296,-2.3381,-2.3692,-2.3978,-2.406,-2.4067,-2.3949,-2.4008,-2.4112,-2.4112,-2.4112,-2.4112,-2.4112,-2.4112,-2.4054,-2.4054,-2.4054,-2.4054,-2.4054,-2.3806,-2.3628,-2.3628,-2.3819,-2.3891,-2.3891,-2.4067,-2.4112,-2.4112,-2.4112,-2.4112,-2.4112,-2.4112,-2.4008,-0.7626,-0.7947,-0.8273,-0.828,-0.8349,0.0,0.0,-0.9374,-0.9593,-1.0223,-1.0467,0.0,0.0,0.0,0.0,0.0,0.0,0.0,0.0,0.0,0.0,0.0,0.0,0.0,0.0,0.0,0.0,0.0,0.0,0.0,0.0,0.0,0.0,0.0,0.0,-1.6034,-1.6214,-1.7432,-1.7836,-1.7513,-1.8727,-1.9301,-1.9301,-1.946,-1.9565,-1.9553,-1.9829,-1.9683,-1.9092,-1.9143,-1.8874,-1.8477,-1.8311,-1.8252,-1.8252,-1.8252,-1.8144,-1.8008,-1.8008,-1.8008,-1.8008,-1.8008,-1.8076,-1.8144,-1.8144,-1.8144,-1.8144,-1.8144,-1.8076,-1.8144,-1.8664,-1.8798,-1.9054,-1.9987,-2.0182,-2.0518,-2.1748,-2.2215,-2.2509,-2.291,-2.3235,-2.3554,-2.3616,-2.3739,-2.3747,-2.37,-2.3878,-2.4008,-2.4008,-2.4067,-2.4112,-2.4112,-2.4112,-2.4112,-2.4112,-2.4112,-2.4112,-2.4112,-2.3995,-2.3936,-2.3936,-2.3995,-2.4008,-2.4008,-2.4054,-2.4112,-2.4112,-2.4112,-2.4112,-2.4112,-2.4112,-2.4008,-0.803,-0.8309,-0.8703,-0.8762,0.0,0.0,-0.99,-1.0135,-1.0392,-1.1227,0.0,0.0,0.0,0.0,0.0,0.0,0.0,0.0,0.0,0.0,0.0,0.0,0.0,0.0,0.0,0.0,0.0,0.0,0.0,0.0,0.0,0.0,0.0,0.0,0.0,0.0,-1.7107,-1.7565,-1.7985,-1.8232,-1.8668,-1.9063,-1.9292,-1.9192,-1.9228,-1.9468,-1.9775,-1.9515,-1.8924,-1.9143,-1.8745,-1.8008,-1.8008,-1.8008,-1.8008,-1.8008,-1.8008,-1.8008,-1.8008,-1.8008,-1.8008,-1.8008,-1.8008,-1.8008,-1.8008,-1.8008,-1.8008,-1.8076,-1.8076,-1.8076,-1.8144,-1.8144,-1.8337,-1.9233,-1.9486,-1.9834,-2.1005,-2.1459,-2.1695,-2.2143,-2.2628,-2.3038,-2.3144,-2.3376,-2.3569,-2.3509,-2.37,-2.3832,-2.3891,-2.4008,-2.4067,-2.4112,-2.4112,-2.4112,-2.4112,-2.4112,-2.4112,-2.4112,-2.4112,-2.4112,-2.4112,-2.4067,-2.4067,-2.4112,-2.4112,-2.4112,-2.4112,-2.4112,-2.4112,-2.4112,-2.4112,-2.4008,-0.8657,-0.8708,-0.8961,0.0,0.0,0.0,-1.1335,-1.1082,-1.1042,0.0,0.0,0.0,0.0,0.0,0.0,0.0,0.0,0.0,0.0,0.0,0.0,0.0,0.0,0.0,0.0,0.0,0.0,0.0,0.0,0.0,0.0,0.0,0.0,0.0,0.0,0.0,-1.7989,-1.7629,-1.7838,-1.8705,-1.8311,-1.8531,-1.9265,-1.8911,-1.9132,-1.9883,-1.9892,-1.9738,-1.9481,-1.9283,-1.8745,-1.8008,-1.8008,-1.8008,-1.8008,-1.8008,-1.8008,-1.8008,-1.8008,-1.8008,-1.8008,-1.8008,-1.8008,-1.8018,-1.8018,-1.8018,-1.8086,-1.8279,-1.8279,-1.8337,-1.8482,-1.8414,-1.8405,-1.8741,-1.8808,-1.8875,-1.9075,-1.9505,-1.9876,-2.0238,-2.1221,-2.2051,-2.2333,-2.3053,-2.3569,-2.3403,-2.3509,-2.3688,-2.3891,-2.3891,-2.3949,-2.4112,-2.4112,-2.4112,-2.4112,-2.4112,-2.4112,-2.4112,-2.4112,-2.4112,-2.4112,-2.3949,-2.3949,-2.4112,-2.4112,-2.4112,-2.4112,-2.4112,-2.4112,-2.4112,-2.4112,-2.4008,-0.8776,-0.9093,0.0,-0.9799,0.0,0.0,0.0,-1.1443,0.0,0.0,0.0,0.0,0.0,0.0,0.0,0.0,0.0,0.0,0.0,0.0,0.0,0.0,0.0,0.0,0.0,0.0,0.0,0.0,0.0,0.0,0.0,0.0,0.0,0.0,0.0,0.0,-1.8078,-1.7345,-1.7445,-1.8293,-1.788,-1.7963,-1.8467,-1.8303,-1.8386,-1.8653,-1.8877,-1.8794,-1.8478,-1.8409,-1.8193,-1.8008,-1.8008,-1.8008,-1.8008,-1.8008,-1.8008,-1.8008,-1.8008,-1.8008,-1.8008,-1.8008,-1.8213,-1.8447,-1.8447,-1.8447,-1.8447,-1.8646,-1.8497,-1.8337,-1.8607,-1.8674,-1.8674,-1.8808,-1.8808,-1.8967,-1.9489,-1.9406,-1.9593,-2.051,-2.1025,-2.1539,-2.2075,-2.275,-2.3258,-2.3198,-2.333,-2.3582,-2.3832,-2.4008,-2.4067,-2.4112,-2.4112,-2.4112,-2.4112,-2.4112,-2.4112,-2.4112,-2.4008,-2.4008,-2.4112,-2.4067,-2.4067,-2.4112,-2.4112,-2.4112,-2.4112,-2.4112,-2.4112,-2.4112,-2.4112,-2.4054,-1.039,-1.0538,0.0,-1.1134,-1.1395,0.0,0.0,0.0,0.0,0.0,0.0,0.0,0.0,0.0,0.0,0.0,0.0,0.0,0.0,0.0,0.0,0.0,0.0,0.0,0.0,0.0,0.0,0.0,0.0,0.0,0.0,0.0,0.0,0.0,0.0,0.0,-1.8119,-1.7427,-1.7347,-1.7871,-1.7458,-1.7394,-1.7642,-1.7786,-1.8018,-1.828,-1.8457,-1.8449,-1.8212,-1.8212,-1.8144,-1.8008,-1.8008,-1.8008,-1.8008,-1.8008,-1.8008,-1.8008,-1.8008,-1.794,-1.7862,-1.7862,-1.8027,-1.823,-1.823,-1.8309,-1.8389,-1.8656,-1.8536,-1.8472,-1.8808,-1.8942,-1.8942,-1.8942,-1.8942,-1.9014,-1.9427,-1.9328,-1.9414,-2.0356,-2.0826,-2.1313,-2.1978,-2.2689,-2.3078,-2.3078,-2.3271,-2.3463,-2.3713,-2.3891,-2.4008,-2.4008,-2.4054,-2.4112,-2.4112,-2.4112,-2.4112,-2.4112,-2.4008,-2.4008,-2.4112,-2.4067,-2.4008,-2.4008,-2.4008,-2.4008,-2.4008,-2.4008,-2.4067,-2.4112,-2.4112,-2.4112,-1.2764,0.0,0.0,-1.312,-1.2859,0.0,0.0,0.0,0.0,0.0,0.0,0.0,0.0,0.0,0.0,0.0,0.0,0.0,0.0,0.0,0.0,0.0,0.0,0.0,0.0,0.0,0.0,0.0,0.0,0.0,0.0,0.0,0.0,0.0,0.0,0.0,-1.8009,-1.7633,-1.744,0.0,-1.7073,-1.6908,-1.6978,-1.7323,-1.7877,-1.8564,-1.8516,-1.8482,-1.8482,-1.8482,-1.8279,-1.8008,-1.8008,-1.8008,-1.8008,-1.8008,-1.8008,-1.8008,-1.8008,-1.7862,-1.7706,-1.7706,-1.7735,-1.7764,-1.7764,-1.792,-1.8135,-1.8474,-1.8512,-1.8617,-1.9008,-1.9075,-1.9075,-1.9075,-1.9075,-1.9075,-1.9075,-1.9142,-1.9396,-2.0042,-2.0741,-2.1376,-2.2051,-2.2689,-2.3078,-2.3078,-2.3271,-2.3403,-2.3403,-2.3713,-2.3891,-2.3891,-2.4008,-2.4112,-2.4112,-2.4112,-2.4112,-2.4112,-2.4112,-2.4112,-2.4112,-2.4008,-2.3891,-2.3891,-2.3891,-2.3891,-2.3891,-2.3891,-2.3949,-2.4054,-2.4112,-2.4112,0.0,-1.3364,0.0,0.0,0.0,0.0,0.0,0.0,0.0,0.0,0.0,0.0,0.0,0.0,0.0,0.0,0.0,0.0,0.0,0.0,0.0,0.0,0.0,0.0,0.0,0.0,0.0,0.0,0.0,0.0,0.0,0.0,0.0,0.0,0.0,-1.7165,-1.7165,-1.7073,-1.7037,0.0,-1.6945,-1.7047,-1.7392,-1.747,-1.7852,-1.8476,-1.8377,-1.8414,-1.8482,-1.8414,-1.8212,-1.8008,-1.8008,-1.8008,-1.8008,-1.8008,-1.8008,-1.8008,-1.8008,-1.794,-1.794,-1.794,-1.8154,-1.8426,-1.8426,-1.8426,-1.8576,-1.8934,-1.8753,-1.8617,-1.9008,-1.9075,-1.9075,-1.9075,-1.9075,-1.9075,-1.9075,-1.9518,-2.0096,-2.0741,-2.1428,-2.2113,-2.275,-2.3005,-2.3078,-2.3078,-2.3271,-2.3403,-2.3403,-2.3713,-2.3891,-2.3891,-2.4008,-2.4112,-2.4112,-2.4112,-2.4112,-2.4112,-2.4112,-2.4112,-2.4112,-2.4054,-2.4008,-2.3891,-2.3891,-2.3819,-2.3628,-2.3819,-2.3891,-2.3949,-2.4067,-2.4112,0.0,0.0,0.0,0.0,0.0,0.0,0.0,0.0,0.0,0.0,0.0,0.0,0.0,0.0,0.0,0.0,0.0,0.0,0.0,0.0,0.0,0.0,0.0,0.0,0.0,0.0,0.0,0.0,0.0,0.0,0.0,0.0,0.0,0.0,-1.6908,-1.6908,-1.6908,-1.6908,-1.6908,-1.6908,-1.6908,-1.7107,-1.7588,-1.7588,-1.793,-1.8482,-1.8279,-1.8279,-1.8414,-1.8337,-1.8212,-1.8008,-1.8008,-1.8008,-1.8008,-1.8008,-1.8008,-1.8008,-1.8008,-1.794,-1.7862,-1.7803,-1.8027,-1.8261,-1.8182,-1.833,-1.8606,-1.8891,-1.8856,-1.8674,-1.9008,-1.9075,-1.9075,-1.9075,-1.9075,-1.9075,-1.9075,-1.9396,-1.9911,-2.0933,-2.1365,-2.1928,-2.2944,-2.3078,-2.3078,-2.3078,-2.3198,-2.3271,-2.3271,-2.3522,-2.3713,-2.376,-2.3891,-2.4008,-2.4112,-2.4112,-2.4112,-2.4112,-2.4112,-2.4112,-2.4112,-2.4067,-2.3949,-2.376,-2.376,-2.3688,-2.3628,-2.37,-2.3819,-2.4008,-2.4054,-2.4112,0.0,0.0,0.0,0.0,0.0,0.0,0.0,0.0,0.0,0.0,0.0,0.0,0.0,0.0,0.0,0.0,0.0,0.0,0.0,0.0,0.0,0.0,0.0,0.0,0.0,0.0,0.0,0.0,0.0,0.0,0.0,0.0,-1.6908,-1.6908,-1.6908,-1.6908,-1.6908,-1.6908,-1.6908,-1.6908,-1.6908,-1.7176,-1.7647,-1.7647,-1.7998,-1.8482,-1.8212,-1.8144,-1.8269,-1.8269,-1.8212,-1.8008,-1.8008,-1.8008,-1.8008,-1.8008,-1.8008,-1.8008,-1.794,-1.7852,-1.7706,-1.7529,-1.7735,-1.794,-1.7784,-1.8124,-1.8549,-1.8741,-1.8808,-1.8875,-1.9065,-1.9075,-1.9075,-1.9075,-1.9075,-1.9075,-1.9075,-1.9198,-1.9649,-2.0869,-2.1313,-2.1815,-2.2884,-2.3078,-2.3078,-2.3078,-2.3078,-2.3078,-2.3078,-2.3271,-2.3463,-2.3569,-2.376,-2.3949,-2.4112,-2.4112,-2.4112,-2.4112,-2.4112,-2.4112,-2.4112,-2.4008,-2.3819,-2.3628,-2.3628,-2.3569,-2.3569,-2.3628,-2.3806,-2.4054,-2.4112,-2.4112,0.0,0.0,0.0,0.0,0.0,0.0,0.0,0.0,0.0,0.0,0.0,0.0,0.0,0.0,0.0,0.0,0.0,0.0,0.0,0.0,0.0,0.0,0.0,0.0,0.0,0.0,0.0,0.0,0.0,0.0,0.0,-1.6908,-1.6908,-1.6908,-1.6908,-1.6908,-1.6908,-1.6908,-1.6908,-1.6908,-1.6908,-1.7116,-1.7529,-1.7529,-1.7872,-1.8482,-1.8482,-1.8405,-1.8269,-1.8269,-1.8212,-1.8008,-1.8008,-1.8008,-1.8008,-1.8008,-1.8008,-1.8008,-1.7784,-1.7706,-1.7706,-1.7529,-1.7735,-1.8008,-1.794,-1.8212,-1.8549,-1.8741,-1.8808,-1.8875,-1.9065,-1.9075,-1.9075,-1.9075,-1.9075,-1.9075,-1.9075,-1.9584,-2.0161,-2.0933,-2.2075,-2.2884,-2.3078,-2.3078,-2.3078,-2.3078,-2.3078,-2.3078,-2.3078,-2.3271,-2.3463,-2.3569,-2.376,-2.3949,-2.4112,-2.4112,-2.4112,-2.4112,-2.4112,-2.4112,-2.4112,-2.4054,-2.3936,-2.3628,-2.3628,-2.3509,-2.3463,-2.37,-2.3891,-2.3949,-2.4067,-2.4112,-1.2354,0.0,0.0,0.0,0.0,0.0,0.0,0.0,0.0,0.0,0.0,0.0,0.0,0.0,0.0,0.0,0.0,0.0,0.0,0.0,0.0,0.0,0.0,0.0,0.0,0.0,0.0,0.0,0.0,0.0,-1.6908,-1.6908,-1.6908,-1.6908,-1.6908,-1.6908,-1.6908,-1.6908,-1.6968,-1.7038,-1.7185,-1.7392,-1.7588,-1.7735,-1.794,-1.8212,-1.8212,-1.8212,-1.8144,-1.8144,-1.8076,-1.8008,-1.8008,-1.8008,-1.8008,-1.8008,-1.8008,-1.794,-1.7784,-1.7706,-1.7638,-1.7382,-1.7588,-1.7862,-1.794,-1.8212,-1.8549,-1.8875,-1.8942,-1.9008,-1.9075,-1.9075,-1.9075,-1.9075,-1.9396,-1.9649,-1.9649,-1.9584,-1.9846,-2.0869,-2.2199,-2.3078,-2.3078,-2.3078,-2.3078,-2.3078,-2.3078,-2.3078,-2.3078,-2.3198,-2.333,-2.345,-2.3582,-2.3641,-2.3819,-2.3936,-2.4008,-2.4008,-2.4067,-2.4112,-2.4112,-2.4008,-2.3878,-2.3628,-2.3628,-2.3509,-2.3403,-2.3321,-2.3522,-2.3891,-2.3715,-2.3799,0.0,0.0,0.0,0.0,0.0,0.0,0.0,0.0,0.0,0.0,0.0,0.0,0.0,0.0,0.0,0.0,0.0,0.0,0.0,0.0,0.0,0.0,0.0,0.0,0.0,0.0,0.0,0.0,0.0,0.0,-1.683,-1.683,-1.683,-1.683,-1.6908,-1.6908,-1.6908,-1.6908,-1.6968,-1.7166,-1.7323,-1.752,-1.7706,-1.7862,-1.794,-1.8008,-1.8008,-1.8008,-1.8008,-1.8008,-1.8008,-1.8008,-1.8008,-1.8008,-1.8008,-1.8008,-1.794,-1.7862,-1.7716,-1.7647,-1.7638,-1.7373,-1.7579,-1.792,-1.8076,-1.8347,-1.8751,-1.9008,-1.9075,-1.9075,-1.9075,-1.9075,-1.9131,-1.933,-1.9715,-2.0172,-2.0291,-2.0096,-2.015,-2.1175,-2.231,-2.3078,-2.3078,-2.3078,-2.3078,-2.3078,-2.3078,-2.3078,-2.3078,-2.3078,-2.3198,-2.3403,-2.3403,-2.3463,-2.3569,-2.376,-2.3819,-2.3819,-2.3949,-2.4067,-2.4067,-2.4008,-2.3819,-2.3628,-2.3628,-2.3509,-2.3403,-2.3147,-2.3277,-2.3878,-2.354,-2.3623,0.0,0.0,0.0,0.0,0.0,0.0,0.0,0.0,0.0,0.0,0.0,0.0,0.0,0.0,0.0,0.0,0.0,0.0,0.0,0.0,0.0,0.0,0.0,0.0,0.0,0.0,0.0,0.0,0.0,0.0,-1.6603,-1.6603,-1.6603,-1.6603,-1.683,-1.6908,-1.6908,-1.6908,-1.6968,-1.7166,-1.7235,-1.7373,-1.7706,-1.7706,-1.7784,-1.8008,-1.8008,-1.8008,-1.8008,-1.8008,-1.8008,-1.8008,-1.8008,-1.8008,-1.8008,-1.8008,-1.7862,-1.7706,-1.7529,-1.7588,-1.7706,-1.7529,-1.794,-1.8482,-1.8482,-1.8741,-1.9075,-1.9065,-1.9075,-1.9075,-1.9075,-1.9075,-1.9264,-1.9911,-2.0096,-2.0291,-2.0933,-2.1491,-2.1978,-2.2039,-2.2628,-2.3078,-2.3078,-2.3078,-2.3078,-2.3078,-2.3078,-2.3078,-2.3078,-2.3078,-2.3198,-2.3403,-2.3403,-2.3463,-2.3569,-2.3628,-2.3628,-2.3628,-2.3819,-2.3891,-2.3891,-2.4008,-2.3936,-2.3628,-2.3628,-2.3509,-2.3403,-2.3484,-2.3675,-2.3891,-2.3865,-2.3982,0.0,0.0,0.0,0.0,0.0,0.0,0.0,0.0,0.0,0.0,0.0,0.0,0.0,0.0,0.0,0.0,0.0,0.0,0.0,0.0,0.0,0.0,0.0,0.0,0.0,0.0,0.0,0.0,0.0,0.0,-1.6603,-1.6603,-1.6417,-1.6106,-1.6233,-1.6378,-1.6523,-1.6257,-1.6448,-1.7092,-1.6703,-1.6768,-1.7243,-1.7395,-1.7385,-1.7207,-1.749,-1.7764,-1.8008,-1.8008,-1.8008,-1.8008,-1.8008,-1.8008,-1.8008,-1.8008,-1.7862,-1.7706,-1.7529,-1.7588,-1.7706,-1.7529,-1.7813,-1.8212,-1.8414,-1.8617,-1.8741,-1.9008,-1.9075,-1.9075,-1.9075,-1.9075,-1.9396,-2.0484,-2.0741,-2.106,-2.2125,-2.2237,-2.2101,-2.2101,-2.2616,-2.3078,-2.3078,-2.3078,-2.3078,-2.3078,-2.3078,-2.3078,-2.3078,-2.3078,-2.3138,-2.3198,-2.321,-2.321,-2.3258,-2.339,-2.345,-2.345,-2.3628,-2.376,-2.3891,-2.3819,-2.3747,-2.3628,-2.3509,-2.339,-2.321,-2.301,-2.3153,-2.3569,-2.3328,-2.347,-1.113,0.0,0.0,0.0,0.0,0.0,0.0,0.0,0.0,0.0,0.0,0.0,0.0,0.0,0.0,0.0,0.0,0.0,0.0,0.0,0.0,0.0,0.0,0.0,0.0,0.0,0.0,0.0,0.0,0.0,-1.6405,-1.6219,-1.5963,-1.5637,-1.5704,-1.577,-1.5912,-1.564,-1.5882,-1.6459,-1.626,-1.6329,-1.6719,-1.7031,-1.7002,-1.6748,-1.7041,-1.7412,-1.7803,-1.7803,-1.7881,-1.8008,-1.8008,-1.8008,-1.8008,-1.8008,-1.7862,-1.7706,-1.7529,-1.7588,-1.7706,-1.7666,-1.7872,-1.8212,-1.8607,-1.8684,-1.8741,-1.9008,-1.9075,-1.9075,-1.9075,-1.9264,-1.9649,-2.0549,-2.1123,-2.169,-2.2567,-2.2555,-2.2433,-2.2433,-2.2811,-2.3078,-2.3078,-2.3078,-2.3078,-2.3078,-2.3078,-2.3078,-2.3078,-2.3078,-2.3078,-2.3078,-2.3078,-2.3078,-2.3078,-2.321,-2.3271,-2.3271,-2.345,-2.3628,-2.376,-2.3688,-2.3628,-2.3628,-2.345,-2.3271,-2.3078,-2.282,-2.2951,-2.339,-2.3186,-2.3399,0.0,0.0,0.0,0.0,0.0,0.0,0.0,0.0,0.0,0.0,0.0,0.0,0.0,0.0,0.0,0.0,0.0,0.0,0.0,0.0,0.0,0.0,0.0,0.0,0.0,0.0,0.0,0.0,0.0,-1.5613,-1.5941,-1.5441,-1.5171,-1.5171,-1.5163,-1.5154,-1.5163,-1.5154,-1.5283,-1.5477,-1.5808,-1.6045,-1.6154,-1.65,-1.6646,-1.6626,-1.6646,-1.6953,-1.7344,-1.7363,-1.7607,-1.7988,-1.7988,-1.7998,-1.8008,-1.8008,-1.7862,-1.7706,-1.7529,-1.7588,-1.7774,-1.794,-1.8212,-1.8617,-1.9008,-1.9075,-1.9075,-1.9075,-1.9075,-1.9075,-1.9075,-1.9584,-2.0096,-2.0107,-2.1101,-2.2113,-2.2113,-2.2616,-2.3078,-2.3078,-2.3078,-2.3078,-2.3078,-2.3078,-2.3078,-2.3078,-2.3078,-2.3078,-2.3078,-2.3078,-2.3078,-2.3078,-2.3078,-2.3078,-2.3078,-2.3078,-2.3078,-2.3078,-2.3271,-2.3463,-2.3569,-2.3569,-2.3569,-2.3569,-2.3463,-2.3271,-2.3078,-2.3078,-2.3198,-2.3403,-2.3509,-2.3747,-1.194,0.0,0.0,0.0,0.0,0.0,0.0,0.0,0.0,0.0,0.0,0.0,0.0,0.0,0.0,0.0,0.0,0.0,0.0,0.0,0.0,0.0,0.0,0.0,0.0,0.0,0.0,0.0,-1.5294,-1.5134,-1.52,-1.4711,-1.4447,-1.4574,-1.4293,-1.4338,-1.4746,-1.4471,-1.4604,-1.5195,-1.5017,-1.506,-1.5321,-1.5747,-1.5727,-1.552,-1.5879,-1.6143,-1.6278,-1.6714,-1.7168,-1.7559,-1.7559,-1.7744,-1.8008,-1.8008,-1.7862,-1.7706,-1.7529,-1.7803,-1.8134,-1.8008,-1.8405,-1.8942,-1.9075,-1.9075,-1.9075,-1.9075,-1.9075,-1.9075,-1.9075,-1.9264,-1.9649,-2.0613,-2.1123,-2.1628,-2.2628,-2.2944,-2.3078,-2.3078,-2.3078,-2.3078,-2.3078,-2.3078,-2.3078,-2.3078,-2.3078,-2.3078,-2.3078,-2.3078,-2.3078,-2.3078,-2.3078,-2.3078,-2.3078,-2.3078,-2.3078,-2.3078,-2.3271,-2.3403,-2.3463,-2.3463,-2.3463,-2.3463,-2.3271,-2.3138,-2.3078,-2.3078,-2.3138,-2.3198,-2.3198,-2.3318,0.0,0.0,0.0,0.0,0.0,0.0,0.0,0.0,0.0,0.0,0.0,0.0,0.0,0.0,0.0,0.0,0.0,0.0,0.0,0.0,0.0,0.0,0.0,0.0,0.0,0.0,0.0,0.0,-1.5373,-1.5016,-1.4693,-1.4247,-1.3977,-1.3977,-1.3761,-1.3805,-1.4145,-1.3935,-1.3995,-1.4399,-1.4357,-1.4478,-1.4793,-1.5087,-1.5188,-1.5107,-1.5346,-1.5451,-1.547,-1.5911,-1.649,-1.7109,-1.7109,-1.7373,-1.7725,-1.7482,-1.7512,-1.7715,-1.7398,-1.7667,-1.8098,-1.8152,-1.8482,-1.8875,-1.9065,-1.9075,-1.9075,-1.9075,-1.9075,-1.9075,-1.9075,-1.933,-1.9715,-2.0484,-2.1112,-2.1741,-2.2494,-2.2884,-2.3078,-2.3078,-2.3078,-2.3078,-2.3078,-2.3078,-2.3078,-2.3078,-2.3078,-2.3078,-2.3078,-2.3078,-2.3078,-2.3078,-2.3078,-2.3078,-2.3078,-2.3198,-2.321,-2.321,-2.339,-2.345,-2.345,-2.3463,-2.3403,-2.3403,-2.3198,-2.3078,-2.3078,-2.3078,-2.3138,-2.321,-2.3543,-2.3708,-1.4182,-1.3924,0.0,0.0,0.0,0.0,-1.3237,-1.3682,0.0,0.0,0.0,0.0,0.0,0.0,0.0,0.0,0.0,0.0,0.0,0.0,0.0,0.0,0.0,0.0,0.0,0.0,-1.6009,-1.607,-1.5652,-1.5054,-1.4325,-1.4022,-1.3744,-1.3511,-1.3511,-1.3511,-1.3511,-1.3511,-1.3511,-1.3511,-1.3821,-1.4121,-1.4469,-1.4597,-1.4843,-1.5156,-1.5029,-1.497,-1.497,-1.5098,-1.5747,-1.6597,-1.6597,-1.6924,-1.7266,-1.6747,-1.7027,-1.7611,-1.722,-1.735,-1.781,-1.8261,-1.8479,-1.8546,-1.8988,-1.9075,-1.9075,-1.9075,-1.9075,-1.9142,-1.9198,-1.9649,-2.0161,-2.0291,-2.1227,-2.2113,-2.2163,-2.2689,-2.3078,-2.3078,-2.3078,-2.3078,-2.3078,-2.3078,-2.3078,-2.3078,-2.3078,-2.3078,-2.3078,-2.3078,-2.3078,-2.3078,-2.3078,-2.3078,-2.3078,-2.3271,-2.3403,-2.3403,-2.3569,-2.3628,-2.3569,-2.345,-2.339,-2.3403,-2.3258,-2.3198,-2.3078,-2.3078,-2.3198,-2.339,-2.4118,-2.4509,-1.4277,-1.4473,-1.4631,-1.4014,0.0,0.0,0.0,-1.3312,0.0,0.0,0.0,0.0,0.0,0.0,0.0,0.0,0.0,0.0,0.0,0.0,0.0,0.0,0.0,0.0,0.0,0.0,-1.6587,-1.5931,-1.526,-1.4655,-1.4182,-1.4087,-1.3907,-1.3519,-1.3511,-1.3511,-1.3511,-1.3511,-1.3511,-1.3511,-1.37,-1.401,-1.4249,-1.4318,-1.4556,-1.4775,-1.4775,-1.4775,-1.4775,-1.497,-1.5384,-1.6017,-1.614,-1.6465,-1.6846,-1.6704,-1.6787,-1.6919,-1.6792,-1.7036,-1.7369,-1.7875,-1.8212,-1.8513,-1.8961,-1.9075,-1.9075,-1.9075,-1.9075,-1.9198,-1.9781,-1.9977,-2.0355,-2.1479,-2.1916,-2.2237,-2.2811,-2.3005,-2.3078,-2.3078,-2.3078,-2.3078,-2.3078,-2.3078,-2.3078,-2.3078,-2.3078,-2.3078,-2.3078,-2.3078,-2.3078,-2.3078,-2.3078,-2.3078,-2.3078,-2.3271,-2.3403,-2.3403,-2.37,-2.37,-2.3463,-2.3509,-2.345,-2.3138,-2.3767,-2.3767,-2.3078,-2.3078,-2.3138,-2.3198,-2.3813,-2.4079,0.0,0.0,-1.5276,-1.4898,0.0,0.0,0.0,0.0,0.0,0.0,0.0,0.0,0.0,0.0,0.0,0.0,0.0,0.0,0.0,0.0,0.0,0.0,0.0,0.0,0.0,0.0,-1.7327,-1.714,-1.6202,-1.5564,-1.5366,-1.4545,-1.4007,-1.381,-1.3613,-1.3511,-1.3511,-1.3511,-1.3511,-1.3511,-1.3761,-1.407,-1.4359,-1.4369,-1.4606,-1.4961,-1.4725,-1.4666,-1.4715,-1.4834,-1.5084,-1.5403,-1.5583,-1.5834,-1.6129,-1.5927,-1.6159,-1.6592,-1.6468,-1.6767,-1.7338,-1.7675,-1.8089,-1.8382,-1.8402,-1.8557,-1.884,-1.9454,-1.9584,-1.9781,-2.042,-2.0858,-2.129,-2.1916,-2.2359,-2.2689,-2.3005,-2.3078,-2.3078,-2.3078,-2.3078,-2.3078,-2.3078,-2.3078,-2.3078,-2.3078,-2.3078,-2.3078,-2.3078,-2.3078,-2.3078,-2.3078,-2.3078,-2.3078,-2.3078,-2.333,-2.3509,-2.3509,-2.3819,-2.3819,-2.3509,-2.3569,-2.3616,-2.3708,-2.4452,-2.4667,-2.4266,-2.4266,-2.4047,-2.3708,-2.4768,-2.5259,0.0,0.0,0.0,0.0,0.0,-1.5277,0.0,0.0,0.0,-1.4687,0.0,0.0,0.0,0.0,0.0,0.0,0.0,0.0,0.0,0.0,0.0,0.0,0.0,0.0,0.0,0.0,-1.777,-1.8253,-1.7242,-1.66,-1.6665,-1.5341,-1.454,-1.4345,-1.4031,-1.3726,-1.3511,-1.3468,-1.3425,-1.3525,-1.372,-1.4051,-1.4644,-1.4585,-1.4876,-1.5323,-1.502,-1.4902,-1.4824,-1.4883,-1.4951,-1.5088,-1.5156,-1.5358,-1.5546,-1.5212,-1.5664,-1.6317,-1.6188,-1.6536,-1.7092,-1.745,-1.7895,-1.8269,-1.8062,-1.8291,-1.885,-1.9965,-2.0291,-2.042,-2.1123,-2.1678,-2.2113,-2.2237,-2.2689,-2.3078,-2.3078,-2.3078,-2.3078,-2.3078,-2.3078,-2.3078,-2.3078,-2.3078,-2.3078,-2.3078,-2.3078,-2.3078,-2.3078,-2.3078,-2.3078,-2.3078,-2.3078,-2.3078,-2.3078,-2.3378,-2.3569,-2.3569,-2.3878,-2.3936,-2.3569,-2.3497,-2.3721,-2.4292,-2.5007,-2.5398,-2.5398,-2.5673,-2.5398,-2.4509,-2.5892,-2.651,0.0,0.0,0.0,0.0,-1.557,0.0,0.0,0.0,-1.4421,-1.3857,0.0,0.0,0.0,0.0,0.0,0.0,0.0,0.0,0.0,0.0,0.0,0.0,0.0,0.0,0.0,0.0,0.0,-1.7573,-1.6904,-1.6621,-1.6855,-1.6694,-1.6105,-1.5093,-1.5038,-1.4592,-1.369,-1.3255,-1.327,-1.358,-1.313,-1.3691,-1.5113,-1.4992,-1.5266,-1.5816,-1.6244,-1.6016,-1.5352,-1.5449,-1.5449,-1.5362,-1.5264,-1.5283,-1.542,-1.5566,-1.5702,-1.581,-1.6022,-1.6138,-1.6325,-1.6915,-1.7368,-1.7989,-1.894,-1.9269,-1.9536,-2.0669,-2.0996,-2.1123,-2.1803,-2.2051,-2.2237,-2.2884,-2.3065,-2.3078,-2.3078,-2.3078,-2.3078,-2.3078,-2.3078,-2.3078,-2.3078,-2.3078,-2.3078,-2.3078,-2.3078,-2.3078,-2.3078,-2.3078,-2.3078,-2.3078,-2.3078,-2.3078,-2.3078,-2.333,-2.3403,-2.3403,-2.3713,-2.3772,-2.3463,-2.3258,-2.3543,-2.4292,-2.5007,-2.5398,-2.5398,-2.6707,-2.6654,-2.5287,-2.6122,-2.651,0.0,0.0,0.0,0.0,0.0,0.0,0.0,0.0,-1.4993,0.0,0.0,0.0,0.0,0.0,0.0,0.0,0.0,0.0,0.0,0.0,0.0,0.0,0.0,0.0,0.0,0.0,0.0,0.0,0.0,-1.7378,-1.7492,-1.6621,-1.5913,-1.5506,-1.5034,-1.461,-1.4308,-1.3951,-1.3862,-1.4005,-1.4111,-1.4713,-1.5639,-1.5673,-1.6032,-1.6641,-1.6687,-1.6585,-1.6322,-1.6197,-1.614,-1.6151,-1.5652,-1.5313,-1.5196,-1.543,-1.5652,-1.5826,-1.5941,-1.6124,-1.6436,-1.7281,-1.7483,-1.7728,-1.9427,-1.9733,-1.9848,-2.1257,-2.1678,-2.1803,-2.2494,-2.2689,-2.275,-2.3005,-2.3078,-2.3078,-2.3078,-2.3078,-2.3078,-2.3078,-2.3078,-2.3078,-2.3078,-2.3078,-2.3078,-2.3078,-2.3078,-2.3078,-2.3078,-2.3078,-2.3078,-2.3078,-2.3078,-2.3078,-2.3078,-2.3271,-2.3403,-2.3403,-2.3522,-2.3522,-2.3403,-2.406,-2.461,-2.4951,-2.6094,-2.6707,-2.6692,-2.7306,-2.7291,-2.6692,-2.6982,-2.7137,-1.6163,0.0,0.0,0.0,0.0,0.0,0.0,0.0,0.0,0.0,0.0,0.0,0.0,0.0,0.0,0.0,0.0,0.0,0.0,0.0,0.0,0.0,0.0,0.0,0.0,0.0,0.0,0.0,0.0,0.0,-1.8109,-1.694,-1.6156,-1.6045,-1.5322,-1.488,-1.469,-1.4257,-1.4138,-1.4225,-1.4583,-1.513,-1.5796,-1.5994,-1.6479,-1.7115,-1.7049,-1.7137,-1.7168,-1.6944,-1.6765,-1.6652,-1.5874,-1.542,-1.5137,-1.5362,-1.5584,-1.5884,-1.5941,-1.6228,-1.6747,-1.7685,-1.7711,-1.779,-1.9794,-2.004,-2.0053,-2.1837,-2.2262,-2.2311,-2.2967,-2.3078,-2.3078,-2.3078,-2.3078,-2.3078,-2.3078,-2.3078,-2.3078,-2.3078,-2.3078,-2.3078,-2.3078,-2.3078,-2.3078,-2.3078,-2.3078,-2.3078,-2.3078,-2.3078,-2.3078,-2.3078,-2.3078,-2.3078,-2.3078,-2.321,-2.333,-2.3403,-2.3569,-2.3675,-2.3675,-2.4794,-2.5508,-2.5673,-2.6759,-2.7408,-2.7625,-2.7625,-2.7625,-2.7625,-2.7625,-2.7625,0.0,0.0,0.0,-1.5869,0.0,0.0,0.0,0.0,-1.6253,0.0,0.0,0.0,0.0,0.0,0.0,0.0,0.0,0.0,0.0,0.0,0.0,0.0,0.0,0.0,0.0,0.0,0.0,0.0,0.0,0.0,-1.8543,-1.8267,-1.7781,-1.6995,-1.6386,-1.5609,-1.4724,-1.3866,-1.3601,-1.4015,-1.3784,-1.4254,-1.5322,-1.5601,-1.6131,-1.695,-1.7629,-1.7856,-1.7667,-1.7667,-1.7213,-1.6436,-1.5816,-1.5526,-1.541,-1.541,-1.5604,-1.5914,-1.6066,-1.6549,-1.7257,-1.7886,-1.8104,-1.8398,-2.0112,-2.0201,-2.0241,-2.2424,-2.2689,-2.2401,-2.294,-2.3078,-2.3078,-2.3078,-2.3078,-2.3078,-2.3078,-2.3078,-2.3078,-2.3078,-2.3078,-2.3078,-2.3078,-2.3078,-2.3078,-2.3078,-2.3078,-2.3078,-2.3078,-2.3078,-2.3078,-2.3078,-2.3078,-2.3078,-2.3078,-2.3138,-2.3198,-2.3403,-2.3956,-2.435,-2.4452,-2.5063,-2.5728,-2.6457,-2.651,-2.6878,-2.7625,-2.7625,-2.7625,-2.7625,-2.7625,-2.7625,0.0,0.0,-1.6808,-1.6392,0.0,0.0,0.0,0.0,0.0,0.0,0.0,0.0,0.0,0.0,0.0,0.0,0.0,0.0,0.0,0.0,0.0,0.0,0.0,0.0,0.0,0.0,0.0,0.0,0.0,0.0,0.0,-1.744,-1.7098,-1.6743,-1.6011,-1.5521,-1.5289,-1.4616,-1.4337,-1.4477,-1.4547,-1.5071,-1.5949,-1.5961,-1.6367,-1.7105,-1.7329,-1.7572,-1.7862,-1.7821,-1.7591,-1.7213,-1.6492,-1.6046,-1.5826,-1.5662,-1.5846,-1.6316,-1.6662,-1.7257,-1.7875,-1.8483,-1.8709,-1.8947,-2.0256,-2.0531,-2.071,-2.2163,-2.2447,-2.2435,-2.2927,-2.3078,-2.3078,-2.3078,-2.3078,-2.3078,-2.3078,-2.3078,-2.3078,-2.3078,-2.3078,-2.3078,-2.3078,-2.3078,-2.3078,-2.3078,-2.3078,-2.3078,-2.3078,-2.3078,-2.3078,-2.3078,-2.3078,-2.3305,-2.3826,-2.4323,-2.461,-2.4567,-2.4851,-2.5063,-2.5063,-2.5728,-2.6229,-2.651,-2.6982,-2.7357,-2.7625,-2.7625,-2.7625,-2.7625,-2.7625,-2.7625,-1.7086,-1.7115,0.0,-1.668,-1.665,0.0,-1.6362,0.0,0.0,0.0,0.0,0.0,0.0,0.0,0.0,0.0,0.0,0.0,0.0,0.0,0.0,0.0,0.0,0.0,0.0,0.0,-1.7943,-1.8073,0.0,0.0,0.0,0.0,-1.692,-1.6797,-1.586,-1.5372,-1.5517,-1.4864,-1.4558,-1.4616,-1.4834,-1.5223,-1.5812,-1.5742,-1.6162,-1.6883,-1.6761,-1.7199,-1.7977,-1.7887,-1.7762,-1.7667,-1.7045,-1.6719,-1.6436,-1.5778,-1.5961,-1.6751,-1.7545,-1.8093,-1.8536,-1.9081,-1.9291,-1.9454,-2.0382,-2.0567,-2.0589,-2.1707,-2.1882,-2.1895,-2.2648,-2.2836,-2.2887,-2.3027,-2.3078,-2.3078,-2.3078,-2.3078,-2.3078,-2.3078,-2.3078,-2.3078,-2.3078,-2.3078,-2.3078,-2.3078,-2.3078,-2.3078,-2.3078,-2.3078,-2.3078,-2.3078,-2.3078,-2.3305,-2.3826,-2.4567,-2.4951,-2.4851,-2.5453,-2.5783,-2.5728,-2.6496,-2.6878,-2.6878,-2.7357,-2.7625,-2.7625,-2.7625,-2.7625,-2.7625,-2.7625,-2.7625]}]]